[[{"header":{"parameterUnit":"m.s-1","parameterCategory":1,"la1":30.6,"la2":28.766,"lo1":-90.7593,"lo2":-88.6598,"dy":0.0162,"dx":0.0183,"nx":116,"ny":114,"refTime":"2023-10-22T12:00:00:Z","depth":0,"parameterNumber":2,"parameterNumberName":"U-component_of_WINDS"},"data":[0.0,0.0,0.0,0.0,0.0,0.0,0.0,0.0,0.0,0.0,0.0,0.0,0.0,0.0,0.0,0.0,0.0,0.0,0.0,0.0,0.0,0.0,0.0,0.0,0.0,0.0,0.0,0.0,0.0,0.0,0.0,0.0,0.0,0.0,0.0,0.0,0.0,0.0,0.0,0.0,0.0,0.0,0.0,0.0,0.0,0.0,0.0,0.0,0.0,0.0,0.0,0.0,0.0,0.0,0.0,0.0,0.0,0.0,0.0,0.0,0.0,0.0,0.0,0.0,0.0,0.0,0.0,0.0,0.0,0.0,0.0,0.0,0.0,0.0,0.0,0.0,0.0,0.0,0.0,0.0,0.0,0.0,0.0,0.0,0.0,0.0,0.0,0.0,0.0,0.0,0.0,0.0,0.0,0.0,0.0,0.0,0.0,0.0,0.0,0.0,0.0,0.0,0.0,0.0,0.0,0.0,0.0,0.0,0.0,0.0,0.0,0.0,0.0,0.0,0.0,0.0,0.0,0.0,0.0,0.0,0.0,0.0,0.0,0.0,0.0,0.0,0.0,0.0,0.0,0.0,0.0,0.0,0.0,0.0,0.0,0.0,0.0,0.0,0.0,0.0,0.0,0.0,0.0,0.0,0.0,0.0,0.0,0.0,0.0,0.0,0.0,0.0,0.0,0.0,0.0,0.0,0.0,0.0,0.0,0.0,0.0,0.0,0.0,0.0,0.0,0.0,0.0,0.0,0.0,0.0,0.0,0.0,0.0,0.0,0.0,0.0,0.0,0.0,0.0,0.0,0.0,0.0,0.0,0.0,0.0,0.0,0.0,0.0,0.0,0.0,0.0,0.0,0.0,0.0,0.0,0.0,0.0,0.0,0.0,0.0,0.0,0.0,0.0,0.0,0.0,0.0,0.0,0.0,0.0,0.0,0.0,0.0,0.0,0.0,0.0,0.0,0.0,0.0,0.0,0.0,0.0,0.0,0.0,0.0,0.0,0.0,0.0,0.0,0.0,0.0,0.0,0.0,0.0,0.0,0.0,0.0,0.0,0.0,0.0,0.0,0.0,0.0,0.0,0.0,0.0,0.0,0.0,0.0,0.0,0.0,0.0,0.0,0.0,0.0,0.0,0.0,0.0,0.0,0.0,0.0,0.0,0.0,0.0,0.0,0.0,0.0,0.0,0.0,0.0,0.0,0.0,0.0,0.0,0.0,0.0,0.0,0.0,0.0,0.0,0.0,0.0,0.0,0.0,0.0,0.0,0.0,0.0,0.0,0.0,0.0,0.0,0.0,0.0,0.0,0.0,0.0,0.0,0.0,0.0,0.0,0.0,0.0,0.0,0.0,0.0,0.0,0.0,0.0,0.0,0.0,0.0,0.0,0.0,0.0,0.0,0.0,0.0,0.0,0.0,0.0,0.0,0.0,0.0,0.0,0.0,0.0,0.0,0.0,0.0,0.0,0.0,0.0,0.0,0.0,0.0,0.0,0.0,0.0,0.0,0.0,0.0,0.0,0.0,0.0,0.0,0.0,0.0,0.0,0.0,0.0,0.0,0.0,0.0,0.0,0.0,0.0,0.0,0.0,0.0,0.0,0.0,0.0,0.0,0.0,0.0,0.0,0.0,0.0,0.0,0.0,0.0,0.0,0.0,0.0,0.0,0.0,0.0,0.0,0.0,0.0,0.0,0.0,0.0,0.0,0.0,0.0,0.0,0.0,0.0,0.0,0.0,0.0,0.0,0.0,0.0,0.0,0.0,0.0,0.0,0.0,0.0,0.0,0.0,0.0,0.0,0.0,0.0,0.0,0.0,0.0,0.0,0.0,0.0,0.0,0.0,0.0,0.0,0.0,0.0,0.0,0.0,0.0,0.0,0.0,0.0,0.0,0.0,0.0,0.0,0.0,0.0,0.0,0.0,0.0,0.0,0.0,0.0,0.0,0.0,0.0,0.0,0.0,0.0,0.0,0.0,0.0,0.0,0.0,0.0,0.0,0.0,0.0,0.0,0.0,0.0,0.0,0.0,0.0,0.0,0.0,0.0,0.0,0.0,0.0,0.0,0.0,0.0,0.0,0.0,0.0,0.0,0.0,0.0,0.0,0.0,0.0,0.0,0.0,0.0,0.0,0.0,0.0,0.0,0.0,0.0,0.0,0.0,0.0,0.0,0.0,0.0,0.0,0.0,0.0,0.0,0.0,0.0,0.0,0.0,0.0,0.0,0.0,0.0,0.0,0.0,0.0,0.0,0.0,0.0,0.0,0.0,0.0,0.0,0.0,0.0,0.0,0.0,0.0,0.0,0.0,0.0,0.0,0.0,0.0,0.0,0.0,0.0,0.0,0.0,0.0,0.0,0.0,0.0,0.0,0.0,0.0,0.0,0.0,0.0,0.0,0.0,0.0,0.0,0.0,0.0,0.0,0.0,0.0,0.0,0.0,0.0,0.0,0.0,0.0,0.0,0.0,0.0,0.0,0.0,0.0,0.0,0.0,0.0,0.0,0.0,0.0,0.0,0.0,0.0,0.0,0.0,0.0,0.0,0.0,0.0,0.0,0.0,0.0,0.0,0.0,0.0,0.0,0.0,0.0,0.0,0.0,0.0,0.0,0.0,0.0,0.0,0.0,0.0,0.0,0.0,0.0,0.0,0.0,0.0,0.0,0.0,0.0,0.0,0.0,0.0,0.0,0.0,0.0,0.0,0.0,0.0,0.0,0.0,0.0,0.0,0.0,0.0,0.0,0.0,0.0,0.0,0.0,0.0,0.0,0.0,0.0,0.0,0.0,0.0,0.0,0.0,0.0,0.0,0.0,0.0,0.0,0.0,0.0,0.0,0.0,0.0,0.0,0.0,0.0,0.0,0.0,0.0,0.0,0.0,0.0,0.0,0.0,0.0,0.0,0.0,0.0,0.0,0.0,0.0,0.0,0.0,0.0,0.0,0.0,0.0,0.0,0.0,0.0,0.0,0.0,0.0,0.0,0.0,0.0,0.0,0.0,0.0,0.0,0.0,0.0,0.0,0.0,0.0,0.0,0.0,0.0,0.0,0.0,0.0,0.0,0.0,0.0,0.0,0.0,0.0,0.0,0.0,0.0,0.0,0.0,0.0,0.0,0.0,0.0,0.0,0.0,0.0,0.0,0.0,0.0,0.0,0.0,0.0,0.0,0.0,0.0,0.0,0.0,0.0,0.0,0.0,0.0,0.0,0.0,0.0,0.0,0.0,0.0,0.0,0.0,0.0,0.0,0.0,0.0,0.0,0.0,0.0,0.0,0.0,0.0,0.0,0.0,0.0,0.0,0.0,0.0,0.0,0.0,0.0,0.0,0.0,0.0,0.0,0.0,0.0,0.0,0.0,0.0,0.0,0.0,0.0,0.0,0.0,0.0,0.0,0.0,0.0,0.0,0.0,0.0,0.0,0.0,0.0,0.0,0.0,0.0,0.0,0.0,0.0,0.0,0.0,0.0,0.0,0.0,0.0,0.0,0.0,0.0,0.0,0.0,0.0,0.0,0.0,0.0,0.0,0.0,0.0,0.0,0.0,0.0,0.0,0.0,0.0,0.0,0.0,0.0,0.0,0.0,0.0,0.0,0.0,0.0,0.0,0.0,0.0,0.0,0.0,0.0,0.0,0.0,0.0,0.0,0.0,0.0,0.0,0.0,0.0,0.0,0.0,0.0,0.0,0.0,0.0,0.0,0.0,0.0,0.0,0.0,0.0,0.0,0.0,0.0,0.0,0.0,0.0,0.0,0.0,0.0,0.0,0.0,0.0,0.0,0.0,0.0,0.0,0.0,0.0,0.0,0.0,0.0,0.0,0.0,0.0,0.0,0.0,0.0,0.0,0.0,0.0,0.0,0.0,0.0,0.0,0.0,0.0,0.0,0.0,0.0,0.0,0.0,0.0,0.0,0.0,0.0,0.0,0.0,0.0,0.0,0.0,0.0,0.0,0.0,0.0,0.0,0.0,0.0,0.0,0.0,0.0,0.0,0.0,0.0,0.0,0.0,0.0,0.0,0.0,0.0,0.0,0.0,0.0,0.0,0.0,0.0,0.0,0.0,0.0,0.0,0.0,0.0,0.0,0.0,0.0,0.0,0.0,0.0,0.0,0.0,0.0,0.0,0.0,0.0,0.0,0.0,0.0,0.0,0.0,0.0,0.0,0.0,0.0,0.0,0.0,0.0,0.0,0.0,0.0,0.0,0.0,0.0,0.0,0.0,0.0,0.0,0.0,0.0,0.0,0.0,0.0,0.0,0.0,0.0,0.0,0.0,0.0,0.0,0.0,0.0,0.0,0.0,0.0,0.0,0.0,0.0,0.0,0.0,0.0,0.0,0.0,0.0,0.0,0.0,0.0,0.0,0.0,0.0,0.0,0.0,0.0,0.0,0.0,0.0,0.0,0.0,0.0,0.0,0.0,0.0,0.0,0.0,0.0,0.0,0.0,0.0,0.0,0.0,0.0,0.0,0.0,0.0,0.0,0.0,0.0,0.0,0.0,0.0,0.0,0.0,0.0,0.0,0.0,0.0,0.0,0.0,0.0,0.0,0.0,0.0,0.0,0.0,0.0,0.0,0.0,0.0,0.0,0.0,0.0,0.0,0.0,0.0,0.0,0.0,0.0,0.0,0.0,0.0,0.0,0.0,0.0,0.0,0.0,0.0,0.0,0.0,0.0,0.0,0.0,0.0,0.0,0.0,0.0,0.0,0.0,0.0,0.0,0.0,0.0,0.0,0.0,0.0,0.0,0.0,0.0,0.0,0.0,0.0,0.0,0.0,0.0,0.0,0.0,0.0,0.0,0.0,0.0,0.0,0.0,0.0,0.0,0.0,0.0,0.0,0.0,0.0,0.0,0.0,0.0,0.0,0.0,0.0,0.0,0.0,0.0,0.0,0.0,0.0,0.0,0.0,0.0,0.0,0.0,0.0,0.0,0.0,0.0,0.0,0.0,0.0,0.0,0.0,0.0,0.0,0.0,0.0,0.0,0.0,0.0,0.0,0.0,0.0,0.0,0.0,0.0,0.0,0.0,0.0,0.0,0.0,0.0,0.0,0.0,0.0,0.0,0.0,0.0,0.0,0.0,0.0,0.0,0.0,0.0,0.0,0.0,0.0,0.0,0.0,0.0,0.0,0.0,0.0,0.0,0.0,0.0,0.0,0.0,0.0,0.0,0.0,0.0,0.0,0.0,0.0,0.0,0.0,0.0,0.0,0.0,0.0,0.0,0.0,0.0,0.0,0.0,0.0,0.0,0.0,0.0,0.0,0.0,0.0,0.0,0.0,0.0,0.0,0.0,0.0,0.0,0.0,0.0,0.0,0.0,0.0,0.0,0.0,0.0,0.0,0.0,0.0,0.0,0.0,0.0,0.0,0.0,0.0,0.0,0.0,0.0,0.0,0.0,0.0,0.0,0.0,0.0,0.0,0.0,0.0,0.0,0.0,0.0,0.0,0.0,0.0,0.0,0.0,0.0,0.0,0.0,0.0,0.0,0.0,0.0,0.0,0.0,0.0,0.0,0.0,0.0,0.0,0.0,0.0,0.0,0.0,0.0,0.0,0.0,0.0,0.0,0.0,0.0,0.0,0.0,0.0,0.0,0.0,0.0,0.0,0.0,0.0,0.0,0.0,0.0,0.0,0.0,0.0,0.0,0.0,0.0,0.0,0.0,0.0,0.0,0.0,0.0,0.0,0.0,0.0,0.0,0.0,0.0,0.0,0.0,0.0,0.0,0.0,0.0,0.0,0.0,0.0,0.0,0.0,0.0,0.0,0.0,0.0,0.0,0.0,0.0,0.0,0.0,0.0,0.0,0.0,0.0,0.0,0.0,0.0,0.0,0.0,0.0,0.0,0.0,0.0,0.0,0.0,0.0,0.0,0.0,0.0,0.0,0.0,0.0,0.0,0.0,0.0,0.0,0.0,0.0,0.0,0.0,0.0,0.0,0.0,0.0,0.0,0.0,0.0,0.0,0.0,0.0,0.0,0.0,0.0,0.0,0.0,0.0,0.0,0.0,0.0,0.0,0.0,0.0,0.0,0.0,0.0,0.0,0.0,0.0,0.0,0.0,0.0,0.0,0.0,0.0,0.0,0.0,0.0,0.0,0.0,0.0,0.0,-2.3087,-2.2977,0.0,0.0,0.0,0.0,0.0,0.0,0.0,0.0,0.0,0.0,0.0,0.0,0.0,0.0,0.0,0.0,0.0,0.0,0.0,0.0,0.0,0.0,0.0,0.0,0.0,0.0,0.0,0.0,0.0,0.0,0.0,0.0,0.0,0.0,0.0,0.0,0.0,-2.6424,-2.6634,-2.6899,-2.7106,-2.7617,-2.7466,-2.6864,0.0,0.0,0.0,0.0,0.0,0.0,0.0,0.0,0.0,0.0,0.0,0.0,0.0,0.0,0.0,0.0,0.0,0.0,0.0,0.0,0.0,0.0,0.0,0.0,0.0,0.0,0.0,0.0,0.0,0.0,0.0,0.0,0.0,0.0,0.0,0.0,0.0,0.0,0.0,0.0,0.0,0.0,0.0,0.0,0.0,0.0,0.0,0.0,0.0,0.0,0.0,0.0,0.0,0.0,0.0,0.0,0.0,0.0,0.0,0.0,0.0,0.0,0.0,0.0,0.0,0.0,0.0,0.0,0.0,0.0,-2.2686,-2.2786,0.0,0.0,0.0,0.0,0.0,0.0,0.0,0.0,0.0,0.0,0.0,0.0,0.0,0.0,0.0,0.0,0.0,0.0,0.0,0.0,0.0,0.0,0.0,-2.5693,-2.5693,-2.5693,-2.5693,-2.5693,0.0,0.0,0.0,0.0,0.0,0.0,-2.5693,-2.5693,-2.5693,-2.5693,-2.6094,-2.6501,-2.6875,-2.6875,-2.664,-2.6279,-2.6282,0.0,0.0,0.0,0.0,0.0,0.0,0.0,0.0,0.0,0.0,0.0,0.0,0.0,0.0,0.0,0.0,0.0,0.0,0.0,0.0,0.0,0.0,0.0,0.0,0.0,0.0,0.0,0.0,0.0,0.0,0.0,0.0,0.0,0.0,0.0,0.0,0.0,0.0,0.0,0.0,0.0,0.0,0.0,0.0,0.0,0.0,0.0,0.0,0.0,0.0,0.0,0.0,0.0,0.0,0.0,0.0,0.0,0.0,0.0,0.0,0.0,0.0,0.0,-2.266,-2.2585,-2.2585,-2.2585,-2.2209,-2.1642,-2.2285,-2.266,-2.2846,-2.3452,0.0,0.0,0.0,0.0,0.0,0.0,0.0,0.0,0.0,0.0,0.0,0.0,0.0,0.0,0.0,0.0,0.0,0.0,0.0,-2.5693,-2.5693,-2.5693,-2.5693,-2.5693,-2.5693,-2.5693,-2.5693,0.0,0.0,0.0,0.0,0.0,-2.5693,-2.5693,-2.5693,-2.5693,-2.5761,-2.5799,-2.5884,-2.5884,-2.5694,-2.5265,-2.53,-2.4822,-2.4029,0.0,0.0,0.0,0.0,0.0,0.0,0.0,0.0,0.0,0.0,0.0,0.0,0.0,0.0,0.0,0.0,0.0,0.0,0.0,0.0,0.0,0.0,0.0,0.0,0.0,0.0,0.0,0.0,0.0,0.0,0.0,0.0,0.0,0.0,0.0,0.0,0.0,0.0,0.0,0.0,0.0,-2.1982,-2.2687,0.0,0.0,0.0,0.0,0.0,0.0,0.0,0.0,0.0,0.0,0.0,0.0,0.0,-2.2995,-2.2995,-2.2322,-2.1945,-2.1945,-2.1242,-2.0895,-2.0895,-2.0895,-2.0876,-2.076,-2.0857,0.0,-2.1983,-2.2059,0.0,0.0,0.0,0.0,0.0,0.0,0.0,0.0,0.0,0.0,0.0,0.0,0.0,0.0,0.0,0.0,0.0,0.0,0.0,0.0,0.0,-2.3899,-2.3899,-2.3899,-2.4461,-2.4805,-2.4805,-2.5382,0.0,0.0,-2.5693,-2.5693,-2.5693,-2.5693,-2.5693,-2.5693,-2.5693,-2.5693,-2.5693,-2.5693,-2.5625,-2.541,-2.5185,-2.4723,-2.4121,-2.3691,0.0,0.0,0.0,0.0,0.0,0.0,0.0,0.0,0.0,0.0,0.0,0.0,0.0,0.0,0.0,0.0,0.0,0.0,0.0,0.0,0.0,0.0,0.0,0.0,0.0,0.0,0.0,0.0,0.0,0.0,0.0,0.0,0.0,0.0,0.0,0.0,0.0,0.0,0.0,-2.1357,-2.128,-2.1624,-2.1375,-2.1336,0.0,0.0,0.0,0.0,0.0,0.0,0.0,0.0,0.0,-2.1642,-2.1642,-2.1786,-2.2015,-2.1625,-2.1609,-2.185,-2.151,-2.1349,-2.1349,-2.1349,-2.1172,-2.0937,-2.0937,-2.1016,-2.1165,-2.1603,-2.2209,-2.2861,0.0,0.0,0.0,0.0,-2.3452,-2.3415,0.0,0.0,0.0,0.0,0.0,0.0,0.0,0.0,0.0,0.0,0.0,0.0,-2.2484,-2.2484,-2.2484,-2.2484,-2.3235,-2.3683,-2.3683,-2.4505,-2.5142,-2.5457,-2.5553,-2.5709,-2.6025,-2.5908,-2.581,-2.5693,-2.5693,-2.5693,-2.5693,-2.5693,-2.5693,-2.5674,-2.5391,-2.5,-2.4551,-2.4121,-2.3945,-2.3926,0.0,0.0,0.0,0.0,0.0,0.0,0.0,0.0,0.0,0.0,0.0,0.0,0.0,0.0,0.0,0.0,0.0,0.0,0.0,0.0,0.0,0.0,0.0,0.0,0.0,0.0,0.0,0.0,0.0,0.0,0.0,0.0,0.0,0.0,0.0,0.0,0.0,-2.0605,-2.0605,-2.0605,-2.0605,-2.0605,0.0,0.0,0.0,0.0,0.0,0.0,-2.0938,-2.0938,-2.0938,-2.0938,-2.0938,-2.1074,-2.1366,-2.1366,-2.1562,-2.1894,-2.1894,-2.1894,-2.1894,-2.1894,-2.1699,-2.1366,-2.1366,-2.1211,-2.0958,-2.1343,-2.1603,-2.1869,-2.2472,-2.2809,-2.2995,-2.2771,-2.2697,-2.266,0.0,0.0,0.0,0.0,0.0,0.0,0.0,0.0,0.0,0.0,0.0,-2.2484,-2.2484,-2.2484,-2.2484,-2.2484,-2.2534,-2.2584,-2.2584,-2.2928,-2.3665,-2.4822,-2.5102,-2.5769,-2.6902,-2.6562,-2.6152,-2.5693,-2.5693,-2.5693,-2.5693,-2.5693,-2.5693,-2.5693,-2.5674,-2.5449,-2.5,-2.457,-2.4375,-2.4375,-2.4355,0.0,0.0,0.0,0.0,0.0,0.0,0.0,0.0,0.0,0.0,0.0,0.0,0.0,0.0,0.0,0.0,0.0,0.0,0.0,0.0,0.0,0.0,0.0,0.0,0.0,0.0,0.0,0.0,0.0,0.0,0.0,0.0,0.0,0.0,0.0,0.0,0.0,0.0,-2.0605,-2.0605,0.0,0.0,0.0,0.0,-2.1132,-2.1171,-2.1346,-2.1797,-2.1816,-2.1816,-2.1816,-2.1816,-2.1836,-2.1855,-2.1855,-2.1855,-2.1894,-2.1894,-2.1894,-2.1894,-2.1894,-2.1875,-2.1855,-2.1855,-2.1836,-2.1758,-2.0997,-2.1126,-2.1794,-2.1832,-2.2322,-2.292,-2.2134,-2.1869,-2.1756,0.0,0.0,0.0,0.0,0.0,0.0,0.0,0.0,-2.046,-2.046,-2.0634,-2.0757,-2.0757,-2.0757,-2.0757,-2.0757,-2.1522,-2.2071,-2.2071,-2.2869,-2.353,-2.3965,-2.4018,-2.4298,-2.4734,-2.4609,-2.4466,-2.4271,-2.5039,-2.4891,-2.3996,-2.477,-2.4572,-2.3651,-2.4344,-2.4564,-2.4444,-2.4716,-2.4844,-2.4805,-2.4531,-2.4316,0.0,0.0,0.0,0.0,0.0,0.0,0.0,0.0,0.0,0.0,0.0,0.0,0.0,0.0,0.0,0.0,0.0,0.0,0.0,0.0,0.0,0.0,0.0,0.0,0.0,0.0,0.0,0.0,0.0,0.0,0.0,0.0,0.0,0.0,0.0,0.0,0.0,-2.0605,-2.082,0.0,-2.0996,-2.125,-2.1484,-2.1641,-2.166,-2.1719,-2.1875,-2.2148,-2.2285,-2.2285,-2.2559,-2.2875,-2.3105,-2.3105,-2.3242,-2.3516,-2.3516,-2.3516,-2.3516,-2.3516,-2.3359,-2.3105,-2.2812,-2.2539,-2.2246,-2.166,-2.1608,-2.185,-2.185,-2.1869,-2.1803,-2.1529,-2.1271,-2.0972,0.0,0.0,0.0,0.0,0.0,0.0,0.0,-2.0183,-2.0183,-2.0183,-2.0062,-1.9916,-1.9916,-1.9916,-1.9916,-1.9916,-2.074,-2.124,-2.124,-2.1979,-2.2568,-2.2995,-2.3366,-2.351,-2.3373,-2.3373,-2.3322,-2.3133,-2.391,-2.3769,-2.286,-2.3642,-2.345,-2.2534,-2.3235,-2.3534,-2.3565,-2.4017,-2.465,-2.5226,-2.4583,-2.4418,-2.4668,0.0,0.0,0.0,0.0,0.0,0.0,0.0,0.0,0.0,0.0,0.0,0.0,0.0,0.0,0.0,0.0,0.0,0.0,0.0,0.0,0.0,0.0,0.0,0.0,0.0,0.0,0.0,0.0,0.0,0.0,0.0,0.0,0.0,0.0,-2.0427,-2.0722,-2.0539,-2.0766,-2.1118,-2.16,-2.1624,-2.187,-2.25,-2.2519,-2.2598,-2.2734,-2.3008,-2.3144,-2.3144,-2.3437,-2.3711,-2.4004,-2.4004,-2.4141,-2.4414,-2.4414,-2.4414,-2.4414,-2.4414,-2.4258,-2.3984,-2.3647,-2.3418,-2.3144,-2.2852,-2.2734,-2.2695,-2.2109,-2.1699,-2.1465,-2.1465,-2.1269,-2.1055,0.0,0.0,0.0,0.0,0.0,0.0,-2.0212,-2.0212,-2.0212,-2.0212,-2.0197,-2.0197,-2.0197,-2.0197,-2.0197,-2.0197,-2.0212,-2.0212,-2.0197,-2.0197,-2.0728,-2.1872,-2.3048,-2.346,-2.3014,-2.3014,-2.2843,-2.2434,-2.2502,-2.2502,-2.2434,-2.2485,-2.2485,-2.2417,-2.2467,-2.2467,-2.245,-2.245,-2.3669,-2.5479,-2.4442,-2.4463,-2.5031,0.0,0.0,0.0,0.0,0.0,0.0,0.0,0.0,0.0,0.0,0.0,0.0,0.0,0.0,0.0,0.0,0.0,0.0,0.0,0.0,0.0,0.0,0.0,0.0,0.0,0.0,0.0,0.0,0.0,0.0,0.0,0.0,0.0,-1.8547,-2.0038,-2.096,-2.0424,-2.0395,-2.0916,-2.2287,-2.1639,-2.1845,-2.3615,-2.3719,-2.3894,-2.4302,-2.4341,-2.4341,-2.4387,-2.4407,-2.4407,-2.4453,-2.4453,-2.4453,-2.4453,-2.4453,-2.4453,-2.4453,-2.4453,-2.4453,-2.4453,-2.4453,-2.4434,-2.4434,-2.4414,-2.4414,-2.4258,-2.2598,-2.1953,-2.1934,-2.1934,-2.1914,-2.1894,0.0,0.0,0.0,0.0,0.0,0.0,-2.094,-2.094,-2.094,-2.094,-2.0735,-2.0533,-2.0533,-2.0533,-2.0533,-2.0533,-2.0808,-2.0837,-2.0603,-2.0533,-2.0597,-2.0674,-2.1039,-2.1156,-2.0994,-2.1239,-2.1316,-2.117,-2.233,-2.2275,-2.1224,-2.2075,-2.1878,-2.0857,-2.164,-2.1865,-2.1674,-2.1674,-2.2333,-2.3352,-2.3035,-2.3032,-2.3224,0.0,0.0,0.0,0.0,0.0,0.0,0.0,0.0,0.0,0.0,0.0,0.0,0.0,0.0,0.0,0.0,0.0,0.0,0.0,0.0,0.0,0.0,0.0,0.0,0.0,0.0,0.0,0.0,0.0,0.0,0.0,-1.8741,-1.8965,-1.8863,-1.927,-1.9621,-1.9661,-1.9999,-2.0445,-2.1073,-2.1171,-2.1369,-2.1861,-2.1925,-2.1978,-2.2085,-2.2398,-2.2943,-2.3727,-2.4055,-2.4562,-2.5323,-2.5323,-2.5323,-2.5323,-2.5323,-2.5323,-2.5323,-2.5323,-2.5323,-2.5304,-2.5019,-2.4883,-2.4863,-2.4551,-2.4414,-2.4375,-2.3906,-2.3359,-2.2856,-2.2793,-2.2402,-2.1894,0.0,0.0,0.0,0.0,0.0,0.0,-2.1203,-2.1203,-2.1203,-2.1203,-2.1042,-2.0925,-2.0925,-2.0925,-2.0925,-2.0925,-2.0969,-2.0984,-2.0925,-2.0676,-2.0311,-1.9857,-1.9959,-2.0033,-2.0033,-2.0355,-2.046,-2.046,-2.1415,-2.1345,-2.0516,-2.1218,-2.1058,-2.0237,-2.0861,-2.1025,-2.0895,-2.081,-2.0992,-2.1341,-2.1197,-2.1641,-2.2333,-2.2433,-2.2314,-2.1927,-2.1278,-2.1081,-2.1028,-2.0378,0.0,0.0,0.0,0.0,0.0,0.0,0.0,0.0,0.0,0.0,0.0,0.0,0.0,0.0,0.0,0.0,0.0,0.0,0.0,0.0,0.0,0.0,0.0,0.0,-1.8364,-1.8505,-1.8505,-1.9046,-1.9485,-1.955,-1.9813,-2.0265,-2.106,-2.0943,-2.1145,-2.1907,-2.1924,-2.1992,-2.2163,-2.2417,-2.284,-2.3494,-2.3726,-2.4155,-2.478,-2.478,-2.5032,-2.5484,-2.5484,-2.5484,-2.5484,-2.6002,-2.5703,-2.4812,-2.4899,-2.4662,-2.4165,-2.3758,-2.3879,-2.4288,0.0,0.0,0.0,0.0,-2.3359,-2.2949,0.0,0.0,0.0,0.0,0.0,0.0,-2.1203,-2.1203,-2.1203,-2.1203,-2.1203,-2.1203,-2.1203,-2.1203,-2.1189,-2.1159,-2.0925,-2.0867,-2.1086,-2.053,-1.993,-1.936,-1.9638,-1.9867,-1.9867,-2.012,-2.0241,-2.0241,-2.027,-2.0285,-2.0285,-2.0285,-2.0285,-2.0285,-2.0285,-2.027,-2.0212,-1.9989,-1.9881,-1.9793,-1.95,-2.0323,-2.1794,-2.1979,-2.1996,-2.1641,-2.0585,-2.0483,-2.0716,-1.988,0.0,0.0,0.0,0.0,0.0,0.0,0.0,0.0,0.0,0.0,0.0,0.0,0.0,0.0,0.0,0.0,0.0,0.0,0.0,0.0,0.0,0.0,0.0,0.0,-1.8187,-1.7838,-1.7911,-1.9115,-1.9945,-1.9698,-1.9695,-2.0246,-2.1544,-2.0863,-2.1036,-2.2549,-2.2651,-2.2802,-2.3137,-2.3154,0.0,0.0,0.0,-2.3366,-2.3525,-2.3525,-2.3983,-2.5029,-2.5029,-2.5029,-2.5029,-2.6102,-2.5481,-2.3561,-2.4324,-2.4079,-2.3048,-2.2758,-2.3175,-2.4035,-2.4354,-2.4492,-2.4473,-2.4434,-2.4414,-2.4414,0.0,0.0,0.0,0.0,0.0,0.0,-2.1203,-2.1203,-2.1203,-2.1203,-2.1203,-2.1203,-2.1203,-2.1203,-2.1101,-2.0837,-2.0998,-2.0911,-2.0402,-2.0062,-1.9852,-1.972,-1.9974,-2.015,-2.015,-2.0457,-2.0577,-2.0577,-2.0896,-2.1028,-2.1028,-2.1028,-2.1028,-2.1028,-2.1028,-2.0881,-2.0633,-2.0559,-2.0237,-1.9808,-1.9749,-1.9769,-1.9828,-1.9687,-1.9672,-1.9724,-1.8788,-1.8864,-1.9184,-1.8338,-1.7974,-1.789,-1.7941,-1.7817,0.0,0.0,0.0,0.0,0.0,0.0,0.0,0.0,0.0,0.0,0.0,0.0,0.0,0.0,0.0,0.0,0.0,0.0,0.0,-1.7915,-1.786,-1.7999,-1.8525,-1.9128,-1.934,-1.9004,-1.9227,-1.9627,-2.0166,-2.0225,-2.0381,-2.0717,-2.0717,-2.0747,-2.0807,-2.0822,-2.124,-2.2087,-2.214,-2.2568,-2.3472,-2.3525,-2.3631,-2.3825,-2.3825,0.0,-2.3825,-2.4053,-2.3947,-2.3525,-2.3651,-2.3616,-2.3406,-2.3338,-2.3461,-2.3722,-2.4619,-2.4941,-2.4902,-2.4551,-2.4414,-2.4414,0.0,0.0,0.0,0.0,0.0,0.0,-2.0572,-2.0917,-2.1203,-2.1203,-2.1072,-2.0969,-2.0969,-2.0823,-2.072,-2.072,-2.1028,-2.094,-2.0227,-2.0237,-2.0164,-2.0003,-2.0311,-2.0431,-2.0431,-2.0794,-2.0969,-2.0969,-2.113,-2.1203,-2.1203,-2.1203,-2.1203,-2.1203,-2.1203,-2.1115,-2.0955,-2.0794,-2.0442,-1.9989,-1.9828,-1.9617,-1.9272,-1.9026,-1.8869,-1.8788,-1.8384,-1.8384,-1.8593,-1.816,-1.8011,-1.7991,-1.785,-1.7695,-1.7548,0.0,0.0,0.0,0.0,0.0,0.0,0.0,0.0,0.0,0.0,0.0,0.0,0.0,0.0,-1.7574,-1.7574,0.0,-1.7867,-1.8028,-1.8203,-1.8467,-1.8964,-1.9368,-1.9514,-1.9301,-1.9564,-1.9828,-1.9989,-2.0135,-2.0256,-2.0472,-2.0431,-2.0489,-2.072,-2.072,-2.0944,-2.1486,-2.1486,-2.1748,-2.2356,-2.2356,-2.267,-2.3272,-2.3272,-2.3272,-2.3272,-2.3854,-2.3473,-2.2395,-2.2803,-2.2668,-2.2125,-2.2489,-2.2675,-2.2769,-2.3868,-2.4181,-2.3993,-2.359,-2.3444,-2.354,0.0,0.0,0.0,0.0,0.0,0.0,0.0,-2.0572,-2.1189,-2.113,-2.0881,-2.072,-2.072,-2.0431,-2.0402,-2.0794,-2.094,-2.0823,-2.03,-2.0574,-2.0603,-2.0285,-2.0647,-2.0823,-2.0823,-2.1072,-2.1203,-2.1203,-2.1203,-2.1203,-2.1203,-2.1203,-2.1203,-2.1203,-2.1203,-2.1203,-2.1189,-2.081,-2.0475,-2.0154,-1.9833,-1.9512,-1.9272,-1.8921,-1.8698,-1.8475,-1.8318,-1.8265,-1.8318,-1.8318,-1.8265,-1.8213,-1.8122,-1.7904,-1.7661,-1.7389,-1.7163,0.0,0.0,0.0,0.0,0.0,0.0,0.0,0.0,-1.7051,-1.721,-1.7256,-1.7591,-1.7911,-1.7911,-1.813,-1.8321,-1.8394,-1.8613,-1.8921,-1.9316,-1.9652,-1.9872,-1.9945,-2.0179,-2.027,-2.027,-2.0384,-2.053,-2.0794,-2.0823,-2.094,-2.1203,-2.1203,-2.1203,-2.1203,-2.1203,-2.1203,-2.1203,-2.1203,-2.1717,-2.2652,-2.2652,-2.2652,-2.2708,-2.3575,-2.2974,-2.1246,-2.1907,-2.1689,-2.085,-2.1438,-2.1698,-2.1752,-2.2645,-2.2805,-2.2559,-2.2639,-2.2706,-2.2808,0.0,0.0,0.0,0.0,0.0,0.0,0.0,0.0,-2.1101,-2.0808,-2.075,-2.072,-2.072,-2.0691,-2.0794,-2.113,-2.0662,-2.0387,-2.0647,-2.0706,-2.0706,-2.0676,-2.0984,-2.1159,-2.1159,-2.1189,-2.1203,-2.1203,-2.1203,-2.1203,-2.1203,-2.1203,-2.1203,-2.1203,-2.1203,-2.1203,-2.1189,-2.057,-2.0308,-2.0154,-1.9564,-1.9353,-1.922,-1.8698,-1.8593,-1.8764,-1.795,-1.7845,-1.8016,-1.8016,-1.7911,-1.7793,-1.8213,-1.8146,-1.7975,-1.7909,-1.7896,-1.7803,-1.7593,-1.7698,-1.78,-1.7541,-1.7663,-1.7834,0.0,-1.7768,-1.7853,-1.8105,-1.8218,-1.8247,-1.8247,-1.8277,-1.8394,-1.8686,-1.876,-1.9008,-1.9676,-1.9989,-2.0296,-2.0589,-2.0647,-2.0621,-2.0621,-2.0925,-2.1115,-2.1159,-2.1159,-2.1174,-2.1203,-2.1203,-2.1203,-2.1203,-2.1203,-2.1203,-2.1203,-2.1203,-2.1261,-2.1375,-2.1375,-2.1375,-2.1432,-2.1546,-2.1432,-2.1203,-2.1274,-2.1259,-2.1145,-2.1229,-2.1272,-2.1242,-2.1059,-2.0966,-2.1169,-2.2798,-2.3389,-2.3389,0.0,0.0,0.0,0.0,0.0,0.0,0.0,0.0,-2.1086,-2.0764,-2.072,-2.0647,-2.0402,-2.0548,-2.0779,-2.0911,-2.0852,-2.0867,-2.0998,-2.1013,-2.1013,-2.1013,-2.113,-2.1203,-2.1203,-2.1203,-2.1203,-2.1203,-2.1203,-2.1203,-2.1203,-2.1203,-2.1203,-2.1203,-2.1203,-2.1089,-2.0902,-2.0829,-2.0471,-1.9932,-1.9659,-1.9399,-1.8992,-1.8387,-1.8227,-1.8345,-1.7964,-1.7911,0.0,-1.8016,-1.7911,-1.7845,-1.7898,-1.7845,-1.7753,-1.7753,-1.7753,-1.774,-1.7635,-1.7806,-1.7937,-1.7644,-1.7773,-1.8001,-1.795,-1.8095,-1.8189,-1.8286,-1.8452,-1.8584,-1.8584,-1.8745,-1.8921,-1.9052,-1.9228,-1.952,-1.9974,-2.0311,-2.0647,-2.0969,-2.1013,-2.1013,-2.1013,-2.113,-2.1203,-2.1203,-2.1203,-2.1203,-2.1203,-2.1203,-2.1203,-2.1203,-2.1203,-2.1203,-2.1203,-2.1203,-2.1203,-2.1203,-2.1203,-2.1203,-2.1203,-2.1203,-2.1203,-2.1203,-2.1203,-2.1203,-2.1203,-2.1203,-2.1203,-2.1203,-2.1057,-2.1013,-2.1053,-2.144,-2.1565,-2.1672,0.0,0.0,0.0,0.0,0.0,0.0,0.0,0.0,0.0,0.0,-2.072,-2.0633,-2.0343,-2.0662,-2.0852,-2.0852,-2.1072,-2.1203,-2.1203,-2.1203,-2.1203,-2.1203,-2.1203,-2.1203,-2.1203,-2.1203,-2.1203,-2.1203,-2.1203,-2.1203,-2.1203,-2.1203,-2.1203,-2.1203,-2.1203,-2.1089,-2.0831,-2.0816,-2.0472,-1.9907,-1.9638,-1.9273,-1.887,-1.8328,-1.8085,-1.7964,-1.7911,-1.7911,-1.7911,-1.7964,-1.7964,-1.7859,-1.774,-1.7635,-1.7582,-1.7582,-1.7582,-1.7582,-1.7582,-1.7806,-1.7964,-1.774,-1.7859,-1.8067,-1.8208,-1.8306,-1.8454,-1.8563,-1.876,-1.8921,-1.8921,-1.9111,-1.9272,-1.9272,-1.9603,-1.9872,-2.0139,-2.0516,-2.0837,-2.1174,-2.1291,-2.1306,-2.1218,-2.1203,-2.1203,-2.1203,-2.1203,-2.1203,-2.1203,-2.1203,-2.1203,-2.1203,-2.1203,-2.1203,-2.1203,-2.1203,-2.1203,-2.1203,-2.1203,-2.1203,-2.1203,-2.1203,-2.1203,-2.1203,-2.1203,-2.1203,-2.1203,-2.1203,-2.1203,-2.1203,-2.1203,-2.1203,-2.1159,-2.0676,-2.0501,-2.0612,0.0,0.0,0.0,0.0,0.0,0.0,0.0,0.0,0.0,0.0,0.0,-2.072,-2.0706,-2.0998,-2.1189,-2.1189,-2.1203,-2.1203,-2.1203,-2.1203,-2.1203,-2.1203,-2.1203,-2.1203,-2.1203,-2.1203,-2.1203,-2.1203,-2.1203,-2.1203,-2.1203,-2.1203,-2.1203,-2.1203,-2.1203,-2.1203,-2.1131,-2.0231,-1.9991,-2.0202,-1.932,-1.8892,-1.8884,-1.8562,-1.8276,-1.7964,-1.7687,-1.7635,-1.7635,-1.7911,-1.7859,-1.7635,-1.7911,-1.7806,-1.7582,-1.7582,-1.7582,-1.7582,-1.7582,-1.7806,-1.8016,-1.7964,-1.7964,-1.8174,-1.875,-1.8632,-1.8565,-1.9138,-1.9257,-1.9257,-1.9257,-1.9272,-1.9272,-1.9272,-1.9603,-1.9872,-2.0139,-2.0516,-2.0837,-2.1174,-2.1496,-2.1554,-2.1247,-2.1203,-2.1203,-2.1203,-2.1203,-2.1203,-2.1203,-2.1203,-2.1203,-2.1203,-2.1203,-2.1203,-2.1203,-2.1203,-2.1203,-2.1203,-2.1203,-2.1203,-2.1203,-2.1203,-2.1203,-2.1203,-2.1203,-2.1203,-2.1203,-2.1203,-2.1203,-2.1203,-2.1203,-2.1203,-2.1203,-2.1189,-2.1174,-2.1174,0.0,0.0,0.0,0.0,0.0,0.0,0.0,0.0,0.0,0.0,0.0,0.0,0.0,0.0,0.0,0.0,-2.1203,-2.1203,-2.1203,-2.1203,-2.1203,-2.1203,-2.1203,-2.1203,-2.1203,-2.1203,-2.1203,-2.1203,-2.1203,-2.1203,-2.1203,-2.1203,-2.1203,-2.1203,-2.1203,-2.1089,-2.0831,-2.0559,-2.023,-1.9931,-1.9456,-1.9096,-1.8876,-1.8576,-1.8441,-1.8306,0.0,-1.7929,-1.7635,-1.7687,-1.7687,-1.7477,-1.6829,-1.6552,-1.6287,-1.553,-1.5861,-1.6446,-1.6446,-1.7094,-1.774,-1.774,-1.7859,-1.8122,-1.8489,-1.8646,-1.8855,-1.922,-1.9272,-1.9272,-1.9272,-1.9272,-1.9272,-1.9272,-1.9725,-2.012,-2.0168,-2.0706,-2.1086,-2.1203,-2.1496,-2.1657,-2.154,-2.154,-2.1437,-2.1233,-2.1203,-2.1203,-2.1203,-2.1203,-2.1203,-2.1203,-2.1203,-2.1203,-2.1203,-2.1203,-2.1203,-2.1203,-2.1203,-2.1203,-2.1203,-2.1203,-2.1203,-2.1203,-2.1203,-2.1203,-2.1203,-2.1203,-2.1203,-2.1203,-2.1203,-2.1203,-2.1203,-2.1203,-2.1203,-2.1203,0.0,0.0,0.0,0.0,0.0,0.0,0.0,0.0,0.0,0.0,0.0,0.0,0.0,0.0,0.0,0.0,0.0,-2.1203,-2.1203,-2.1203,-2.1203,-2.1203,-2.1203,-2.1203,-2.1203,-2.1203,-2.1203,-2.1203,-2.1203,-2.1203,-2.1203,-2.1203,-2.1203,-2.1203,-2.1089,-2.0902,-2.0658,-2.0486,-2.0155,-1.9795,-1.9503,-1.8954,-1.8197,-1.8017,-1.7609,0.0,-1.7117,-1.6882,-1.6613,-1.7009,-1.68,-1.6234,-1.5476,-1.5263,-1.5102,-1.4352,-1.4674,-1.5263,-1.5263,-1.5808,-1.634,-1.634,-1.6617,-1.6988,-1.7252,-1.7898,-1.8489,-1.8788,-1.9063,-1.9272,-1.9272,-1.9272,-1.9272,-1.9272,-1.9813,-2.0183,-2.0183,-2.0794,-2.1203,-2.1203,-2.1598,-2.1832,-2.1715,-2.1906,-2.1847,-2.1423,-2.1276,-2.1203,-2.1203,-2.1203,-2.1203,-2.1203,-2.1203,-2.1203,-2.1203,-2.1203,-2.1203,-2.1203,-2.1203,-2.1203,-2.1203,-2.1203,-2.1203,-2.1203,-2.1203,-2.1203,-2.1203,-2.1203,-2.1203,-2.1203,-2.1203,-2.1203,-2.1203,-2.1203,-2.1203,-2.1203,0.0,0.0,0.0,0.0,0.0,0.0,0.0,0.0,0.0,0.0,0.0,0.0,0.0,0.0,0.0,0.0,0.0,0.0,-2.1203,-2.1146,-2.1146,-2.1146,-2.1146,-2.1146,-2.1146,-2.1146,-2.1146,-2.1146,-2.1146,-2.1146,-2.1146,-2.1146,-2.1146,-2.1146,-2.0845,-2.0658,-2.0658,-2.004,-1.9751,-1.9693,-1.9417,-1.8365,-1.6954,-1.6954,-1.6,-1.4767,-1.4767,-1.47,-1.477,-1.5849,-1.5201,-1.403,-1.403,-1.3976,-1.3922,-1.3922,-1.3976,-1.403,-1.403,-1.4083,-1.4083,-1.4083,-1.4567,-1.506,-1.5339,-1.6458,-1.7582,-1.7832,-1.8527,-1.9116,-1.9116,-1.9116,-1.9116,-1.9168,-1.9653,-2.0073,-2.0128,-2.0681,-2.1146,-2.1146,-2.1774,-2.2037,-2.1686,-2.2182,-2.233,-2.1759,-2.1423,-2.1233,-2.1203,-2.1203,-2.1203,-2.1203,-2.1203,-2.1203,-2.1203,-2.1203,-2.1203,-2.1203,-2.1203,-2.1203,-2.1203,-2.1203,-2.1203,-2.1203,-2.1203,-2.1203,-2.1203,-2.1203,-2.1203,-2.1203,-2.1203,-2.1203,-2.1203,-2.1203,-2.1203,-2.1203,0.0,0.0,0.0,0.0,0.0,0.0,0.0,0.0,0.0,0.0,0.0,0.0,0.0,0.0,0.0,0.0,0.0,0.0,-2.0845,-2.0845,-2.073,-2.0558,-2.073,-2.0845,-2.0845,-2.0845,-2.0845,-2.0845,-2.0615,-2.05,-2.05,-2.05,-2.05,-2.05,-2.0443,-2.0385,-2.0385,-1.9982,-1.9274,-1.8377,-1.8098,-1.7184,-1.5954,-1.5954,-1.5733,-1.5386,-1.5386,-1.4638,-1.3856,-1.4643,-1.3949,-1.2842,-1.2842,-1.2254,-1.1555,-1.1555,-1.2146,-1.2842,-1.2842,-1.3437,-1.4083,-1.4083,-1.4567,-1.506,-1.5339,-1.5713,-1.6033,-1.6393,-1.6274,-1.6221,-1.6658,-1.6764,-1.6882,-1.7318,-1.7859,-1.8506,-1.9236,-1.9822,-2.0169,-2.0169,-2.1161,-2.164,-2.1054,-2.1608,-2.1964,-2.2052,-2.1759,-2.1467,-2.1218,-2.1203,-2.1203,-2.1203,-2.1203,-2.1203,-2.1203,-2.1203,-2.1203,-2.1203,-2.1203,-2.1203,-2.1203,-2.1203,-2.1203,-2.1203,-2.1203,-2.1203,-2.1203,-2.1203,-2.1203,-2.1203,-2.1203,-2.1203,-2.1203,-2.1203,-2.1203,-2.1203,0.0,0.0,0.0,0.0,0.0,0.0,0.0,0.0,0.0,0.0,0.0,0.0,0.0,0.0,0.0,0.0,0.0,0.0,0.0,-2.0773,-2.0601,-2.05,-2.05,-2.05,-2.05,-2.05,-2.0256,-1.9666,-1.9564,-1.9203,-1.8609,-1.8609,-1.8609,-1.8609,-1.8493,-1.8435,-1.8377,-1.8098,-1.7572,0.0,0.0,-1.5924,-1.4798,-1.4798,-1.4441,-1.3913,-1.3913,-1.3308,-1.2499,-1.289,-1.2395,-1.1664,-1.1664,-1.1236,-1.0688,-1.0688,-1.1126,-1.1664,-1.1664,-1.2146,-1.2635,-1.2635,-1.3068,-1.3565,-1.3727,-1.4202,-1.4728,-1.4888,-1.5209,-1.5476,-1.5861,-1.6074,-1.6352,-1.667,-1.7092,-1.7644,-1.8271,-1.8738,-1.907,-1.9145,-1.9951,-2.0369,-2.0127,-2.0847,-2.137,-2.1495,-2.151,-2.1408,-2.1218,-2.1203,-2.1203,-2.1203,-2.1203,-2.1203,-2.1203,-2.1203,-2.1203,-2.1203,-2.1203,-2.1146,-2.096,-2.1146,-2.1146,-2.096,-2.1146,-2.1203,-2.1203,-2.1203,-2.1203,-2.1203,-2.1203,-2.1203,-2.1203,-2.1203,-2.1203,-2.1203,0.0,0.0,0.0,0.0,0.0,0.0,0.0,0.0,0.0,0.0,0.0,0.0,0.0,0.0,0.0,0.0,0.0,0.0,0.0,0.0,-2.0658,-2.0601,-2.0385,-2.027,-2.0213,-2.0213,-1.9679,-1.8564,-1.8564,-1.7852,-1.6598,-1.6598,-1.6539,-1.6374,-1.6079,-1.5972,-1.5902,-1.5688,-1.551,-1.5332,-1.5332,-1.456,-1.3435,0.0,-1.2784,-1.1776,-1.1776,-1.1549,-1.1256,-1.1232,-1.0988,-1.0688,-1.0688,-1.0688,-1.0688,-1.0688,-1.0688,-1.0688,-1.0688,-1.0688,-1.0688,-1.0688,-1.1126,-1.1618,-1.1618,-1.2526,-1.3437,-1.3437,-1.4406,-1.5209,-1.5328,-1.5701,-1.6086,-1.6193,-1.6535,-1.6917,-1.7358,-1.7635,-1.7912,-1.8177,-1.8606,-1.8873,-1.8983,-1.9866,-2.0468,-2.0388,-2.0782,-2.1089,-2.1203,-2.1203,-2.1203,-2.1203,-2.1203,-2.1203,-2.1203,-2.1146,-2.1146,-2.1146,-2.1089,-2.0917,-2.0658,-2.0974,-2.096,-2.0716,-2.1031,-2.1146,-2.1203,-2.1203,-2.1146,-2.1146,-2.1146,-2.1089,-2.1089,-2.1089,-2.1089,-2.1089,0.0,0.0,0.0,0.0,0.0,0.0,0.0,0.0,0.0,0.0,-2.0773,-2.0773,0.0,0.0,0.0,0.0,0.0,0.0,0.0,0.0,0.0,-1.9982,-2.0155,-2.0155,-1.9866,-1.9866,-1.9751,-1.9577,-1.9359,-1.859,-1.7325,-1.7325,-1.6738,-1.5747,-1.5688,-1.5688,-1.5688,-1.5628,-1.4976,-1.4023,-1.4023,-1.3255,-1.213,-1.213,0.0,0.0,-1.1776,-1.1638,-1.1427,-1.1273,-1.0988,-1.0688,-1.0688,-1.0688,-1.0688,-1.0688,-1.0688,-1.0688,-1.0688,-1.0688,-1.0688,-1.0688,-1.1126,-1.1618,-1.1618,-1.1782,-1.1946,-1.1946,-1.1773,-1.1773,-1.2264,-1.2427,-1.2817,-1.3738,-1.409,-1.4822,-1.6342,-1.6729,-1.6934,-1.7196,-1.796,-1.8286,-1.7841,-1.8433,-1.8926,-1.9171,-1.9708,-2.0399,-2.1146,-2.1203,-2.1203,-2.1203,-2.1203,-2.1203,-2.1203,-2.0902,-2.0773,-2.0773,-2.0558,-2.0443,-2.0385,-2.0443,-2.0558,-2.0716,-2.0773,-2.096,-2.1203,-2.1203,-2.1031,-2.0773,-2.0773,-2.0673,-2.0443,-2.0443,-2.0443,-2.05,0.0,0.0,0.0,0.0,0.0,0.0,0.0,-2.0716,-2.0716,-2.0716,-2.0601,-2.0544,-2.0658,-2.0601,-2.0443,0.0,0.0,0.0,0.0,0.0,0.0,-1.9809,-1.9822,-1.9764,-1.9591,-1.9591,-1.9287,-1.8577,0.0,-1.776,-1.6514,-1.6514,-1.5806,-1.4619,-1.4619,-1.4262,-1.3614,-1.3614,-1.3264,-1.2724,-1.2724,-1.2371,-1.1776,-1.1776,0.0,0.0,-1.1776,-1.1654,-1.1468,-1.1281,-1.1053,-1.0818,-1.072,-1.0688,-1.0688,-1.0688,-1.0688,-1.0688,-1.0688,-1.0688,-1.0688,-1.0688,-1.0907,-1.1126,-1.1126,-1.1126,-1.1126,-1.1126,-1.1126,-1.1244,-1.1564,-1.1837,-1.2219,-1.2762,-1.3188,-1.3823,-1.4821,-1.5061,-1.5311,-1.554,-1.5788,-1.5904,-1.5721,-1.6295,-1.6783,-1.7037,-1.7705,-1.8551,-1.9679,-2.0213,-2.063,-2.0902,-2.096,-2.0845,-2.0744,-2.0558,-2.05,-2.05,-2.0385,-2.0213,-2.004,-2.0213,-2.027,-2.027,-2.0443,-2.0558,-2.0744,-2.0744,-2.0615,-2.05,-2.05,-2.0385,-2.027,-2.027,-2.027,-2.0328,0.0,0.0,0.0,0.0,0.0,0.0,0.0,-2.0486,-2.0486,-2.0486,-2.0328,-2.027,-2.0486,-2.0328,-2.0155,0.0,0.0,0.0,0.0,0.0,0.0,0.0,0.0,0.0,-1.943,0.0,0.0,-1.7923,-1.7923,0.0,0.0,0.0,0.0,0.0,-1.4083,-1.3375,-1.2191,-1.2191,-1.207,0.0,0.0,-1.1776,-1.1776,0.0,0.0,0.0,0.0,-1.1687,-1.1524,-1.1297,-1.1135,-1.098,-1.0761,-1.0688,-1.0688,-1.0688,-1.0688,-1.0688,-1.0688,-1.0688,-1.0688,-1.0688,-1.0688,-1.0688,-1.0688,-1.0688,-1.0688,-1.0688,-1.108,-1.14,-1.14,-1.1728,-1.2055,-1.2219,-1.2599,-1.3123,-1.3608,-1.3728,-1.3891,-1.4227,-1.3917,-1.375,-1.391,-1.449,-1.4869,-1.5033,-1.5596,-1.6492,-1.791,-1.868,-1.9448,-2.0199,-2.0199,-2.0256,-2.027,-2.0282,-2.031,-2.031,-1.9959,-1.9883,-1.9897,-1.9883,-1.9883,-2.0014,-2.0292,-2.0408,-2.0466,-2.0466,-2.0466,-2.0408,-2.0408,-2.0308,-2.0194,-2.0194,-2.0153,-2.0097,0.0,0.0,0.0,0.0,0.0,0.0,0.0,-1.9866,-1.9866,-1.9866,-1.9866,-1.9866,-1.9866,-1.9866,-1.9764,0.0,0.0,0.0,0.0,0.0,0.0,0.0,0.0,0.0,0.0,0.0,0.0,-1.9243,-1.9243,0.0,0.0,0.0,0.0,0.0,0.0,-1.4738,-1.3545,-1.3545,0.0,0.0,0.0,0.0,0.0,0.0,0.0,0.0,0.0,-1.1768,-1.1695,-1.1338,-1.1208,-1.1143,-1.0802,-1.0688,-1.0688,-1.0688,-1.0688,-1.0688,-1.0688,-1.0688,-1.0688,-1.0688,-1.0688,-1.0688,-1.0688,-1.0688,-1.0688,-1.0688,-1.0743,-1.0798,-1.0798,-1.0798,-1.1017,-1.1564,-1.1728,-1.2183,-1.3497,-1.3389,-1.3432,-1.4227,-1.3917,-1.3693,-1.3712,-1.3822,-1.3813,-1.3832,-1.3933,-1.4738,-1.6598,-1.6774,-1.7372,-1.8564,-1.8622,-1.9158,-2.027,-2.0316,-2.0292,-2.0292,-1.8978,-1.9044,-2.0147,-1.8922,-1.9226,-2.0629,-2.0629,-2.087,-2.111,-2.111,-2.093,-2.069,-2.069,-2.0346,-1.9878,-1.9878,-1.9703,-1.9546,0.0,0.0,0.0,0.0,0.0,0.0,-1.9809,-1.9809,-1.9809,-1.9809,-1.9809,-1.9809,-1.9809,-1.9649,-1.9533,-1.943,0.0,0.0,0.0,0.0,0.0,0.0,0.0,0.0,0.0,0.0,-1.943,-1.943,-1.943,0.0,0.0,0.0,0.0,0.0,0.0,-1.5618,-1.3725,-1.3725,0.0,0.0,0.0,0.0,0.0,0.0,0.0,0.0,0.0,0.0,-1.1736,-1.1476,-1.1313,-1.1183,-1.094,-1.0785,-1.0688,-1.0688,-1.0688,-1.0688,-1.0688,-1.0688,-1.0688,-1.0688,-1.0688,-1.0688,-1.0688,-1.0688,-1.0688,-1.0688,-1.0688,-1.0688,-1.0688,-1.0688,-1.0798,-1.1017,-1.1345,-1.1809,-1.2385,-1.2458,-1.263,-1.2943,-1.2717,-1.2552,-1.2552,-1.2552,-1.2552,-1.2552,-1.2552,-1.2897,-1.3774,-1.4968,-1.6087,-1.7125,-1.7137,-1.7327,-1.7805,-1.859,-1.858,-1.779,-1.8081,-1.8067,-1.7699,-1.7207,-1.7318,-1.7933,-1.7933,-1.7994,-1.8117,-1.8117,-1.8055,-1.7994,-1.8863,-1.9044,-1.8955,-1.9753,-1.988,-1.9685,0.0,0.0,0.0,0.0,0.0,-1.9707,-1.9707,-1.9707,-1.9707,-1.9707,-1.9707,-1.9707,-1.9707,-1.9533,-1.943,-1.943,-1.943,0.0,0.0,0.0,0.0,0.0,0.0,0.0,0.0,0.0,-1.943,-1.943,-1.943,-1.943,0.0,0.0,-1.8952,-1.8052,0.0,0.0,0.0,0.0,0.0,0.0,0.0,0.0,0.0,0.0,0.0,0.0,0.0,0.0,0.0,0.0,0.0,-1.1191,-1.1021,-1.0842,-1.0688,-1.0688,-1.0729,-1.0761,-1.0704,-1.0729,-1.0761,-1.0704,-1.0688,-1.0688,-1.0688,-1.0688,-1.0688,-1.0688,-1.0688,-1.0688,-1.0688,-1.0688,-1.0688,-1.0688,-1.1072,-1.1409,-1.1573,-1.1686,-1.1854,-1.2078,-1.1854,-1.1719,-1.1768,-1.1776,-1.1776,-1.1776,-1.1776,-1.1849,-1.202,-1.342,-1.463,-1.5624,-1.5695,-1.578,-1.6083,-1.7151,-1.7185,-1.6252,-1.689,-1.6923,-1.6359,-1.5919,-1.5982,-1.6359,-1.6359,-1.6359,-1.6359,-1.6359,-1.6359,-1.6484,-1.7485,-1.775,-1.7804,-1.8742,-1.8947,-1.8709,0.0,0.0,0.0,0.0,0.0,0.0,-1.943,-1.943,-1.943,-1.943,-1.943,-1.943,-1.943,-1.943,-1.943,-1.943,-1.943,0.0,0.0,0.0,0.0,0.0,0.0,0.0,0.0,0.0,-1.943,-1.943,-1.943,-1.943,-1.943,-1.943,-1.9372,-1.9372,0.0,0.0,0.0,0.0,0.0,0.0,0.0,0.0,-1.1776,0.0,0.0,0.0,0.0,0.0,0.0,0.0,0.0,0.0,0.0,-1.0842,-1.0688,-1.0688,-1.0826,-1.0923,-1.0745,-1.0826,-1.0923,-1.0737,-1.0688,-1.0688,-1.0688,-1.0688,-1.0688,-1.0688,-1.0688,-1.0688,-1.0688,-1.0688,-1.0688,-1.0688,-1.0696,-1.0907,-1.1518,-1.124,-1.1264,-1.2003,-1.1737,-1.1573,-1.176,-1.1776,-1.1776,-1.1776,-1.1776,-1.1849,-1.202,-1.2028,-1.2721,-1.4207,-1.4217,-1.4841,-1.6083,-1.638,-1.6487,-1.6498,-1.5445,-1.5684,-1.6969,-1.5554,-1.5674,-1.6969,-1.6969,-1.6969,-1.6969,-1.6969,-1.6969,-1.6969,-1.7033,-1.6829,-1.6487,-1.655,-1.6348,-1.6145,0.0,0.0,0.0,0.0,0.0,0.0,0.0,-1.943,-1.943,-1.943,-1.943,-1.943,-1.943,-1.943,-1.943,-1.943,-1.943,0.0,0.0,0.0,0.0,0.0,0.0,0.0,0.0,-1.943,-1.943,-1.943,-1.943,-1.943,-1.943,-1.943,-1.943,-1.9372,-1.8473,-1.7161,0.0,0.0,0.0,0.0,0.0,-1.1776,-1.1776,0.0,0.0,0.0,0.0,0.0,0.0,0.0,0.0,0.0,0.0,0.0,0.0,-1.1053,-1.1013,-1.1012,-1.0899,-1.0923,-1.0956,-1.0899,-1.0785,-1.0688,-1.0688,-1.0688,-1.0688,-1.0688,-1.0688,-1.0688,-1.0688,-1.0688,-1.0688,-1.0688,-1.0688,-1.0751,-1.0962,-1.0962,-1.1142,-1.1429,-1.1618,-1.1711,-1.1768,-1.1776,-1.1776,-1.1776,-1.1776,-1.1849,-1.202,-1.215,-1.2485,-1.3106,-1.3106,-1.3366,-1.382,-1.4909,-1.4938,-1.3973,-1.4623,-1.4651,-1.4128,-1.3678,-1.3678,-1.4137,-1.4137,-1.4137,-1.4137,-1.4137,-1.4137,-1.4259,-1.5173,-1.5514,-1.552,-1.6476,-1.6647,-1.638,0.0,0.0,0.0,0.0,0.0,0.0,0.0,-1.943,-1.943,-1.943,-1.943,-1.943,-1.943,-1.943,-1.943,-1.943,-1.943,0.0,0.0,0.0,0.0,0.0,0.0,0.0,-1.943,-1.943,-1.943,-1.943,-1.943,-1.943,-1.943,-1.943,-1.943,-1.9359,-1.8052,-1.6809,0.0,0.0,0.0,0.0,-1.1776,-1.1776,-1.1776,0.0,0.0,0.0,0.0,0.0,0.0,0.0,0.0,0.0,0.0,0.0,0.0,0.0,-1.12,-1.1151,-1.1086,-1.1118,-1.1151,-1.1078,-1.0932,-1.0794,-1.0794,-1.0745,-1.0688,-1.0688,-1.0688,-1.0688,-1.0688,-1.0688,-1.0688,-1.0688,-1.0688,-1.0688,-1.0688,-1.0794,-1.0956,-1.1191,-1.1549,-1.1776,-1.1776,-1.1776,-1.1776,-1.1776,-1.1776,-1.1849,-1.202,-1.2207,-1.2385,-1.262,-1.2629,-1.2718,-1.2766,-1.3678,-1.3678,-1.284,-1.3678,-1.3678,-1.2774,-1.2774,-1.2774,-1.2774,-1.2774,-1.2774,0.0,-1.2774,-1.2774,-1.2906,-1.3744,-1.4137,-1.4193,-1.5108,-1.5281,-1.51,0.0,0.0,0.0,0.0,0.0,0.0,0.0,-1.943,-1.943,-1.943,-1.943,-1.943,-1.943,-1.943,-1.943,-1.943,0.0,0.0,0.0,0.0,0.0,0.0,0.0,0.0,-1.943,-1.943,-1.943,-1.943,-1.943,-1.943,-1.943,-1.943,-1.9359,-1.9185,-1.7935,-1.6632,0.0,0.0,0.0,0.0,-1.1776,-1.1776,0.0,0.0,0.0,0.0,0.0,0.0,0.0,0.0,0.0,0.0,0.0,0.0,0.0,0.0,0.0,0.0,0.0,-1.1378,-1.1459,-1.1281,-1.111,-1.0988,-1.0988,-1.0842,0.0,-1.0712,-1.0704,-1.0688,-1.0688,-1.0688,-1.0688,-1.0688,-1.0688,-1.0688,-1.0688,-1.0712,-1.085,-1.1183,-1.1549,-1.1776,-1.1776,-1.1776,-1.1776,-1.1776,-1.1776,-1.1849,-1.2004,-1.2199,-1.2377,-1.254,-1.2735,-1.2774,-1.2774,-1.2774,-1.2774,-1.2774,-1.2774,-1.2774,-1.2774,-1.2774,-1.2774,-1.2774,-1.2774,-1.2774,-1.2774,-1.2774,-1.2774,-1.2774,-1.2774,-1.2774,-1.2774,-1.2774,-1.2774,-1.2774,0.0,0.0,0.0,0.0,0.0,0.0,0.0,0.0,0.0,0.0,-1.943,-1.943,-1.943,-1.943,-1.943,0.0,0.0,0.0,0.0,0.0,0.0,0.0,0.0,0.0,-1.943,-1.943,-1.943,-1.943,-1.943,-1.943,-1.943,-1.943,-1.8894,-1.7877,-1.6632,-1.4798,0.0,0.0,0.0,0.0,-1.1776,-1.1776,0.0,0.0,0.0,0.0,-1.1526,-1.1398,0.0,0.0,0.0,0.0,0.0,0.0,0.0,0.0,-1.1491,-1.1703,-1.1654,0.0,-1.1492,-1.1443,-1.1297,-1.1159,0.0,-1.1029,-1.0907,-1.0907,-1.0794,-1.0688,-1.0688,-1.0688,-1.0688,-1.0688,-1.0688,-1.0688,-1.0688,-1.0923,-1.1126,-1.1208,-1.1549,-1.1776,-1.1776,-1.1776,-1.1776,-1.1776,-1.1776,-1.1792,-1.1833,-1.2134,-1.2328,-1.2369,-1.267,-1.2774,-1.2774,-1.2774,-1.2774,-1.2774,-1.2774,-1.2774,-1.2774,-1.2774,-1.2774,-1.2774,-1.2774,-1.2774,-1.2774,-1.2774,-1.2774,-1.2774,-1.2774,-1.2774,-1.2774,-1.2774,-1.2774,-1.2774,0.0,0.0,0.0,0.0,0.0,0.0,0.0,0.0,0.0,0.0,0.0,0.0,0.0,0.0,0.0,0.0,0.0,0.0,0.0,0.0,0.0,0.0,0.0,-1.943,-1.943,-1.943,-1.943,-1.943,-1.943,-1.943,-1.9372,-1.8823,-1.8169,-1.7396,-1.5569,-1.3614,0.0,0.0,0.0,-1.1776,-1.1776,0.0,0.0,0.0,0.0,0.0,-1.1398,-1.1209,0.0,-1.0846,-1.0725,-1.0604,0.0,0.0,0.0,0.0,-1.1337,-1.1405,-1.1716,-1.1703,-1.163,-1.163,-1.1484,-1.1354,-1.1354,-1.1216,-1.1062,-1.0988,-1.0891,-1.0794,-1.0704,-1.0359,-1.0249,-1.0633,-1.0359,-1.0249,-1.0633,-1.0997,-1.1224,-1.1224,-1.1549,-1.1776,-1.1776,-1.1776,-1.1776,-1.1776,-1.1776,-1.1776,-1.1776,-1.2036,-1.2223,-1.2304,-1.2572,-1.2751,-1.2774,-1.2774,-1.2774,-1.2774,-1.2774,-1.2774,-1.2774,-1.2774,-1.2774,-1.2774,-1.2774,-1.2774,-1.2774,-1.2774,-1.2774,-1.2774,-1.2774,-1.2774,-1.2774,-1.2774,-1.2774,-1.2774,0.0,0.0,0.0,0.0,0.0,0.0,0.0,0.0,0.0,0.0,0.0,0.0,0.0,0.0,0.0,0.0,0.0,0.0,0.0,0.0,0.0,0.0,-1.943,-1.943,-1.943,-1.943,-1.943,-1.943,-1.943,-1.9301,-1.9068,-1.7994,-1.7279,-1.6797,-1.4441,-1.2784,0.0,0.0,-1.1776,-1.1716,-1.1716,0.0,0.0,0.0,0.0,0.0,0.0,0.0,0.0,-1.0671,-1.049,-1.0247,-1.055,0.0,0.0,0.0,0.0,0.0,-1.1466,-1.1655,-1.1655,-1.1716,-1.1595,-1.1481,-1.1481,-1.1336,-1.1224,-1.1078,-1.1061,-1.0923,-1.0595,-1.0044,-0.9801,-1.0414,-0.9974,-0.9856,-1.0578,-1.0997,-1.1224,-1.1224,-1.1549,-1.1776,-1.1776,-1.1776,-1.1776,-1.1776,-1.1776,-1.1776,-1.1776,-1.1939,-1.2117,-1.2304,-1.2475,-1.2653,-1.2766,-1.2774,-1.2774,-1.2774,-1.2774,-1.2774,-1.2774,-1.2774,-1.2774,-1.2774,-1.2774,-1.2774,-1.2774,-1.2774,-1.2774,-1.2774,-1.2774,-1.2774,-1.2774,-1.2774,-1.2774,-1.2774,0.0,0.0,0.0,0.0,0.0,0.0,0.0,0.0,0.0,0.0,0.0,0.0,0.0,0.0,0.0,0.0,0.0,0.0,0.0,0.0,0.0,-1.943,-1.943,-1.943,-1.943,-1.943,-1.943,-1.943,-1.943,-1.8836,-1.7806,-1.7572,-1.6326,-1.4202,-1.2724,-1.1957,-1.1776,-1.1776,-1.1647,-1.1398,-1.1398,0.0,0.0,0.0,0.0,0.0,0.0,0.0,0.0,-1.0065,-0.9943,-0.9883,-0.9943,0.0,0.0,0.0,0.0,0.0,-1.0914,-1.0974,-1.1035,-1.1337,-1.1374,-1.1358,-1.1358,-1.1403,-1.1451,-1.1427,-1.1175,-1.0731,-0.9905,-1.0183,-1.0304,-0.9691,-1.0139,-1.0523,-1.0688,-1.0997,-1.1224,-1.1224,-1.1549,-1.1776,-1.1776,-1.1776,-1.1776,-1.1776,-1.1776,-1.1776,-1.1776,-1.1939,-1.2117,-1.2304,-1.2475,-1.2653,-1.2766,-1.2774,-1.2774,-1.2774,-1.2774,-1.2774,-1.2774,-1.2774,-1.2774,-1.2774,-1.2774,-1.2774,-1.2774,-1.2774,-1.2774,-1.2774,-1.2774,-1.2774,-1.2774,-1.2774,-1.2774,-1.2774,0.0,0.0,0.0,0.0,0.0,0.0,0.0,0.0,0.0,0.0,0.0,0.0,0.0,0.0,0.0,0.0,0.0,0.0,0.0,0.0,-1.943,-1.943,-1.943,-1.943,-1.943,-1.8706,-1.8344,-1.8344,-1.7701,-1.7044,-1.6455,-1.5795,-1.4371,-1.2406,-1.176,-1.1405,-1.1277,-1.1277,-1.1156,-1.1027,0.0,0.0,0.0,0.0,0.0,0.0,0.0,0.0,0.0,0.0,-0.9822,-0.9822,-0.9822,0.0,0.0,0.0,0.0,0.0,-1.0725,-1.0058,-0.9323,-0.962,-0.9802,-0.9862,-0.9559,-0.9513,-0.9746,-1.0562,-1.0544,-1.0263,-0.9688,-0.9483,-0.9071,-0.8103,-0.9085,-0.9974,-0.9974,-1.0714,-1.1224,-1.1224,-1.1549,-1.1776,-1.1776,-1.1776,-1.1776,-1.1776,-1.1776,-1.1776,-1.1776,-1.1849,-1.202,-1.2296,-1.2385,-1.2556,-1.2766,-1.2774,-1.2774,-1.2774,-1.2774,-1.2774,-1.2774,-1.2774,-1.2774,-1.2774,-1.2774,-1.2774,-1.2774,-1.2774,-1.2774,-1.2774,-1.2774,-1.2774,-1.2774,-1.2774,-1.2774,-1.2774,0.0,0.0,0.0,0.0,0.0,0.0,0.0,0.0,0.0,0.0,0.0,0.0,0.0,0.0,0.0,0.0,0.0,0.0,0.0,-1.943,-1.9243,-1.8823,-1.8823,-1.8881,-1.8952,-1.7994,-1.7337,-1.6915,-1.5983,-1.5273,-1.4917,-1.3605,-1.2346,-1.1148,-1.1148,-1.1027,-1.0785,-1.0785,-1.0725,-1.0664,0.0,0.0,0.0,0.0,0.0,0.0,0.0,0.0,0.0,0.0,0.0,0.0,0.0,0.0,0.0,-0.9262,-0.9079,-0.9019,-0.9505,-0.8587,-0.7429,-0.7301,-0.7784,-0.8094,-0.7667,-0.7612,-0.795,-0.9061,-0.9248,-0.9216,-0.9171,-0.8679,-0.8082,-0.7449,-0.8312,-0.9085,-0.9085,-1.0141,-1.087,-1.087,-1.143,-1.1776,-1.1776,-1.1776,-1.1776,-1.1776,-1.1776,-1.1776,-1.1776,-1.1776,-1.1939,-1.2296,-1.2304,-1.2475,-1.2832,-1.2774,-1.2774,-1.2774,-1.2774,-1.2774,-1.2774,-1.2774,-1.2774,-1.2774,-1.2774,-1.2774,-1.2774,-1.2774,-1.2774,-1.2774,-1.2774,-1.2774,-1.2774,-1.2774,-1.2774,-1.2774,0.0,0.0,0.0,0.0,0.0,0.0,0.0,0.0,0.0,0.0,0.0,0.0,0.0,0.0,0.0,0.0,0.0,0.0,0.0,-1.943,-1.8706,-1.7267,-1.7149,-1.7325,-1.763,-1.7572,-1.6738,-1.5262,-1.5203,-1.4371,-1.2877,-1.1623,-1.0967,-1.0846,-1.0846,-1.0853,-1.0785,-1.0785,-1.0611,-1.0368,-1.0368,0.0,0.0,0.0,0.0,0.0,0.0,0.0,0.0,0.0,0.0,0.0,0.0,0.0,-0.7795,-0.6569,-0.6202,-0.6202,-0.6263,-0.6141,-0.5774,-0.4548,-0.5403,-0.6564,-0.6503,-0.6752,-0.6996,-0.7109,-0.6964,-0.707,-0.7708,-0.8113,-0.8477,-0.9113,-0.8582,-0.8085,-0.8085,-0.9171,-0.9997,-0.9997,-1.1066,-1.1776,-1.1776,-1.1776,-1.1776,-1.1776,-1.1776,-1.1776,-1.1776,-1.1776,-1.1939,-1.2296,-1.2304,-1.2475,-1.2832,-1.2774,-1.2774,-1.2774,-1.2774,-1.2774,-1.2774,-1.2774,-1.2774,-1.2774,-1.2774,-1.2774,-1.2774,-1.2774,-1.2774,-1.2774,-1.2774,-1.2774,-1.2774,-1.2774,-1.2774,-1.2774,0.0,0.0,0.0,0.0,0.0,0.0,0.0,0.0,0.0,0.0,0.0,0.0,0.0,0.0,0.0,0.0,0.0,0.0,0.0,-1.6973,-1.6149,-1.5548,-1.5488,-1.5192,-1.454,-1.454,-1.4242,-1.3596,-1.2817,-1.2105,-1.1503,-1.1027,-1.0664,-1.0482,-1.0482,-1.0368,-1.0186,-1.0186,-1.0126,-1.0004,-1.0004,-0.9943,0.0,0.0,0.0,0.0,0.0,0.0,0.0,0.0,-0.8039,-0.7307,-0.6813,-0.663,-0.6569,-0.6018,-0.5896,-0.5896,-0.5896,-0.5284,-0.4548,-0.3999,-0.3756,-0.3756,-0.4186,-0.437,-0.4739,-0.5778,-0.5932,-0.6073,-0.6731,-0.6672,-0.663,-0.6925,-0.7086,-0.721,-0.721,-0.8211,-0.9194,-0.9824,-1.0465,-1.1103,-1.1716,-1.1776,-1.1776,-1.1776,-1.1776,-1.1776,-1.1776,-1.1776,-1.1939,-1.2296,-1.2304,-1.2475,-1.2832,-1.2774,-1.2774,-1.2774,-1.2774,-1.2774,-1.2774,-1.2774,-1.2774,-1.2774,-1.2774,-1.2774,-1.2774,-1.2774,-1.2774,-1.2774,-1.2774,-1.2774,-1.2774,-1.2774,-1.2774,-1.2774,0.0,0.0,0.0,0.0,0.0,0.0,0.0,0.0,0.0,0.0,0.0,0.0,0.0,0.0,0.0,0.0,0.0,0.0,-1.6256,-1.5192,-1.4361,-1.3885,-1.3825,-1.3168,-1.1796,-1.1796,-1.1864,-1.1924,-1.0967,-1.0482,-1.0482,-1.0482,-1.0368,-1.0126,-1.0126,-1.0004,-0.9822,-0.9822,-0.9822,-0.9822,-0.9822,-0.9822,0.0,0.0,0.0,0.0,0.0,0.0,0.0,0.0,-0.663,-0.5835,-0.5406,-0.5284,-0.5161,-0.4797,-0.4674,-0.4674,-0.4674,-0.3999,-0.3325,-0.3325,-0.2652,-0.21,-0.2592,-0.2654,-0.3022,-0.4125,-0.4739,-0.5262,-0.5842,-0.5667,-0.5582,-0.5899,-0.5987,-0.6093,-0.6317,-0.7268,-0.8264,-0.8955,-0.9513,-1.0119,-1.0793,-1.1163,-1.1345,-1.1345,-1.1595,-1.1776,-1.1776,-1.1776,-1.1939,-1.2296,-1.2304,-1.2475,-1.2832,-1.2774,-1.2774,-1.2774,-1.2774,-1.2774,-1.2774,-1.2774,-1.2774,-1.2774,-1.2774,-1.2774,-1.2774,-1.2774,-1.2774,-1.2774,-1.2774,-1.2774,-1.2774,-1.2774,-1.2774,-1.2774,0.0,0.0,0.0,0.0,0.0,0.0,0.0,0.0,0.0,0.0,0.0,0.0,0.0,0.0,0.0,0.0,0.0,0.0,-1.4658,-1.454,-1.3825,-1.2277,-1.2157,-1.1434,-0.9822,-0.9822,-0.9943,-1.0308,-0.9943,-0.9822,-0.9822,-0.9822,-0.9822,-0.9822,-0.9822,-0.9822,-0.9822,-0.9822,-0.9822,-0.9822,-0.9822,-0.9822,-0.9761,0.0,0.0,0.0,0.0,0.0,0.0,0.0,-0.5896,-0.5651,-0.4303,-0.3876,-0.363,-0.2346,-0.1977,-0.1977,-0.1977,-0.1977,-0.1977,-0.1977,-0.1977,-0.1977,-0.1977,-0.1977,-0.1977,-0.1977,-0.3266,-0.4532,-0.5001,-0.5167,-0.5677,-0.6769,-0.5565,-0.4707,-0.5394,-0.6397,-0.7105,-0.7105,-0.8079,-0.8775,-0.8775,-0.9694,-1.024,-1.024,-1.1224,-1.1776,-1.1776,-1.1776,-1.1939,-1.2296,-1.2304,-1.2475,-1.2832,-1.2774,-1.2774,-1.2774,-1.2774,-1.2774,-1.2774,-1.2774,-1.2774,-1.2774,-1.2774,-1.2774,-1.2774,-1.2774,-1.2774,-1.2774,-1.2774,-1.2774,-1.2774,-1.2774,-1.2774,-1.2774,0.0,0.0,0.0,0.0,0.0,0.0,0.0,0.0,0.0,0.0,0.0,0.0,0.0,0.0,0.0,0.0,0.0,0.0,-1.2928,-1.1856,-1.102,-1.0543,-1.0543,-1.0301,-0.9822,-0.9822,-0.9822,-0.9943,-0.9822,-0.9822,-0.9822,-0.9822,-0.9822,-0.9822,-0.9822,-0.9822,-0.9822,-0.9822,-0.9822,-0.9822,-0.9822,-0.9268,-0.8471,0.0,0.0,0.0,0.0,0.0,0.0,0.0,0.0,0.0,-0.2714,-0.259,-0.2467,-0.2099,-0.1977,-0.1977,-0.1977,-0.1977,-0.1977,-0.1977,-0.1977,-0.1977,-0.1977,-0.1977,-0.1977,-0.1977,-0.2777,-0.3448,-0.3615,-0.3941,-0.4384,-0.4724,-0.4307,-0.415,-0.4846,-0.5267,-0.5915,-0.7045,-0.7165,-0.7368,-0.8099,-0.8039,-0.7917,-0.7917,-0.9012,-0.9808,-1.0058,-1.0914,-1.1686,-1.2296,-1.2304,-1.2475,-1.2832,-1.2774,-1.27,-1.2444,-1.2444,-1.2444,-1.2444,-1.2444,-1.2312,-1.2107,-1.2107,-1.2107,-1.2107,-1.2107,-1.2107,-1.2107,-1.2107,-1.2107,-1.2107,-1.2379,-1.2305,-1.2107,0.0,0.0,0.0,0.0,0.0,0.0,0.0,0.0,0.0,0.0,-1.8706,-1.8402,0.0,0.0,0.0,0.0,0.0,0.0,0.0,-1.0361,-0.9822,-0.9822,-0.9822,-0.9822,-0.9822,-0.9822,-0.9822,-0.9822,-0.9822,-0.9822,-0.9822,-0.9822,-0.9822,-0.9822,-0.9822,-0.9822,-0.9761,-0.9268,-0.9025,-0.9019,-0.8471,-0.7795,-0.7123,0.0,0.0,0.0,0.0,0.0,0.0,0.0,0.0,0.0,-0.1977,-0.1977,-0.1977,-0.1977,-0.1977,-0.1977,-0.1977,-0.1977,-0.1977,-0.1977,-0.1977,-0.1977,-0.1977,-0.1977,-0.1977,-0.1977,-0.2346,-0.2654,-0.296,-0.306,-0.3223,-0.3767,-0.354,-0.3564,-0.4275,-0.4372,-0.4757,-0.5714,-0.5608,-0.5659,-0.6267,-0.6329,-0.6329,-0.6329,-0.7362,-0.8155,-0.8343,-0.9134,-1.004,-1.0985,-1.1058,-1.1212,-1.1461,-1.1534,-1.1167,-1.0366,-1.0366,-1.0293,-1.0233,-1.1505,-1.1975,-1.1776,-1.1776,-1.1776,-1.1776,-1.1776,-1.1776,-1.1776,-1.1776,-1.1776,-1.185,-1.2041,-1.1982,-1.1843,0.0,0.0,0.0,0.0,0.0,0.0,0.0,0.0,0.0,0.0,-1.824,-1.7642,0.0,0.0,0.0,0.0,0.0,0.0,0.0,-0.9822,-0.9822,-0.9822,-0.9822,-0.9822,-0.9822,-0.9822,-0.9822,-0.9822,-0.9822,-0.9822,-0.9822,-0.9822,-0.9822,-0.9822,-0.9822,-0.9761,-0.9572,-0.841,-0.7856,-0.7612,-0.6385,-0.5835,-0.5712,-0.5712,0.0,0.0,0.0,0.0,0.0,0.0,0.0,0.0,-0.1977,-0.1977,-0.1977,-0.1977,-0.1977,-0.1977,-0.1977,-0.1977,-0.1977,-0.1977,-0.1977,-0.1977,-0.1977,-0.1977,-0.1977,-0.1977,-0.1977,-0.2162,-0.2777,-0.2407,-0.2407,-0.3515,-0.3169,-0.2959,-0.362,-0.3741,-0.3741,-0.3801,-0.3788,-0.382,-0.382,-0.4616,-0.5107,-0.5107,-0.6023,-0.663,-0.6691,-0.6813,-0.7475,-0.8901,-0.9022,-0.9154,-0.9228,-0.9348,-0.8751,-0.7422,-0.7422,-0.7293,-0.7031,-1.0035,-1.1446,-1.1512,-1.1512,-1.1578,-1.1718,-1.1718,-1.1718,-1.1718,-1.1718,-1.1718,-1.171,-1.1578,-1.1512,-1.1512,0.0,0.0,0.0,0.0,0.0,0.0,0.0,0.0,0.0,0.0,0.0,0.0,0.0,0.0,0.0,0.0,0.0,0.0,0.0,-0.9822,-0.9822,-0.9822,-0.9822,-0.9822,-0.9822,-0.9822,-0.9822,-0.9822,-0.9822,-0.9822,-0.9822,-0.9822,-0.9822,-0.9822,-0.9822,-0.9268,-0.8288,-0.8039,-0.7307,-0.6324,-0.6018,-0.5284,-0.4306,-0.4306,0.0,0.0,0.0,0.0,0.0,0.0,0.0,0.0,-0.1977,-0.1977,-0.1977,-0.1977,-0.1977,-0.1977,-0.1977,-0.1977,-0.1977,-0.1977,-0.1977,-0.1977,-0.1977,-0.1977,-0.1977,-0.1977,-0.1977,-0.2038,-0.2162,-0.21,-0.21,-0.2346,-0.2278,-0.2396,-0.3069,-0.3191,-0.3375,-0.3801,-0.3446,-0.3207,-0.3207,-0.2899,-0.2714,-0.2714,-0.3879,-0.4674,-0.492,-0.5957,-0.6794,-0.7521,-0.7551,-0.7658,-0.7797,-0.7888,-0.7615,-0.7093,-0.7093,-0.6894,-0.6564,-0.7564,-0.8501,-0.9305,-0.9305,-0.9908,-1.0916,-1.0916,-1.0916,-1.0916,-1.0916,-1.0916,-1.085,-0.9975,-0.9504,-0.9172,0.0,0.0,0.0,0.0,0.0,0.0,0.0,0.0,0.0,0.0,0.0,0.0,0.0,0.0,0.0,0.0,0.0,0.0,0.0,0.0,-0.9835,-0.9822,-0.9822,-0.9822,-0.9822,-0.9822,-0.9822,-0.9822,-0.9822,-0.9822,-0.9822,-0.9822,-0.9822,-0.9761,-0.9147,-0.8532,-0.7795,-0.6508,-0.559,-0.4916,-0.4306,-0.3633,-0.302,-0.302,-0.259,0.0,-0.1977,0.0,0.0,0.0,0.0,0.0,0.0,0.0,-0.1977,-0.1977,-0.1977,-0.1977,-0.1977,-0.1977,-0.1977,-0.1977,-0.1977,-0.1977,-0.1977,-0.1977,-0.1977,-0.1977,-0.1977,-0.1977,-0.1977,-0.1977,-0.1977,-0.1977,-0.1977,-0.21,-0.2469,-0.2531,-0.2654,-0.296,-0.2716,-0.2531,-0.2531,-0.2224,-0.1977,-0.1977,-0.259,-0.3081,-0.3266,-0.394,-0.469,-0.5528,-0.5632,-0.5716,-0.5782,-0.5889,-0.5488,-0.4696,-0.4696,-0.4562,-0.4431,-0.603,-0.7031,-0.7569,-0.7569,-0.7969,-0.864,-0.864,-0.864,-0.864,-0.864,-0.864,-0.8573,-0.8035,-0.7702,-0.7436,0.0,0.0,0.0,0.0,0.0,0.0,0.0,0.0,0.0,0.0,0.0,0.0,0.0,0.0,0.0,0.0,0.0,0.0,0.0,0.0,0.0,-0.9903,-0.9876,-0.9863,-0.9863,-0.9836,-0.9822,-0.9822,-0.9822,-0.97,-0.9451,-0.9451,-0.9451,-0.939,-0.8099,-0.7429,-0.7057,-0.4855,-0.3753,-0.351,-0.2406,-0.1977,-0.1977,-0.1977,-0.1977,-0.1977,-0.1977,-0.1977,-0.1977,-0.1977,0.0,0.0,0.0,0.0,-0.1977,-0.1977,-0.1977,-0.1977,-0.1977,-0.1977,-0.1977,-0.1977,-0.1977,-0.1977,-0.1977,-0.1977,-0.1977,-0.1977,-0.1977,-0.1977,-0.1977,-0.1977,-0.1977,-0.1977,-0.1977,-0.1977,-0.1977,-0.1977,-0.1977,-0.1977,-0.1977,-0.1977,-0.1977,-0.1977,-0.1977,-0.1977,-0.1977,-0.1977,-0.1977,-0.1977,-0.2467,-0.351,-0.374,-0.3791,-0.3655,-0.3839,-0.3303,-0.2214,-0.222,-0.2223,-0.2289,-0.4632,-0.5834,-0.6034,-0.6034,-0.6164,-0.6431,-0.6431,-0.6431,-0.6431,-0.6431,-0.6431,-0.6364,-0.6101,-0.6034,-0.6034,0.0,0.0,0.0,0.0,0.0,0.0,0.0,0.0,0.0,0.0,-1.5562,-1.4042,0.0,0.0,0.0,0.0,0.0,0.0,0.0,0.0,0.0,-1.0222,-1.0093,-0.9957,-0.9957,-0.989,-0.9822,-0.9822,-0.9822,-0.9207,-0.816,-0.816,-0.816,-0.8099,-0.6752,-0.5529,-0.4426,-0.4057,-0.3264,-0.2222,-0.2038,-0.1977,-0.1977,-0.1977,-0.1977,-0.1977,-0.1977,-0.1977,-0.1977,-0.1977,-0.1977,0.0,0.0,0.0,-0.1977,-0.1977,-0.1977,-0.1977,-0.1977,-0.1977,-0.1977,-0.1977,-0.1977,-0.1977,-0.1977,-0.1977,-0.1977,-0.1977,-0.1977,-0.1977,-0.1977,-0.1977,-0.1977,-0.1977,-0.1977,-0.1977,-0.1977,-0.1977,-0.1977,-0.1977,-0.1977,-0.1977,-0.1977,-0.1977,-0.1977,-0.1977,-0.1977,-0.1977,-0.1977,-0.1977,-0.21,-0.2222,-0.2289,-0.2306,-0.2276,-0.2375,-0.228,-0.2116,-0.2142,-0.2223,-0.2223,-0.2558,-0.343,-0.4568,-0.4568,-0.5302,-0.6431,-0.6431,-0.6431,-0.6431,-0.6431,-0.6431,-0.6231,-0.5034,-0.4568,-0.4434,0.0,0.0,0.0,0.0,0.0,0.0,0.0,0.0,0.0,0.0,0.0,-1.2968,0.0,0.0,0.0,-1.0283,0.0,0.0,0.0,0.0,0.0,-1.0283,-1.0215,-1.0181,-1.0181,-1.0025,-0.9575,-0.8829,-0.8751,-0.8039,-0.6752,-0.6018,-0.608,-0.6691,-0.5406,-0.4426,-0.3876,-0.3143,-0.2529,-0.1977,-0.1977,-0.1977,-0.1977,-0.1977,-0.1977,-0.1977,-0.1977,-0.1977,-0.1977,-0.1977,-0.1977,-0.1977,-0.1977,0.0,0.0,0.0,-0.1977,-0.1977,-0.1977,-0.1977,-0.1977,-0.1977,-0.1977,-0.1977,-0.1977,-0.1977,-0.1977,-0.1977,-0.1977,-0.1977,-0.1977,-0.1977,-0.1977,-0.1977,-0.1977,-0.1977,-0.1977,-0.1977,-0.1977,-0.1977,-0.1977,-0.1977,-0.1977,-0.1977,-0.1977,-0.1977,-0.1977,-0.1977,-0.1977,-0.1977,-0.1977,-0.1977,-0.1977,-0.199,-0.2018,-0.2049,-0.2087,-0.2135,-0.2216,-0.2223,-0.2223,-0.2223,-0.2558,-0.3094,-0.3094,-0.3495,-0.4029,-0.4029,-0.4029,-0.4029,-0.4029,-0.4029,-0.3962,-0.3362,-0.3109,-0.3063,0.0,0.0,0.0,0.0,0.0,0.0,0.0,0.0,0.0,0.0,0.0,0.0,0.0,0.0,0.0,0.0,-1.0487,0.0,0.0,0.0,0.0,-1.0392,-1.0351,-1.0203,-0.9819,-0.9614,-0.8905,-0.7582,-0.7464,-0.6733,-0.5375,-0.4373,-0.4244,-0.4858,-0.3876,-0.3387,-0.3325,-0.2407,-0.1977,-0.1977,-0.1977,-0.1977,-0.1977,-0.1977,-0.1977,-0.1977,-0.1977,-0.1977,-0.1977,-0.1977,-0.1977,-0.1977,-0.1977,-0.1977,0.0,0.0,0.0,-0.1977,-0.1977,-0.1977,-0.1977,-0.1977,-0.1977,-0.1977,-0.1977,-0.1977,-0.1977,-0.1977,-0.1977,-0.1977,-0.1977,-0.1977,-0.1977,-0.1977,-0.1977,-0.1977,-0.1977,-0.1977,-0.1977,-0.1977,-0.1977,-0.1977,-0.1977,-0.1977,-0.1977,-0.1977,-0.1977,-0.1977,-0.1977,-0.1977,-0.1977,-0.1977,-0.1977,-0.1986,-0.2008,-0.2045,-0.2159,-0.2223,-0.2223,-0.2223,-0.2223,-0.2223,-0.2223,-0.2223,-0.2223,-0.2223,-0.2223,-0.2223,-0.2223,-0.2223,-0.2223,-0.2227,-0.2166,-0.2166,-0.2185,-0.2211,0.0,0.0,0.0,0.0,0.0,0.0,0.0,0.0,0.0,0.0,0.0,0.0,-1.2411,-1.1395,-1.0697,-1.0697,-1.0704,-1.0711,-1.0711,-1.0704,0.0,-1.0697,-1.0561,0.0,-0.8524,-0.8274,-0.7508,-0.6097,-0.6068,-0.5338,-0.4085,-0.3965,-0.3264,-0.2222,-0.2099,-0.2099,-0.21,-0.2038,-0.1977,-0.1977,-0.1977,-0.1977,-0.1977,-0.1977,-0.1977,-0.1977,-0.1977,-0.1977,-0.1977,-0.1977,-0.1977,-0.1977,-0.1977,-0.1977,-0.1977,0.0,0.0,0.0,-0.1977,-0.1977,-0.1977,-0.1977,-0.1977,-0.1977,-0.1977,-0.1977,-0.1977,-0.1977,-0.1977,-0.1977,-0.1977,-0.1977,-0.1977,-0.1977,-0.1977,-0.1977,-0.1977,-0.1977,-0.1977,-0.1977,-0.1977,-0.1977,-0.1977,-0.1977,-0.1977,-0.1977,-0.1977,-0.1977,-0.1977,-0.1977,-0.1977,-0.1977,-0.1977,-0.1977,-0.1978,-0.2035,-0.2159,-0.2223,-0.2223,-0.2223,-0.2223,-0.2223,-0.2223,-0.2223,-0.2223,-0.2223,-0.2223,-0.2223,-0.2223,-0.2223,-0.2223,-0.2172,-0.2198,-0.2198,-0.2217,-0.2173,0.0,0.0,0.0,0.0,0.0,0.0,0.0,0.0,0.0,0.0,0.0,0.0,0.0,-1.0948,-1.0717,-1.0717,-1.0717,-1.0717,-1.0717,-1.0717,0.0,-1.0717,-1.067,-0.9971,-0.858,-0.8399,-0.7034,-0.45,-0.4432,-0.3558,-0.2081,-0.2256,-0.2116,-0.1668,-0.1915,-0.1977,-0.1977,-0.1977,-0.1977,-0.1977,-0.1977,-0.1977,-0.1977,-0.1977,-0.1977,-0.1977,-0.1977,-0.1977,-0.1977,-0.1977,-0.1977,-0.1977,-0.1977,-0.1977,-0.1977,-0.1977,-0.1977,-0.1977,-0.1977,-0.1977,-0.1977,-0.1977,-0.1977,-0.1977,-0.1977,-0.1977,-0.1977,-0.1977,-0.1977,-0.1977,-0.1977,-0.1977,-0.1977,-0.1977,-0.1977,-0.1977,-0.1977,-0.1977,-0.1977,-0.1977,-0.1977,-0.1977,-0.1977,-0.1977,-0.1977,-0.1977,-0.1977,-0.1977,-0.1977,-0.1977,-0.1977,-0.1977,-0.1977,-0.1994,-0.2096,-0.2072,-0.2114,-0.2223,-0.2223,-0.2223,-0.2223,-0.2223,-0.2223,-0.2223,-0.2223,-0.2223,-0.2223,-0.2223,-0.2223,-0.2224,-0.2176,-0.2191,-0.2203,-0.2222,-0.2248,-0.2274,0.0,0.0,0.0,0.0,0.0,0.0,0.0,0.0,0.0,-1.2702,0.0,0.0,0.0,0.0,-1.0717,-1.0717,-1.0717,-1.0717,-1.0717,-1.0717,-1.0717,-1.0717,-1.0246,-0.931,-0.7902,-0.7337,-0.573,-0.2982,-0.286,-0.2186,-0.1025,-0.1205,-0.1381,-0.1492,-0.161,-0.1791,-0.1977,-0.1977,-0.1915,-0.1853,-0.1853,-0.1853,-0.1853,-0.1853,-0.1915,-0.1977,-0.1853,-0.1853,-0.1791,-0.173,-0.173,-0.1853,-0.1853,-0.1915,-0.1977,-0.1977,-0.1977,-0.1977,-0.1977,-0.1977,-0.1977,-0.1977,-0.1977,-0.1977,-0.1977,-0.1977,-0.1977,-0.1977,-0.1977,-0.1977,-0.1977,-0.1977,-0.1977,-0.1977,-0.1977,-0.1977,-0.1977,-0.1977,-0.1977,-0.1977,-0.1977,-0.1977,-0.1977,-0.1977,-0.1977,-0.1977,-0.1977,-0.1977,-0.1977,-0.1977,-0.1977,-0.1977,-0.1986,-0.2015,-0.2128,-0.2094,-0.2124,-0.2223,-0.2223,-0.2223,-0.2223,-0.2223,-0.2223,-0.2223,-0.2223,-0.2223,-0.2223,-0.2223,-0.2228,-0.2172,-0.2192,-0.2213,-0.2233,-0.2253,-0.2279,-0.2305,0.0,0.0,0.0,0.0,0.0,0.0,0.0,0.0,-1.439,-1.2947,0.0,0.0,0.0,0.0,0.0,-1.0717,-1.0717,-1.0717,-1.0717,-1.0651,-1.0651,-1.0651,0.0,0.0,-0.6364,-0.4967,-0.3382,-0.1616,-0.1506,-0.13,-0.0987,-0.1025,-0.1137,-0.1449,-0.1181,-0.1359,-0.1977,-0.1977,-0.1791,-0.1543,-0.1543,-0.1482,-0.1482,-0.1482,-0.1668,-0.1915,-0.1606,-0.1482,-0.142,-0.1111,-0.1235,-0.1482,-0.1482,-0.173,-0.1977,-0.1977,-0.1977,-0.1977,0.0,0.0,0.0,-0.1977,-0.1977,-0.1977,-0.1977,-0.1977,-0.1977,-0.1977,-0.1977,-0.1977,-0.1977,-0.1977,-0.1977,-0.1977,-0.1977,-0.1977,-0.1977,-0.1977,-0.1977,-0.1977,-0.1977,-0.1977,-0.1977,-0.1977,-0.1977,-0.1977,-0.1977,-0.1977,-0.1977,-0.1977,-0.1977,-0.1977,-0.2005,-0.2034,-0.2128,-0.2095,-0.2125,-0.2223,-0.2223,-0.2223,-0.2223,-0.2223,-0.2223,-0.2223,-0.2223,-0.2223,-0.2223,-0.2223,-0.2173,-0.22,-0.2202,-0.2238,-0.229,-0.2292,-0.2309,-0.2333,0.0,0.0,0.0,0.0,0.0,-1.8186,-1.5724,-1.5135,-1.4063,0.0,0.0,0.0,-1.0717,-1.0717,-1.0717,-1.0717,-1.0717,-1.0717,-1.0717,-0.9782,-0.9178,-0.9178,-0.7769,-0.6368,-0.49,-0.4484,-0.3414,-0.1616,-0.1603,-0.126,-0.0659,-0.0915,-0.0902,-0.082,-0.1194,-0.1434,-0.1668,-0.1668,-0.173,-0.1853,-0.1853,-0.173,-0.1482,-0.1482,-0.142,-0.1235,-0.1173,-0.1111,-0.1111,-0.105,-0.1235,-0.1543,-0.1791,-0.1915,-0.1977,-0.1977,-0.1977,-0.1977,-0.1977,0.0,0.0,0.0,0.0,0.0,-0.1977,-0.1977,-0.1977,-0.1977,-0.1977,-0.1977,-0.1977,-0.1977,-0.1977,-0.1977,-0.1977,-0.1977,-0.1977,-0.1977,-0.1977,-0.1977,-0.1977,-0.1977,-0.1977,-0.1977,-0.1977,-0.1977,-0.1977,-0.1977,-0.1977,-0.1977,-0.1977,-0.1977,-0.2024,-0.2056,-0.2128,-0.2116,-0.2213,-0.2223,-0.2223,-0.2223,-0.2223,-0.2223,-0.2223,-0.2223,-0.2223,-0.2223,-0.2224,-0.2178,-0.2192,-0.2204,-0.2248,-0.2277,-0.2293,-0.2313,-0.2326,-0.2333,0.0,0.0,0.0,-1.832,-1.8226,-1.7249,-1.4446,-1.3997,-1.321,0.0,0.0,0.0,-1.0717,-1.0717,-1.0717,-1.0717,-1.0717,-1.0452,-0.9848,-0.9045,-0.8307,-0.7702,-0.6301,-0.5168,-0.43,-0.3677,-0.2809,-0.1616,-0.1606,-0.1199,-0.0532,-0.0859,-0.0914,-0.0707,-0.1149,-0.1389,-0.1495,-0.1371,-0.1429,-0.1606,-0.1606,-0.1358,-0.1111,-0.1111,-0.105,-0.0988,-0.0864,-0.0803,-0.0741,-0.0617,-0.0926,-0.1358,-0.1668,-0.1915,-0.1977,-0.1977,-0.1977,-0.1977,-0.1977,-0.1977,-0.1977,-0.1977,0.0,0.0,-0.1977,-0.1977,-0.1977,-0.1977,-0.1977,-0.1977,-0.1977,-0.1977,-0.1977,-0.1977,-0.1977,-0.1977,-0.1977,-0.1977,-0.1977,-0.1977,-0.1977,-0.1977,-0.1977,-0.1977,-0.1981,-0.1993,-0.1984,-0.1977,-0.1977,-0.1977,-0.1982,-0.1993,-0.2039,-0.2069,-0.2083,-0.2197,-0.2223,-0.2223,-0.2223,-0.2223,-0.2223,-0.2223,-0.2223,-0.2223,-0.2223,-0.223,-0.2176,-0.2206,-0.2219,-0.2223,-0.2273,-0.2298,-0.2311,-0.2327,-0.2333,-0.2333,0.0,0.0,-1.8688,-1.7238,-1.698,-1.6063,-1.321,-1.2816,-1.2289,0.0,-1.0717,-1.0717,-1.0717,-1.0717,-1.0717,-1.0717,-1.0585,-0.9915,-0.8706,-0.8307,-0.7503,-0.6235,-0.4833,-0.4099,-0.4099,-0.2791,-0.1994,-0.1683,-0.1662,-0.1329,-0.0606,-0.0997,-0.1056,-0.0922,-0.104,-0.1218,-0.1391,-0.1139,-0.1006,-0.0931,-0.0991,-0.0804,-0.0494,-0.0495,-0.068,-0.0864,-0.0556,-0.0432,-0.0432,-0.0123,-0.0432,-0.0988,-0.1358,-0.1668,-0.1915,-0.1915,-0.1977,-0.1977,-0.1977,-0.1977,-0.1977,-0.1977,-0.1977,0.0,-0.1977,-0.1977,-0.1977,-0.1977,-0.1977,-0.1977,-0.1977,-0.1977,-0.1977,-0.1977,-0.1977,-0.1977,-0.1977,-0.1977,-0.1977,-0.1977,-0.1977,-0.1977,-0.1977,-0.1977,-0.1988,-0.2016,-0.1996,-0.1979,-0.1977,-0.1977,-0.1989,-0.2018,-0.2048,-0.2079,-0.2109,-0.2139,-0.2223,-0.2223,-0.2223,-0.2223,-0.2223,-0.2223,-0.2223,-0.2223,-0.2225,-0.2174,-0.2203,-0.2237,-0.218,-0.2183,-0.2283,-0.2311,-0.2333,-0.2333,-0.2333,-0.2333,0.0,-1.9072,-1.8688,-1.7238,-1.698,-1.6063,-1.321,-1.2816,-1.2289,-1.085,-1.0717,-1.0717,-1.0717,-1.0717,-1.0717,-1.0717,-0.9649,-0.8906,-0.864,-0.6439,-0.5034,-0.4702,-0.3362,-0.2625,-0.2625,-0.235,-0.2148,-0.2087,-0.2081,-0.1813,-0.1414,-0.1477,-0.1199,-0.0593,-0.092,-0.0911,-0.0707,-0.09,-0.0834,-0.064,-0.0885,-0.0811,-0.0495,-0.0501,-0.0375,-0.0185,-0.0123,-0.0123,-0.0123,-0.0309,-0.0494,-0.0679,-0.0988,-0.1358,-0.1606,-0.1606,-0.1791,-0.1977,-0.1977,-0.1977,-0.1977,-0.1977,-0.1977,0.0,-0.1977,-0.1977,-0.1977,-0.1977,-0.1977,-0.1977,-0.1977,-0.1977,-0.1977,-0.1977,-0.1977,-0.1977,-0.1977,-0.1977,-0.1977,-0.1977,-0.1977,-0.1977,-0.1977,-0.1977,-0.1988,-0.2016,-0.2014,-0.2,-0.1978,-0.1977,-0.1989,-0.2018,-0.2048,-0.2079,-0.2109,-0.2139,-0.2223,-0.2223,-0.2223,-0.2223,-0.2223,-0.2223,-0.2223,-0.2224,-0.218,-0.2195,-0.2204,-0.2259,-0.2282,-0.2285,-0.2313,-0.2328,-0.2333,-0.2333,-0.2333,-0.2333,-1.9072,-1.8547,-1.7636,-1.6203,-1.5359,-1.4184,-1.2099,-1.1769,-1.1505,-1.0784,-1.0717,-1.0717,-1.0717,-1.0717,-1.0717,-1.0717,-0.9443,-0.8307,-0.7569,-0.5503,-0.3964,-0.3295,-0.2356,-0.1885,-0.1885,-0.175,-0.1683,-0.1683,-0.1683,-0.1414,-0.1077,-0.1279,-0.1073,-0.0533,-0.0866,-0.0859,-0.0522,-0.0652,-0.0584,-0.0258,-0.064,-0.0572,-0.0253,-0.0255,-0.0127,0.0,0.0,0.0,0.0,-0.0187,-0.0373,-0.0556,-0.0864,-0.1235,-0.1543,-0.173,-0.1853,-0.1977,-0.1977,-0.1977,-0.1977,-0.1977,-0.1977,0.0,0.0,-0.1977,-0.1977,-0.1977,-0.1977,-0.1977,-0.1977,-0.1977,-0.1977,-0.1977,-0.1977,-0.1977,-0.1977,-0.1977,-0.1977,-0.1977,-0.1977,-0.1977,-0.1977,-0.1977,-0.1982,-0.1996,-0.2024,-0.2022,-0.1979,-0.199,-0.2011,-0.2039,-0.2071,-0.2101,-0.2132,-0.2214,-0.2223,-0.2223,-0.2223,-0.2223,-0.2223,-0.2223,-0.2231,-0.2178,-0.2193,-0.2217,-0.2248,-0.2278,-0.23,-0.2313,-0.2327,-0.2333,-0.2333,-0.2333,-0.2333,-0.2333,-1.8291,-1.7378,-1.6138,-1.4707,-1.3538,-1.2355,-1.0916,-1.0717,-1.0717,-1.0717,-1.0717,-1.0717,-1.0717,-1.0717,-1.0717,-1.0717,-0.9178,-0.7702,-0.6498,-0.4833,-0.3362,-0.2223,-0.1818,-0.1616,-0.1616,-0.1279,-0.1077,-0.1077,-0.1077,-0.0943,-0.0606,-0.0943,-0.0875,-0.0539,-0.0808,-0.0736,-0.0397,-0.0397,-0.0263,0.0,-0.0326,-0.026,0.0,0.0,0.0,0.0,0.0,0.0,0.0,0.0,-0.0189,-0.0436,-0.0745,-0.1055,-0.1488,-0.1731,-0.1915,-0.1977,-0.1977,-0.1977,-0.1977,-0.1977,-0.1977,-0.1977,0.0,0.0,0.0,-0.1977,-0.1977,-0.1977,-0.1977,-0.1977,-0.1973,-0.196,-0.1969,-0.1973,-0.196,-0.1969,-0.1977,-0.1977,-0.1977,-0.1977,-0.1977,-0.1986,-0.1989,-0.1977,-0.2031,-0.2102,-0.1979,-0.2003,-0.2033,-0.2127,-0.2094,-0.2124,-0.2221,-0.2223,-0.2223,-0.2223,-0.2223,-0.2223,-0.2223,-0.2223,-0.2172,-0.22,-0.2206,-0.224,-0.2292,-0.2297,-0.2312,-0.2333,-0.2333,-0.2333,-0.2333,-0.2333,-0.2333,-0.2333,-1.5368,-1.5238,-1.4707,-1.3276,-1.2882,-1.2355,-1.0916,-1.0717,-1.0717,-1.0717,-1.0717,-1.0717,-1.0717,-1.0717,-1.0717,-1.0717,-0.8235,-0.6564,-0.6431,-0.3897,-0.2356,-0.2223,-0.1818,-0.1616,-0.1616,-0.1279,-0.1077,-0.1077,-0.1077,-0.1077,-0.101,-0.1077,-0.0875,-0.0471,-0.0539,-0.0403,-0.0067,-0.0067,-0.0067,0.0,-0.0067,-0.0066,0.0,0.0,0.0,0.0,0.0,0.0,0.0,0.0,0.0,-0.0064,-0.0127,-0.0567,-0.1068,-0.1116,-0.1543,-0.1977,-0.1977,-0.1977,-0.1977,-0.1977,-0.1977,-0.1977,-0.1977,0.0,-0.1977,-0.1977,0.0,-0.1977,-0.1977,0.0,0.0,-0.1904,-0.1941,-0.1958,-0.1903,-0.1943,-0.1977,-0.1977,-0.1977,-0.1977,-0.1977,-0.2023,-0.2033,-0.1981,-0.2031,-0.2102,-0.1979,-0.2003,-0.2033,-0.2127,-0.2094,-0.2124,-0.2221,-0.2223,-0.2223,-0.2223,-0.2223,-0.2223,-0.2223,-0.2223,-0.2172,-0.2202,-0.2229,-0.2259,-0.2293,-0.2318,-0.233,-0.2333,-0.2333,-0.2333,-0.2333,-0.2333,-0.2333,-0.2333,-1.4716,-1.4259,-1.3473,-1.2882,-1.2099,-1.1372,-1.0784,-1.0717,-1.0717,-1.0717,-1.0717,-1.0717,-1.0717,-1.0717,-1.0386,-0.9576,-0.7569,-0.6034,-0.5235,-0.3295,-0.2223,-0.2223,-0.1818,-0.1481,-0.1346,-0.0943,-0.0673,-0.0471,-0.0471,-0.0471,-0.0471,-0.0471,-0.0471,-0.0471,-0.0471,-0.0404,-0.0269,-0.0269,-0.0202,0.0,-0.0202,-0.0267,-0.0265,-0.0067,0.0,0.0,0.0,0.0,0.0,0.0,0.0,-0.0065,-0.0448,-0.064,-0.0831,-0.146,-0.1699,-0.1751,-0.1939,-0.1989,-0.1977,-0.1977,-0.1977,-0.1977,-0.1977,-0.1977,-0.1977,-0.1977,0.0,0.0,0.0,0.0,0.0,0.0,-0.196,-0.1967,-0.1943,-0.196,-0.1977,-0.1977,-0.1977,-0.1977,-0.1977,-0.2014,-0.202,-0.1979,-0.2015,-0.2027,-0.2003,-0.2029,-0.2059,-0.209,-0.212,-0.2142,-0.2223,-0.2223,-0.2223,-0.2223,-0.2223,-0.2223,-0.2223,-0.2173,-0.2198,-0.2228,-0.2259,-0.2289,-0.2316,-0.2328,-0.2333,-0.2333,-0.2333,-0.2333,-0.2333,-0.2333,-0.2333,-0.2333,-1.3538,-1.2947,-1.2231,-1.2231,-1.1372,-1.0717,-1.0717,-1.0717,-1.0717,-1.0717,-1.0717,-1.0717,-1.0717,-1.0717,-1.0114,-0.8706,-0.7236,-0.5834,-0.4367,-0.2961,-0.2223,-0.2223,-0.1818,-0.1414,-0.1077,-0.0673,-0.0337,0.0,0.0,0.0,0.0,-0.0067,-0.0269,-0.0539,-0.0606,-0.0673,-0.0673,-0.0673,-0.0539,-0.0337,-0.0539,-0.0673,-0.0606,-0.0404,-0.0269,-0.0269,-0.0269,-0.0334,-0.0331,-0.0331,-0.0329,-0.0392,-0.0845,-0.0909,-0.0973,-0.1744,-0.1792,-0.1714,-0.1968,-0.2016,-0.2001,-0.2001,-0.1994,-0.1988,-0.1988,-0.1982,-0.1977,-0.1977,-0.1977,0.0,0.0,0.0,-0.1971,0.0,0.0,-0.1971,-0.1954,-0.1966,-0.1977,-0.1977,-0.1977,-0.1977,-0.1977,-0.2003,-0.2007,-0.1978,-0.2003,-0.2019,-0.2019,-0.2048,-0.2078,-0.2108,-0.2139,-0.2223,-0.2223,-0.2223,-0.2223,-0.2223,-0.2223,-0.2227,-0.2168,-0.2189,-0.2221,-0.2259,-0.2281,-0.2307,-0.226,-0.2187,-0.2187,-0.2187,-0.2041,-0.1969,-0.2042,-0.226,-0.226,-0.2188,-1.085,-1.0784,-1.0784,-1.0784,-1.0717,-1.0717,-1.0717,-1.0717,-1.0717,-1.0717,-1.0717,-1.0717,-1.0717,-1.0717,-1.0114,-0.8706,-0.7236,-0.5834,-0.4367,-0.2961,-0.2223,-0.2223,-0.1818,-0.1414,-0.1077,-0.0673,-0.0337,0.0,0.0,0.0,0.0,-0.0337,-0.0471,-0.0539,-0.0875,-0.1077,-0.1077,-0.1077,-0.1077,-0.1077,-0.1077,-0.1077,-0.1077,-0.1077,-0.1077,-0.1077,-0.1077,-0.1076,-0.1076,-0.1076,-0.1076,-0.1073,-0.1058,-0.1317,-0.1577,-0.1619,-0.1805,-0.2063,-0.2063,-0.2126,-0.2126,-0.2126,-0.2039,-0.2018,-0.2018,-0.1996,-0.1977,-0.1977,-0.1977,-0.1977,-0.1977,0.0,0.0,0.0,0.0,0.0,0.0,-0.194,-0.1977,-0.1977,-0.1977,-0.1977,-0.1977,-0.2003,-0.2007,-0.1978,-0.2003,-0.2019,-0.2019,-0.2048,-0.2078,-0.2108,-0.2139,-0.2223,-0.2223,-0.2223,-0.2223,-0.2223,-0.2223,-0.217,-0.2199,-0.22,-0.2233,-0.2289,-0.229,-0.2307,-0.226,-0.1968,-0.1822,-0.175,-0.1386,-0.1241,-0.1314,-0.2041,-0.2114,-0.1826,-1.0717,-1.0717,-1.0717,-1.0717,-1.0717,-1.0717,-1.0717,-1.0717,-1.0717,-1.0717,-1.0717,-1.0717,-1.0717,-1.0717,-0.9715,-0.7369,-0.6698,-0.5432,-0.3094,-0.249,-0.2223,-0.2223,-0.2087,-0.1818,-0.1414,-0.1279,-0.1077,-0.0741,-0.0741,-0.0741,-0.0741,-0.0875,-0.101,-0.1212,-0.1346,-0.1414,-0.1414,-0.1414,-0.1279,-0.1077,-0.1077,-0.1414,-0.175,-0.1279,-0.1077,-0.1077,-0.1077,-0.1077,-0.1077,-0.1077,-0.1077,-0.1144,-0.1339,-0.1337,-0.1335,-0.1861,-0.1911,-0.1832,-0.2029,-0.1884,-0.1677,-0.1677,-0.167,-0.1664,-0.1664,-0.1658,-0.1712,-0.1945,-0.1816,-0.1749,-0.1979,0.0,0.0,0.0,0.0,0.0,0.0,-0.1534,-0.173,-0.1977,-0.1977,-0.1977,-0.1977,-0.1985,-0.1986,-0.1977,-0.2003,-0.2027,-0.2048,-0.2078,-0.2108,-0.2138,-0.2217,-0.2223,-0.2223,-0.2223,-0.2223,-0.2223,-0.2223,-0.217,-0.22,-0.2221,-0.2111,-0.1934,-0.1949,-0.1816,-0.1532,-0.1459,-0.1386,-0.1386,-0.1241,-0.1168,-0.1241,-0.1459,-0.1467,-0.1407,-1.0717,-1.0717,-1.0717,-1.0717,-1.0717,-1.0717,-1.0717,-1.0717,-1.0717,-1.0717,-1.0717,-1.0518,-0.9981,-0.9981,-0.8773,-0.59,-0.5633,-0.4699,-0.2356,-0.2223,-0.2223,-0.2223,-0.2223,-0.2019,-0.1616,-0.1616,-0.1414,-0.1077,-0.1077,-0.1077,-0.1077,-0.1212,-0.1414,-0.1616,-0.175,-0.175,-0.1616,-0.1616,-0.1414,-0.1077,-0.1077,-0.1414,-0.175,-0.1279,-0.1144,-0.1279,-0.1144,-0.1077,-0.1144,-0.1212,-0.1279,-0.1346,-0.1683,-0.1683,-0.1616,-0.2087,-0.2007,-0.186,-0.1926,-0.1715,-0.1506,-0.1375,-0.137,-0.13,-0.13,-0.1294,-0.1414,-0.1592,-0.1462,-0.1395,-0.1634,0.0,0.0,0.0,0.0,0.0,0.0,-0.1173,-0.1423,-0.1618,-0.186,-0.1981,-0.199,-0.1992,-0.1996,-0.2007,-0.2024,-0.2048,-0.2079,-0.2098,-0.2123,-0.2221,-0.2223,-0.2223,-0.2223,-0.2223,-0.2223,-0.2223,-0.2232,-0.2187,-0.2217,-0.2248,-0.2063,-0.173,-0.1816,-0.1605,-0.1168,-0.1022,-0.1022,-0.0949,-0.0803,-0.0805,-0.0809,-0.1102,-0.1113,-0.0981,-1.0717,-1.0717,-1.0717,-1.0717,-1.0717,-1.0717,-1.0717,-1.0717,-1.0717,-1.0717,-1.0651,-1.0114,-0.8773,-0.8507,-0.7369,-0.4568,-0.43,-0.3698,-0.2289,-0.2223,-0.2223,-0.2223,-0.2223,-0.2019,-0.1616,-0.1616,-0.1481,-0.1144,-0.1144,-0.1144,-0.1144,-0.1481,-0.1616,-0.1616,-0.2019,-0.1952,-0.1616,-0.1616,-0.1414,-0.1077,-0.1077,-0.1077,-0.1077,-0.1077,-0.1279,-0.1481,-0.1212,-0.1077,-0.1144,-0.1481,-0.1548,-0.1616,-0.2019,-0.2154,-0.2154,-0.2154,-0.2154,-0.2087,-0.1683,-0.1548,-0.1481,-0.1144,-0.1,-0.0989,-0.0989,-0.0979,-0.0969,-0.0968,-0.0968,-0.0968,-0.0967,-0.1031,0.0,0.0,0.0,0.0,0.0,-0.0991,-0.0995,-0.101,-0.1561,-0.1992,-0.1955,-0.1957,-0.2033,-0.2061,-0.2065,-0.2079,-0.2108,-0.211,-0.2124,-0.2221,-0.2223,-0.2223,-0.2154,-0.2154,-0.2154,-0.2155,-0.2117,-0.2147,-0.2176,-0.2206,-0.2089,-0.175,-0.175,-0.1532,-0.1095,-0.073,-0.0584,-0.0511,-0.0146,0.0,-0.0075,-0.0893,-0.0907,-0.054,-1.0717,-1.0717,-1.0717,-1.0717,-1.0717,-1.0717,-1.0717,-1.0717,-1.0717,-1.0717,-0.9782,-0.8972,-0.864,-0.7636,-0.6235,-0.4434,-0.43,-0.3698,-0.2289,-0.2223,-0.2223,-0.2223,-0.2223,-0.2154,-0.2019,-0.2019,-0.2019,-0.1885,-0.1885,-0.1885,-0.1952,-0.2019,-0.2019,-0.2019,-0.2154,-0.1952,-0.1616,-0.1616,-0.1414,-0.1077,-0.0808,-0.0808,-0.101,-0.0471,-0.0471,-0.0808,-0.101,-0.1077,-0.1144,-0.1212,-0.1212,-0.1279,-0.1346,-0.1414,-0.1414,-0.1414,-0.1414,-0.1346,-0.1279,-0.101,-0.0741,-0.0673,-0.0671,-0.0602,-0.0602,-0.0601,-0.073,-0.0919,-0.0786,-0.0719,-0.0969,-0.1031,-0.0902,0.0,0.0,0.0,0.0,-0.0638,-0.0703,-0.0962,-0.1342,-0.1533,-0.1282,-0.1475,-0.1605,-0.1676,-0.1694,-0.1838,-0.2109,-0.1865,-0.1878,-0.2221,-0.2223,-0.2087,-0.175,-0.175,-0.1616,-0.1414,-0.1365,-0.1385,-0.1403,-0.1423,-0.1226,-0.0875,-0.0875,-0.0657,-0.0292,-0.0219,-0.0146,-0.0146,-0.0074,0.0,0.0,-0.0229,-0.023,-0.0154,-1.0717,-1.0717,-1.0717,-1.0717,-1.0717,-1.0717,-1.0717,-1.0717,-1.0717,-1.0717,-0.9443,-0.8374,-0.7702,-0.6368,-0.49,-0.3497,-0.3362,-0.3026,-0.2223,-0.2223,-0.2223,-0.2223,-0.2223,-0.2087,-0.1952,-0.1952,-0.1952,-0.1952,-0.1952,-0.2019,-0.2223,-0.2223,-0.2223,-0.2223,-0.2223,-0.1952,-0.1548,-0.1279,-0.0943,-0.0606,-0.0404,-0.0404,0.0,-0.0135,-0.0135,-0.0337,-0.0539,-0.0606,-0.0673,-0.0808,-0.0808,-0.0875,-0.1077,-0.1077,-0.1077,-0.1077,-0.1077,-0.1077,-0.0875,-0.0673,-0.0471,-0.0337,-0.0269,-0.0269,-0.0269,-0.0269,-0.0336,-0.0533,-0.0399,-0.0332,-0.0527,-0.0591,-0.0525,0.0,0.0,0.0,-0.0258,-0.0258,-0.0324,-0.0521,-0.0716,-0.0783,-0.0591,-0.1307,-0.1632,-0.138,-0.1655,-0.1863,-0.1863,-0.1876,-0.1952,-0.2223,-0.2223,-0.2019,-0.1616,-0.1616,-0.1418,-0.1087,-0.1102,-0.1117,-0.1133,-0.1148,-0.0942,-0.0584,-0.0584,-0.0365,0.0,0.0,0.0,0.0,0.0,0.0,0.0,0.0,0.0,0.0,-1.0717,-1.0717,-1.0717,-1.0717,-1.0717,-1.0717,-1.0717,-1.0717,-1.0651,-1.0452,-0.9178,-0.7769,-0.6297,-0.49,-0.3564,-0.2289,-0.2223,-0.2223,-0.2223,-0.2223,-0.2223,-0.2223,-0.2223,-0.2019,-0.1683,-0.1616,-0.1616,-0.1683,-0.1616,-0.1818,-0.2223,-0.2223,-0.2154,-0.2154,-0.2154,-0.1885,-0.1414,-0.0741,-0.0269,0.0,0.0,0.0,0.0,0.0,0.0,0.0,0.0,0.0,-0.0067,-0.0337,-0.0404,-0.0471,-0.0875,-0.0943,-0.0943,-0.0943,-0.0943,-0.0875,-0.0539,-0.0404,-0.0337,-0.0067,0.0,0.0,0.0,0.0,0.0,0.0,0.0,0.0,0.0,0.0,0.0,0.0,0.0,0.0,0.0,0.0,0.0,0.0,-0.0066,0.0,0.0,-0.1131,-0.1661,-0.1076,-0.1616,-0.1885,-0.1616,-0.1885,-0.2087,-0.2223,-0.2154,-0.1952,-0.1548,-0.1484,-0.129,-0.0962,-0.0978,-0.0991,-0.0931,-0.1016,-0.0876,-0.0511,-0.0511,-0.0292,0.0,0.0,0.0,0.0,0.0,0.0,0.0,0.0,0.0,0.0,-1.0717,-1.0717,-1.0717,-1.0717,-1.0717,-1.0717,-1.0717,-1.0717,-1.0253,-0.9111,-0.7702,-0.6235,-0.4833,-0.343,-0.249,-0.2223,-0.2223,-0.2223,-0.2223,-0.2223,-0.2223,-0.2223,-0.2223,-0.2154,-0.2087,-0.175,-0.175,-0.2087,-0.175,-0.1818,-0.2223,-0.2223,-0.2019,-0.1683,-0.1683,-0.1346,-0.0673,-0.0269,-0.0067,0.0,0.0,0.0,0.0,0.0,0.0,0.0,0.0,0.0,0.0,-0.0067,-0.0067,-0.0067,-0.0202,-0.0202,-0.0202,-0.0202,-0.0202,-0.0202,-0.0135,-0.0067,-0.0067,0.0,0.0,0.0,0.0,0.0,0.0,0.0,0.0,0.0,0.0,0.0,0.0,0.0,0.0,0.0,0.0,0.0,0.0,0.0,-0.0268,-0.0336,0.0,-0.047,-0.0739,-0.0606,-0.0741,-0.101,-0.1548,-0.1414,-0.1548,-0.2155,-0.1885,-0.1548,-0.1212,-0.0885,-0.0548,-0.0206,-0.0211,-0.0214,-0.0215,-0.0218,-0.0146,-0.0073,-0.0073,-0.0073,0.0,0.0,0.0,0.0,0.0,0.0,0.0,0.0,0.0,0.0,-1.0717,-1.0717,-1.0717,-1.0717,-1.0114,-0.9576,-0.9576,-0.8962,-0.851,-0.8584,-0.6702,-0.5047,-0.4343,-0.3061,-0.2185,-0.22,-0.2188,-0.2178,-0.2178,-0.2231,-0.2223,-0.2223,-0.2223,-0.2019,-0.1616,-0.1616,-0.1481,-0.1346,-0.1346,-0.1414,-0.1616,-0.1616,-0.1548,-0.1346,-0.1346,-0.101,-0.0471,-0.0337,-0.0135,0.0,0.0,0.0,0.0,0.0,0.0,0.0,0.0,0.0,0.0,0.0,0.0,0.0,0.0,0.0,0.0,0.0,0.0,0.0,0.0,0.0,0.0,0.0,0.0,0.0,0.0,0.0,0.0,0.0,0.0,0.0,0.0,0.0,0.0,0.0,0.0,0.0,0.0,0.0,0.0,0.0,-0.0135,-0.0202,0.0,-0.0135,-0.0337,-0.0471,-0.0673,-0.101,-0.1548,-0.1279,-0.1346,-0.1885,-0.1548,-0.1144,-0.0808,-0.0614,-0.0345,0.0,0.0,0.0,0.0,0.0,0.0,0.0,0.0,0.0,0.0,0.0,0.0,0.0,0.0,0.0,0.0,0.0,0.0,0.0,-1.0319,-1.0246,-1.0193,-0.9886,-0.8879,-0.8148,-0.8174,-0.6961,-0.6429,-0.755,-0.5743,-0.4221,-0.3856,-0.2898,-0.2219,-0.2174,-0.2223,-0.221,-0.221,-0.2187,-0.2174,-0.2174,-0.2174,-0.1899,-0.1352,-0.1555,-0.1351,-0.0741,-0.101,-0.1077,-0.1077,-0.1077,-0.1077,-0.0943,-0.0878,-0.0676,-0.0406,-0.0407,-0.0272,0.0,0.0,0.0,0.0,0.0,0.0,0.0,0.0,0.0,0.0,0.0,0.0,0.0,0.0,0.0,0.0,0.0,0.0,0.0,0.0,0.0,0.0,0.0,0.0,0.0,0.0,0.0,0.0,0.0,0.0,0.0,0.0,0.0,0.0,0.0,0.0,0.0,0.0,0.0,0.0,0.0,0.0,0.0,0.0,0.0,-0.0135,-0.0471,-0.0741,-0.101,-0.1346,-0.1144,-0.1144,-0.1481,-0.1144,-0.0809,-0.0473,-0.0411,-0.0278,0.0,0.0,0.0,0.0,0.0,0.0,0.0,0.0,0.0,0.0,0.0,0.0,0.0,0.0,0.0,0.0,0.0,0.0,0.0,-0.9045,-0.8773,-0.8405,-0.7084,-0.6762,-0.6719,-0.6668,-0.5504,-0.4652,-0.4664,-0.4494,-0.3906,-0.252,-0.2311,-0.2173,-0.2175,-0.2173,-0.2171,-0.2171,-0.2169,-0.2167,-0.2167,-0.2167,-0.2154,-0.2128,-0.1852,-0.1636,-0.1481,-0.1212,-0.1077,-0.1077,-0.1077,-0.0875,-0.0539,-0.0205,-0.0069,-0.0069,-0.0069,0.0,0.0,0.0,0.0,0.0,0.0,0.0,0.0,0.0,0.0,0.0,0.0,0.0,0.0,0.0,0.0,0.0,0.0,0.0,0.0,0.0,0.0,0.0,0.0,0.0,0.0,0.0,0.0,0.0,0.0,0.0,0.0,0.0,0.0,0.0,0.0,0.0,0.0,0.0,0.0,0.0,0.0,0.0,0.0,0.0,0.0,-0.0135,-0.0471,-0.0269,-0.0269,-0.0606,-0.0606,-0.0741,-0.1144,-0.0741,-0.0542,-0.048,-0.0209,0.0,0.0,0.0,0.0,0.0,0.0,0.0,0.0,0.0,0.0,0.0,0.0,0.0,0.0,0.0,0.0,0.0,0.0,0.0,0.0,-0.7598,-0.7306,-0.7155,-0.6574,-0.5822,-0.521,-0.5238,-0.4017,-0.3115,-0.31,-0.3089,-0.2883,-0.2341,-0.2273,-0.2279,-0.2224,-0.2282,-0.2273,-0.2273,-0.2255,-0.2175,-0.2175,-0.2175,-0.21,-0.188,-0.1949,-0.1804,-0.138,-0.1173,-0.0966,-0.0828,-0.0552,-0.0345,-0.0207,-0.0069,0.0,0.0,0.0,0.0,0.0,0.0,0.0,0.0,0.0,0.0,0.0,0.0,0.0,0.0,0.0,0.0,0.0,0.0,0.0,0.0,0.0,0.0,0.0,0.0,0.0,0.0,0.0,0.0,0.0,0.0,0.0,0.0,0.0,0.0,0.0,0.0,0.0,0.0,0.0,0.0,0.0,0.0,0.0,0.0,0.0,0.0,0.0,0.0,0.0,-0.0067,-0.0202,-0.0067,-0.0269,-0.0808,-0.0471,-0.0337,-0.0741,-0.0407,-0.0205,-0.0206,-0.007,0.0,0.0,0.0,0.0,0.0,0.0,0.0,0.0,0.0,0.0,0.0,0.0,0.0,0.0,0.0,0.0,0.0,0.0,0.0,0.0,-0.6126,-0.5899,-0.5737,-0.534,-0.4434,-0.3806,-0.3749,-0.2931,-0.2303,-0.2303,-0.2285,-0.2279,-0.2301,-0.2303,-0.2311,-0.2331,-0.2315,-0.2303,-0.2303,-0.2283,-0.22,-0.22,-0.22,-0.2125,-0.1906,-0.2118,-0.1972,-0.1333,-0.1333,-0.1122,-0.0771,-0.0491,-0.0351,-0.0351,-0.0352,-0.0282,-0.0141,-0.0142,-0.0142,0.0,0.0,0.0,0.0,0.0,0.0,0.0,0.0,0.0,0.0,0.0,0.0,0.0,0.0,0.0,0.0,0.0,0.0,0.0,0.0,0.0,0.0,0.0,0.0,0.0,0.0,0.0,0.0,0.0,0.0,0.0,0.0,0.0,0.0,0.0,0.0,0.0,0.0,0.0,0.0,0.0,0.0,0.0,0.0,0.0,0.0,0.0,0.0,-0.0202,-0.0741,-0.0269,-0.0135,-0.0339,-0.0137,0.0,0.0,0.0,0.0,0.0,0.0,0.0,0.0,0.0,0.0,0.0,0.0,0.0,0.0,0.0,0.0,0.0,0.0,0.0,0.0,0.0,0.0,0.0,-0.4684,-0.4404,-0.4005,-0.2569,-0.2362,-0.23,-0.2327,-0.2333,-0.2333,-0.2333,-0.2333,-0.2331,-0.2333,-0.2333,-0.2333,-0.2333,-0.2333,-0.2333,-0.2333,-0.2333,-0.2331,-0.2331,-0.2331,-0.2319,-0.229,-0.229,-0.2133,-0.1684,-0.1684,-0.1544,-0.1192,-0.1192,-0.1192,-0.1193,-0.1209,-0.093,-0.0573,-0.058,-0.0365,0.0,0.0,0.0,0.0,0.0,0.0,0.0,0.0,0.0,0.0,0.0,0.0,0.0,0.0,0.0,0.0,0.0,0.0,0.0,0.0,0.0,0.0,0.0,0.0,0.0,0.0,0.0,0.0,0.0,0.0,0.0,0.0,0.0,0.0,0.0,0.0,0.0,0.0,0.0,0.0,0.0,0.0,0.0,0.0,0.0,0.0,0.0,0.0,0.0,0.0,0.0,0.0,0.0,0.0,0.0,0.0,0.0,0.0,0.0,0.0,0.0,0.0,0.0,0.0,0.0,0.0,0.0,0.0,0.0,0.0,0.0,0.0,0.0,0.0,0.0,0.0,0.0,-0.3268,-0.2932,-0.2811,-0.239,-0.2319,-0.2322,-0.2331,-0.2333,-0.2333,-0.2333,-0.2333,-0.2341,-0.2361,-0.2345,-0.2333,-0.2333,-0.2333,-0.2333,-0.2333,-0.2333,-0.2333,-0.2333,-0.2333,-0.2328,-0.2319,-0.2319,-0.2243,-0.2088,-0.1872,-0.1441,-0.0793,-0.1081,-0.0937,-0.036,-0.0652,-0.0725,-0.058,-0.0291,-0.0292,-0.0365,-0.0146,0.0,0.0,0.0,0.0,0.0,0.0,0.0,0.0,0.0,0.0,0.0,0.0,0.0,0.0,0.0,0.0,0.0,0.0,0.0,0.0,0.0,0.0,0.0,0.0,0.0,0.0,0.0,0.0,0.0,0.0,0.0,0.0,0.0,0.0,0.0,0.0,0.0,0.0,0.0,0.0,0.0,0.0,0.0,0.0,0.0,0.0,0.0,0.0,0.0,0.0,0.0,0.0,0.0,0.0,0.0,0.0,0.0,0.0,0.0,0.0,0.0,0.0,0.0,0.0,0.0,0.0,0.0,0.0,0.0,0.0,0.0,0.0,0.0,0.0,0.0,-0.2451,-0.232,-0.2333,-0.2333,-0.2342,-0.235,-0.235,-0.236,-0.2367,-0.2367,-0.2367,-0.2373,-0.2393,-0.2378,-0.2367,-0.2367,-0.2367,-0.2363,-0.235,-0.235,-0.2345,-0.2333,-0.2333,-0.2333,-0.2333,-0.2333,-0.2333,-0.2333,-0.2114,-0.175,-0.124,-0.1532,-0.1313,-0.0875,-0.1094,-0.1094,-0.0803,-0.0584,-0.0439,-0.0368,-0.0074,0.0,0.0,0.0,0.0,0.0,0.0,0.0,0.0,0.0,0.0,0.0,0.0,0.0,0.0,0.0,0.0,0.0,0.0,0.0,0.0,0.0,0.0,0.0,0.0,0.0,0.0,0.0,0.0,0.0,0.0,0.0,0.0,0.0,0.0,0.0,0.0,0.0,0.0,0.0,0.0,0.0,0.0,0.0,0.0,0.0,0.0,0.0,0.0,0.0,0.0,0.0,0.0,0.0,0.0,0.0,0.0,0.0,0.0,0.0,0.0,0.0,0.0,0.0,0.0,0.0,0.0,0.0,0.0,0.0,0.0,0.0,0.0,0.0,0.0,0.0,-0.2335,-0.2335,-0.2337,-0.2338,-0.2363,-0.2382,-0.2382,-0.2405,-0.2424,-0.2424,-0.2424,-0.2424,-0.2427,-0.2427,-0.2428,-0.2429,-0.2425,-0.2412,-0.2383,-0.2382,-0.2369,-0.2341,-0.2339,-0.2339,-0.2339,-0.2339,-0.2339,-0.2339,-0.2339,-0.2266,-0.2266,-0.2266,-0.2266,-0.2266,-0.2193,-0.1828,-0.1171,-0.1171,-0.0737,-0.0074,0.0,0.0,0.0,0.0,0.0,0.0,0.0,0.0,0.0,0.0,0.0,0.0,0.0,0.0,0.0,0.0,0.0,0.0,0.0,0.0,0.0,0.0,0.0,0.0,0.0,0.0,0.0,0.0,0.0,0.0,0.0,0.0,0.0,0.0,0.0,0.0,0.0,0.0,0.0,0.0,0.0,0.0,0.0,0.0,0.0,0.0,0.0,0.0,0.0,0.0,0.0,0.0,0.0,0.0,0.0,0.0,0.0,0.0,0.0,0.0,0.0,0.0,0.0,0.0,0.0,0.0,0.0,0.0,0.0,0.0,0.0,0.0,0.0,0.0,0.0,0.0,-0.2363,-0.2367,-0.2375,-0.2398,-0.2408,-0.2413,-0.2413,-0.2418,-0.2424,-0.2424,-0.2424,-0.2432,-0.2455,-0.2458,-0.2467,-0.2491,-0.245,-0.242,-0.2413,-0.2413,-0.2409,-0.2402,-0.2402,-0.2402,-0.2402,-0.2402,-0.2402,-0.2402,-0.2402,-0.2252,-0.1951,-0.2252,-0.2102,-0.1501,-0.1501,-0.1351,-0.1126,-0.0526,-0.0376,-0.0453,-0.0151,0.0,0.0,0.0,0.0,0.0,0.0,0.0,0.0,0.0,0.0,0.0,0.0,0.0,0.0,0.0,0.0,0.0,0.0,0.0,0.0,0.0,0.0,0.0,0.0,0.0,0.0,0.0,0.0,0.0,0.0,0.0,0.0,0.0,0.0,0.0,0.0,0.0,0.0,0.0,0.0,0.0,0.0,0.0,0.0,0.0,0.0,0.0,0.0,0.0,0.0,0.0,0.0,0.0,0.0,0.0,0.0,0.0,0.0,0.0,0.0,0.0,0.0,0.0,0.0,0.0,0.0,0.0,0.0,0.0,0.0,0.0,0.0,0.0,0.0,0.0,-0.2395,-0.2399,-0.2403,-0.2421,-0.2435,-0.2444,-0.2444,-0.2457,-0.2465,-0.2465,-0.2311,-0.2163,-0.2255,-0.21,-0.195,-0.1963,-0.2251,-0.2459,-0.2446,-0.2444,-0.2438,-0.2424,-0.2424,-0.2424,-0.2424,-0.2424,-0.2424,-0.2424,-0.2424,-0.2272,-0.2044,-0.2272,-0.212,-0.1514,-0.1666,-0.1439,-0.0909,-0.0681,-0.0456,-0.0305,-0.0076,0.0,0.0,0.0,0.0,0.0,0.0,0.0,0.0,0.0,0.0,0.0,0.0,0.0,0.0,0.0,0.0,0.0,0.0,0.0,0.0,0.0,0.0,0.0,0.0,0.0,0.0,0.0,0.0,0.0,0.0,0.0,0.0,0.0,0.0,0.0,0.0,0.0,0.0,0.0,0.0,0.0,0.0,0.0,0.0,0.0,0.0,0.0,0.0,0.0,0.0,0.0,0.0,0.0,0.0,0.0,0.0,0.0,0.0,0.0,0.0,0.0,0.0,0.0,0.0,0.0,0.0,0.0,0.0,0.0,0.0,0.0,0.0,0.0,0.0,0.0,-0.2429,-0.2431,-0.2432,-0.2436,-0.2458,-0.2476,-0.2398,-0.2419,-0.2357,-0.2357,-0.2043,-0.1807,-0.1807,-0.1493,-0.1336,-0.1336,-0.1964,-0.2347,-0.2322,-0.2321,-0.2311,-0.2209,-0.2209,-0.2209,-0.2209,-0.2209,-0.2285,-0.2361,-0.2361,-0.2361,-0.2438,-0.2361,-0.2132,-0.1827,-0.2056,-0.1523,-0.0609,-0.0914,-0.0613,0.0,0.0,0.0,0.0,0.0,0.0,0.0,0.0,0.0,0.0,0.0,0.0,0.0,0.0,0.0,0.0,0.0,0.0,0.0,0.0,0.0,0.0,0.0,0.0,0.0,0.0,0.0,0.0,0.0,0.0,0.0,0.0,0.0,0.0,0.0,0.0,0.0,0.0,0.0,0.0,0.0,0.0,0.0,0.0,0.0,0.0,0.0,0.0,0.0,0.0,0.0,0.0,0.0,0.0,0.0,0.0,0.0,0.0,0.0,0.0,0.0,0.0,0.0,0.0,0.0,0.0,0.0,0.0,0.0,0.0,0.0,0.0,0.0,0.0,0.0,0.0,0.0,-0.2457,-0.2462,-0.247,-0.2496,-0.2504,-0.235,-0.2037,-0.1962,-0.1886,-0.1493,-0.1414,-0.1414,-0.1414,-0.1336,-0.1336,-0.1336,-0.1414,-0.1491,-0.1489,-0.1488,-0.1487,-0.1484,-0.1484,-0.1484,-0.1484,-0.1484,-0.164,-0.1953,-0.1953,-0.2188,-0.25,-0.211,-0.1953,-0.1875,-0.1172,-0.0781,-0.0547,-0.0312,-0.0078,0.0,0.0,0.0,0.0,0.0,0.0,0.0,0.0,0.0,0.0,0.0,0.0,0.0,0.0,0.0,0.0,0.0,0.0,0.0,0.0,0.0,0.0,0.0,0.0,0.0,0.0,0.0,0.0,0.0,0.0,0.0,0.0,0.0,0.0,0.0,0.0,0.0,0.0,0.0,0.0,0.0,0.0,0.0,0.0,0.0,0.0,0.0,0.0,0.0,0.0,0.0,0.0,0.0,0.0,0.0,0.0,0.0,0.0,0.0,0.0,0.0,0.0,0.0,0.0,0.0,0.0,0.0,0.0,0.0,0.0,0.0,0.0,0.0,0.0,0.0,0.0,0.0,-0.2491,-0.2493,-0.2497,-0.2512,-0.2514,-0.2357,-0.1964,-0.1886,-0.1728,-0.1336,-0.1099,-0.0942,-0.0942,-0.0707,-0.0628,-0.0628,-0.0628,-0.0628,-0.0628,-0.1021,-0.1336,-0.1336,-0.1336,-0.1336,-0.1336,-0.1336,-0.1414,-0.1571,-0.1571,-0.165,-0.1886,-0.165,-0.1414,-0.1178,-0.1021,-0.0707,-0.0314,-0.0314,-0.0236,0.0,0.0,0.0,0.0,0.0,0.0,0.0,0.0,0.0,0.0,0.0,0.0,0.0,0.0,0.0,0.0,0.0,0.0,0.0,0.0,0.0,0.0,0.0,0.0,0.0,0.0,0.0,0.0,0.0,0.0,0.0,0.0,0.0,0.0,0.0,0.0,0.0,0.0,0.0,0.0,0.0,0.0,0.0,0.0,0.0,0.0,0.0,0.0,0.0,0.0,0.0,0.0,0.0,0.0,0.0,0.0,0.0,0.0,0.0,0.0,0.0,0.0,0.0,0.0,0.0,0.0,0.0,0.0,0.0,0.0,0.0,0.0,0.0,0.0,0.0,0.0,0.0,-0.2514,-0.2435,-0.2357,-0.2357,-0.2278,-0.2043,-0.165,-0.1571,-0.1414,-0.1021,-0.0707,-0.0471,-0.0471,-0.0157,0.0,0.0,0.0,0.0,0.0,-0.0628,-0.1021,-0.1021,-0.1021,-0.1021,-0.1021,-0.1021,-0.1021,-0.1099,-0.1099,-0.1178,-0.1335,-0.1178,-0.0942,-0.0628,-0.0864,-0.0628,0.0,-0.0314,-0.0314,0.0,0.0,0.0,0.0,0.0,0.0,0.0,0.0,0.0,0.0,0.0,0.0,0.0,0.0,0.0,0.0,0.0,0.0,0.0,0.0,0.0,0.0,0.0,0.0,0.0,0.0,0.0,0.0,0.0,0.0,0.0,0.0,0.0,0.0,0.0,0.0,0.0,0.0,0.0,0.0,0.0,0.0,0.0,0.0,0.0,0.0,0.0,0.0,0.0,0.0,0.0,0.0,0.0,0.0,0.0,0.0,0.0,0.0,0.0,0.0,0.0,0.0,0.0,0.0,0.0,0.0,0.0,0.0,0.0,0.0,0.0,0.0,0.0,0.0,0.0,0.0,0.0084,-0.2514,-0.22,-0.1964,-0.1964,-0.165,-0.1256,-0.0785,-0.0707,-0.055,-0.0157,-0.0079,-0.0079,-0.0079,0.0,0.0,0.0,0.0,0.0,0.0,-0.0079,-0.0079,-0.0079,-0.0079,-0.0079,-0.0079,-0.0079,-0.0314,-0.0628,-0.0628,-0.0864,-0.1256,-0.0864,-0.0628,-0.055,-0.0236,-0.0079,0.0,0.0,0.0,0.0,0.0,0.0,0.0,0.0,0.0,0.0,0.0,0.0,0.0,0.0,0.0,0.0,0.0,0.0,0.0,0.0,0.0,0.0,0.0,0.0,0.0,0.0,0.0,0.0,0.0,0.0,0.0,0.0,0.0,0.0,0.0,0.0,0.0,0.0,0.0,0.0,0.0,0.0,0.0,0.0,0.0,0.0,0.0,0.0,0.0,0.0,0.0,0.0,0.0,0.0,0.0,0.0,0.0,0.0,0.0,0.0,0.0,0.0,0.0,0.0,0.0,0.0,0.0,0.0,0.0,0.0,0.0,0.0,0.0,0.0,0.0,0.0,0.0,0.0,0.0,0.0253,-0.22,-0.2043,-0.1807,-0.1571,-0.1414,-0.1178,-0.0707,-0.0628,-0.0471,-0.0079,0.0,0.0,0.0,0.0,0.0,0.0,0.0,0.0,0.0,0.0,0.0,0.0,0.0,0.0,0.0,0.0,-0.0079,-0.0236,-0.0236,-0.0314,-0.0471,-0.0314,-0.0236,-0.0236,-0.0079,0.0,0.0,0.0,0.0,0.0,0.0,0.0,0.0,0.0,0.0,0.0,0.0,0.0,0.0,0.0,0.0,0.0,0.0,0.0,0.0,0.0,0.0,0.0,0.0,0.0,0.0,0.0,0.0,0.0,0.0,0.0,0.0,0.0,0.0,0.0,0.0,0.0,0.0,0.0,0.0,0.0,0.0,0.0,0.0,0.0,0.0,0.0,0.0,0.0,0.0,0.0,0.0,0.0,0.0,0.0,0.0,0.0,0.0,0.0,0.0,0.0,0.0,0.0,0.0,0.0,0.0,0.0,0.0,0.0,0.0,0.0,0.0,0.0,0.0,0.0,0.0,0.0,0.0,0.0,0.0673,0.1766,-0.1964,-0.165,-0.1414,-0.1099,-0.0942,-0.0785,-0.0471,-0.0393,-0.0314,0.0,0.0,0.0,0.0,0.0,0.0,0.0,0.0,0.0,0.0,0.0,0.0,0.0,0.0,0.0,0.0,0.0,0.0,0.0,0.0,0.0,0.0,0.0,0.0,0.0,0.0,0.0,0.0,0.0,0.0,0.0,0.0,0.0,0.0,0.0,0.0,0.0,0.0,0.0,0.0,0.0,0.0,0.0,0.0,0.0,0.0,0.0,0.0,0.0,0.0,0.0,0.0,0.0,0.0,0.0,0.0,0.0,0.0,0.0,0.0,0.0,0.0,0.0,0.0,0.0,0.0,0.0,0.0,0.0,0.0,0.0,0.0,0.0,0.0,0.0,0.0,0.0,0.0,0.0,0.0,0.0,0.0,0.0,0.0,0.0,0.0,0.0,0.0,0.0,0.0,0.0,0.0,0.0,0.0,0.0,0.0,0.0,0.0,0.0,0.0,0.0,0.0,0.0,0.0,0.0,0.1178,0.2772,-0.1886,-0.1178,-0.0628,-0.0628,-0.0236,0.0,0.0,0.0,0.0,0.0,0.0,0.0,0.0,0.0,0.0,0.0,0.0,0.0,0.0,0.0,0.0,0.0,0.0,0.0,0.0,0.0,0.0,0.0,0.0,0.0,0.0,0.0,0.0,0.0,0.0,0.0,0.0,0.0,0.0,0.0,0.0,0.0,0.0,0.0,0.0,0.0,0.0,0.0,0.0,0.0,0.0,0.0,0.0,0.0,0.0,0.0,0.0,0.0,0.0,0.0,0.0,0.0,0.0,0.0,0.0,0.0,0.0,0.0,0.0,0.0,0.0,0.0,0.0,0.0,0.0,0.0,0.0,0.0,0.0,0.0,0.0,0.0,0.0,0.0,0.0,0.0,0.0,0.0,0.0,0.0,0.0,0.0,0.0,0.0,0.0,0.0,0.0,0.0,0.0,0.0,0.0,0.0,0.0,0.0,0.0,0.0,0.0,0.0,0.0,0.0,0.0,0.0,0.0,0.0,0.1178,0.294,-0.1099,-0.0785,-0.055,-0.0236,-0.0079,0.0,0.0,0.0,0.0,0.0,0.0,0.0,0.0,0.0,0.0,0.0,0.0,0.0,0.0,0.0,0.0,0.0,0.0,0.0,0.0,0.0,0.0,0.0,0.0,0.0,0.0,0.0,0.0,0.0,0.0,0.0,0.0,0.0,0.0,0.0,0.0,0.0,0.0,0.0,0.0,0.0,0.0,0.0,0.0,0.0,0.0,0.0,0.0,0.0,0.0,0.0,0.0,0.0,0.0,0.0,0.0,0.0,0.0,0.0,0.0,0.0,0.0,0.0,0.0,0.0,0.0,0.0,0.0,0.0,0.0,0.0,0.0,0.0,0.0,0.0,0.0,0.0,0.0,0.0,0.0,0.0,0.0,0.0,0.0,0.0,0.0,0.0,0.0,0.0,0.0,0.0,0.0,0.0,0.0,0.0,0.0,0.0,0.0,0.0,0.0,0.0,0.0,0.0,0.0,0.0,0.0,0.0,0.0168,0.143,0.3024,0.4868,-0.0707,-0.0471,-0.0314,-0.0079,0.0,0.0,0.0,0.0,0.0,0.0,0.0,0.0,0.0,0.0,0.0,0.0,0.0,0.0,0.0,0.0,0.0,0.0,0.0,0.0,0.0,0.0,0.0,0.0,0.0,0.0,0.0,0.0,0.0,0.0,0.0,0.0,0.0,0.0,0.0,0.0,0.0,0.0,0.0,0.0,0.0,0.0,0.0,0.0,0.0,0.0,0.0,0.0,0.0,0.0,0.0,0.0,0.0,0.0,0.0,0.0,0.0,0.0,0.0,0.0,0.0,0.0,0.0,0.0,0.0,0.0,0.0,0.0,0.0,0.0,0.0,0.0,0.0,0.0,0.0,0.0,0.0,0.0,0.0,0.0,0.0,0.0,0.0,0.0,0.0,0.0,0.0,0.0,0.0,0.0,0.0,0.0,0.0,0.0,0.0,0.0,0.0,0.0,0.0,0.0,0.0,0.0,0.0,0.0,0.0421,0.1093,0.1093,0.1514,0.227,0.336,0.4952,0.6627,-0.055,-0.0236,0.0,0.0,0.0,0.0,0.0,0.0,0.0,0.0,0.0,0.0,0.0,0.0,0.0,0.0,0.0,0.0,0.0,0.0,0.0,0.0,0.0,0.0,0.0,0.0,0.0,0.0,0.0,0.0,0.0,0.0,0.0,0.0,0.0,0.0,0.0,0.0,0.0,0.0,0.0,0.0,0.0,0.0,0.0,0.0,0.0,0.0,0.0,0.0,0.0,0.0,0.0,0.0,0.0,0.0,0.0,0.0,0.0,0.0,0.0,0.0,0.0,0.0,0.0,0.0,0.0,0.0,0.0,0.0,0.0,0.0,0.0,0.0,0.0,0.0,0.0,0.0,0.0,0.0,0.0,0.0,0.0,0.0,0.0,0.0,0.0,0.0,0.0,0.0,0.0,0.0,0.0,0.0,0.0,0.0,0.0,0.0,0.0,0.0,0.0,0.0,0.0082,0.0248,0.0249,0.0334,0.0505,0.0505,0.143,0.294,0.294,0.3946,0.5454,0.5622,0.671,0.8136,-0.0157,-0.0079,0.0,0.0,0.0,0.0,0.0,0.0,0.0,0.0,0.0,0.0,0.0,0.0,0.0,0.0,0.0,0.0,0.0,0.0,0.0,0.0,0.0,0.0,0.0,0.0,0.0,0.0,0.0,0.0,0.0,0.0,0.0,0.0,0.0,0.0,0.0,0.0,0.0,0.0,0.0,0.0,0.0,0.0,0.0,0.0,0.0,0.0,0.0,0.0,0.0,0.0,0.0,0.0,0.0,0.0,0.0,0.0,0.0,0.0,0.0,0.0,0.0,0.0,0.0,0.0,0.0,0.0,0.0,0.0,0.0,0.0,0.0,0.0,0.0,0.0,0.0,0.0,0.0,0.0,0.0,0.0,0.0,0.0,0.0,0.0,0.0,0.0,0.0,0.0,0.0,0.0,0.0,0.0,0.0,0.0,0.0,0.0,0.0,0.0,0.0,0.0,0.0743,0.215,0.2086,0.2934,0.4197,0.4197,0.4449,0.4784,0.4784,0.5036,0.5538,0.6961,0.7801,0.8303,-0.0079,0.0,0.0,0.0,0.0,0.0,0.0,0.0,0.0,0.0,0.0,0.0,0.0,0.0,0.0,0.0,0.0,0.0,0.0,0.0,0.0,0.0,0.0,0.0,0.0,0.0,0.0,0.0,0.0,0.0,0.0,0.0,0.0,0.0,0.0,0.0,0.0,0.0,0.0,0.0,0.0,0.0,0.0,0.0,0.0,0.0,0.0,0.0,0.0,0.0,0.0,0.0,0.0,0.0,0.0,0.0,0.0,0.0,0.0,0.0,0.0,0.0,0.0,0.0,0.0,0.0,0.0,0.0,0.0,0.0,0.0,0.0,0.0,0.0,0.0,0.0,0.0,0.0,0.0,0.0,0.0,0.0,0.0,0.0,0.0,0.0,0.0,0.0,0.0,0.0,0.0,0.0,0.0,0.0,0.0,0.0,0.0,0.0,0.0,0.0,0.0,0.0,0.1001,0.2667,0.2682,0.3694,0.5371,0.5371,0.5873,0.671,0.671,0.7212,0.8052,0.8975,0.9309,0.9476,0.0,0.0,0.0,0.0,0.0,0.0,0.0,0.0,0.0,0.0,0.0,0.0,0.0,0.0,0.0,0.0,0.0,0.0,0.0,0.0,0.0,0.0,0.0,0.0,0.0,0.0,0.0,0.0,0.0,0.0,0.0,0.0,0.0,0.0,0.0,0.0,0.0,0.0,0.0,0.0,0.0,0.0,0.0,0.0,0.0,0.0,0.0,0.0,0.0,0.0,0.0,0.0,0.0,0.0,0.0,0.0,0.0,0.0,0.0,0.0,0.0,0.0,0.0,0.0,0.0,0.0,0.0,0.0,0.0,0.0,0.0,0.0,0.0,0.0,0.0,0.0,0.0,0.0,0.0,0.0,0.0,0.0,0.0,0.0,0.0,0.0,0.0,0.0,0.0,0.0,0.0,0.0,0.0,0.0,0.0,0.0,0.0164,0.0496,0.0498,0.0498,0.0498,0.0503,0.1598,0.3612,0.3612,0.4616,0.6292,0.6292,0.7212,0.8553,0.8553,0.9392,1.0737,1.0737,1.0737,1.0737,0.0,0.0,0.0,0.0,0.0,0.0,0.0,0.0,0.0,0.0,0.0,0.0,0.0,0.0,0.0,0.0,0.0,0.0,0.0,0.0,0.0,0.0,0.0,0.0,0.0,0.0,0.0,0.0,0.0,0.0,0.0,0.0,0.0,0.0,0.0,0.0,0.0,0.0,0.0,0.0,0.0,0.0,0.0,0.0,0.0,0.0,0.0,0.0,0.0,0.0,0.0,0.0,0.0,0.0,0.0,0.0,0.0,0.0,0.0,0.0,0.0,0.0,0.0,0.0,0.0,0.0,0.0,0.0,0.0,0.0,0.0,0.0,0.0,0.0,0.0,0.0,0.0,0.0,0.0,0.0,0.0,0.0,0.0,0.0,0.0,0.0,0.0,0.0,0.0,0.0,0.0,0.0,0.0,0.0,0.0,0.0,0.0826,0.2314,0.2337,0.2348,0.2349,0.2351,0.4197,0.7379,0.7379,0.8386,0.9981,0.9981,1.0148,1.0315,1.0315,1.0487,1.0737,1.0737,1.0737,1.0737,0.0,0.0,0.0,0.0,0.0,0.0,0.0,0.0,0.0,0.0,0.0,0.0,0.0,0.0,0.0,0.0,0.0,0.0,0.0,0.0,0.0,0.0,0.0,0.0,0.0,0.0,0.0,0.0,0.0,0.0,0.0,0.0,0.0,0.0,0.0,0.0,0.0,0.0,0.0,0.0,0.0,0.0,0.0,0.0,0.0,0.0,0.0,0.0,0.0,0.0,0.0,0.0,0.0,0.0,0.0,0.0,0.0,0.0,0.0,0.0,0.0,0.0,0.0,0.0,0.0,0.0,0.0,0.0,0.0,0.0,0.0,0.0,0.0,0.0,0.0,0.0,0.0,0.0,0.0,0.0,0.0,0.0,0.0,0.0,0.0,0.0,0.0,0.0,0.0,0.0,0.0,0.0,0.0,0.0,0.0,0.0,0.0919,0.2669,0.2683,0.3192,0.4197,0.4197,0.5622,0.8136,0.8136,0.9059,1.0737,1.0737,1.0737,1.0737,1.0737,1.0737,1.0737,1.0737,1.0737,1.0737]},{"header":{"parameterUnit":"m.s-1","parameterCategory":1,"la1":30.6,"la2":28.766,"lo1":-90.7593,"lo2":-88.6598,"dy":0.0162,"dx":0.0183,"nx":116,"ny":114,"refTime":"2023-10-22T12:00:00:Z","depth":0,"parameterNumber":3,"parameterNumberName":"V-component_of_WINDS"},"data":[0.0,0.0,0.0,0.0,0.0,0.0,0.0,0.0,0.0,0.0,0.0,0.0,0.0,0.0,0.0,0.0,0.0,0.0,0.0,0.0,0.0,0.0,0.0,0.0,0.0,0.0,0.0,0.0,0.0,0.0,0.0,0.0,0.0,0.0,0.0,0.0,0.0,0.0,0.0,0.0,0.0,0.0,0.0,0.0,0.0,0.0,0.0,0.0,0.0,0.0,0.0,0.0,0.0,0.0,0.0,0.0,0.0,0.0,0.0,0.0,0.0,0.0,0.0,0.0,0.0,0.0,0.0,0.0,0.0,0.0,0.0,0.0,0.0,0.0,0.0,0.0,0.0,0.0,0.0,0.0,0.0,0.0,0.0,0.0,0.0,0.0,0.0,0.0,0.0,0.0,0.0,0.0,0.0,0.0,0.0,0.0,0.0,0.0,0.0,0.0,0.0,0.0,0.0,0.0,0.0,0.0,0.0,0.0,0.0,0.0,0.0,0.0,0.0,0.0,0.0,0.0,0.0,0.0,0.0,0.0,0.0,0.0,0.0,0.0,0.0,0.0,0.0,0.0,0.0,0.0,0.0,0.0,0.0,0.0,0.0,0.0,0.0,0.0,0.0,0.0,0.0,0.0,0.0,0.0,0.0,0.0,0.0,0.0,0.0,0.0,0.0,0.0,0.0,0.0,0.0,0.0,0.0,0.0,0.0,0.0,0.0,0.0,0.0,0.0,0.0,0.0,0.0,0.0,0.0,0.0,0.0,0.0,0.0,0.0,0.0,0.0,0.0,0.0,0.0,0.0,0.0,0.0,0.0,0.0,0.0,0.0,0.0,0.0,0.0,0.0,0.0,0.0,0.0,0.0,0.0,0.0,0.0,0.0,0.0,0.0,0.0,0.0,0.0,0.0,0.0,0.0,0.0,0.0,0.0,0.0,0.0,0.0,0.0,0.0,0.0,0.0,0.0,0.0,0.0,0.0,0.0,0.0,0.0,0.0,0.0,0.0,0.0,0.0,0.0,0.0,0.0,0.0,0.0,0.0,0.0,0.0,0.0,0.0,0.0,0.0,0.0,0.0,0.0,0.0,0.0,0.0,0.0,0.0,0.0,0.0,0.0,0.0,0.0,0.0,0.0,0.0,0.0,0.0,0.0,0.0,0.0,0.0,0.0,0.0,0.0,0.0,0.0,0.0,0.0,0.0,0.0,0.0,0.0,0.0,0.0,0.0,0.0,0.0,0.0,0.0,0.0,0.0,0.0,0.0,0.0,0.0,0.0,0.0,0.0,0.0,0.0,0.0,0.0,0.0,0.0,0.0,0.0,0.0,0.0,0.0,0.0,0.0,0.0,0.0,0.0,0.0,0.0,0.0,0.0,0.0,0.0,0.0,0.0,0.0,0.0,0.0,0.0,0.0,0.0,0.0,0.0,0.0,0.0,0.0,0.0,0.0,0.0,0.0,0.0,0.0,0.0,0.0,0.0,0.0,0.0,0.0,0.0,0.0,0.0,0.0,0.0,0.0,0.0,0.0,0.0,0.0,0.0,0.0,0.0,0.0,0.0,0.0,0.0,0.0,0.0,0.0,0.0,0.0,0.0,0.0,0.0,0.0,0.0,0.0,0.0,0.0,0.0,0.0,0.0,0.0,0.0,0.0,0.0,0.0,0.0,0.0,0.0,0.0,0.0,0.0,0.0,0.0,0.0,0.0,0.0,0.0,0.0,0.0,0.0,0.0,0.0,0.0,0.0,0.0,0.0,0.0,0.0,0.0,0.0,0.0,0.0,0.0,0.0,0.0,0.0,0.0,0.0,0.0,0.0,0.0,0.0,0.0,0.0,0.0,0.0,0.0,0.0,0.0,0.0,0.0,0.0,0.0,0.0,0.0,0.0,0.0,0.0,0.0,0.0,0.0,0.0,0.0,0.0,0.0,0.0,0.0,0.0,0.0,0.0,0.0,0.0,0.0,0.0,0.0,0.0,0.0,0.0,0.0,0.0,0.0,0.0,0.0,0.0,0.0,0.0,0.0,0.0,0.0,0.0,0.0,0.0,0.0,0.0,0.0,0.0,0.0,0.0,0.0,0.0,0.0,0.0,0.0,0.0,0.0,0.0,0.0,0.0,0.0,0.0,0.0,0.0,0.0,0.0,0.0,0.0,0.0,0.0,0.0,0.0,0.0,0.0,0.0,0.0,0.0,0.0,0.0,0.0,0.0,0.0,0.0,0.0,0.0,0.0,0.0,0.0,0.0,0.0,0.0,0.0,0.0,0.0,0.0,0.0,0.0,0.0,0.0,0.0,0.0,0.0,0.0,0.0,0.0,0.0,0.0,0.0,0.0,0.0,0.0,0.0,0.0,0.0,0.0,0.0,0.0,0.0,0.0,0.0,0.0,0.0,0.0,0.0,0.0,0.0,0.0,0.0,0.0,0.0,0.0,0.0,0.0,0.0,0.0,0.0,0.0,0.0,0.0,0.0,0.0,0.0,0.0,0.0,0.0,0.0,0.0,0.0,0.0,0.0,0.0,0.0,0.0,0.0,0.0,0.0,0.0,0.0,0.0,0.0,0.0,0.0,0.0,0.0,0.0,0.0,0.0,0.0,0.0,0.0,0.0,0.0,0.0,0.0,0.0,0.0,0.0,0.0,0.0,0.0,0.0,0.0,0.0,0.0,0.0,0.0,0.0,0.0,0.0,0.0,0.0,0.0,0.0,0.0,0.0,0.0,0.0,0.0,0.0,0.0,0.0,0.0,0.0,0.0,0.0,0.0,0.0,0.0,0.0,0.0,0.0,0.0,0.0,0.0,0.0,0.0,0.0,0.0,0.0,0.0,0.0,0.0,0.0,0.0,0.0,0.0,0.0,0.0,0.0,0.0,0.0,0.0,0.0,0.0,0.0,0.0,0.0,0.0,0.0,0.0,0.0,0.0,0.0,0.0,0.0,0.0,0.0,0.0,0.0,0.0,0.0,0.0,0.0,0.0,0.0,0.0,0.0,0.0,0.0,0.0,0.0,0.0,0.0,0.0,0.0,0.0,0.0,0.0,0.0,0.0,0.0,0.0,0.0,0.0,0.0,0.0,0.0,0.0,0.0,0.0,0.0,0.0,0.0,0.0,0.0,0.0,0.0,0.0,0.0,0.0,0.0,0.0,0.0,0.0,0.0,0.0,0.0,0.0,0.0,0.0,0.0,0.0,0.0,0.0,0.0,0.0,0.0,0.0,0.0,0.0,0.0,0.0,0.0,0.0,0.0,0.0,0.0,0.0,0.0,0.0,0.0,0.0,0.0,0.0,0.0,0.0,0.0,0.0,0.0,0.0,0.0,0.0,0.0,0.0,0.0,0.0,0.0,0.0,0.0,0.0,0.0,0.0,0.0,0.0,0.0,0.0,0.0,0.0,0.0,0.0,0.0,0.0,0.0,0.0,0.0,0.0,0.0,0.0,0.0,0.0,0.0,0.0,0.0,0.0,0.0,0.0,0.0,0.0,0.0,0.0,0.0,0.0,0.0,0.0,0.0,0.0,0.0,0.0,0.0,0.0,0.0,0.0,0.0,0.0,0.0,0.0,0.0,0.0,0.0,0.0,0.0,0.0,0.0,0.0,0.0,0.0,0.0,0.0,0.0,0.0,0.0,0.0,0.0,0.0,0.0,0.0,0.0,0.0,0.0,0.0,0.0,0.0,0.0,0.0,0.0,0.0,0.0,0.0,0.0,0.0,0.0,0.0,0.0,0.0,0.0,0.0,0.0,0.0,0.0,0.0,0.0,0.0,0.0,0.0,0.0,0.0,0.0,0.0,0.0,0.0,0.0,0.0,0.0,0.0,0.0,0.0,0.0,0.0,0.0,0.0,0.0,0.0,0.0,0.0,0.0,0.0,0.0,0.0,0.0,0.0,0.0,0.0,0.0,0.0,0.0,0.0,0.0,0.0,0.0,0.0,0.0,0.0,0.0,0.0,0.0,0.0,0.0,0.0,0.0,0.0,0.0,0.0,0.0,0.0,0.0,0.0,0.0,0.0,0.0,0.0,0.0,0.0,0.0,0.0,0.0,0.0,0.0,0.0,0.0,0.0,0.0,0.0,0.0,0.0,0.0,0.0,0.0,0.0,0.0,0.0,0.0,0.0,0.0,0.0,0.0,0.0,0.0,0.0,0.0,0.0,0.0,0.0,0.0,0.0,0.0,0.0,0.0,0.0,0.0,0.0,0.0,0.0,0.0,0.0,0.0,0.0,0.0,0.0,0.0,0.0,0.0,0.0,0.0,0.0,0.0,0.0,0.0,0.0,0.0,0.0,0.0,0.0,0.0,0.0,0.0,0.0,0.0,0.0,0.0,0.0,0.0,0.0,0.0,0.0,0.0,0.0,0.0,0.0,0.0,0.0,0.0,0.0,0.0,0.0,0.0,0.0,0.0,0.0,0.0,0.0,0.0,0.0,0.0,0.0,0.0,0.0,0.0,0.0,0.0,0.0,0.0,0.0,0.0,0.0,0.0,0.0,0.0,0.0,0.0,0.0,0.0,0.0,0.0,0.0,0.0,0.0,0.0,0.0,0.0,0.0,0.0,0.0,0.0,0.0,0.0,0.0,0.0,0.0,0.0,0.0,0.0,0.0,0.0,0.0,0.0,0.0,0.0,0.0,0.0,0.0,0.0,0.0,0.0,0.0,0.0,0.0,0.0,0.0,0.0,0.0,0.0,0.0,0.0,0.0,0.0,0.0,0.0,0.0,0.0,0.0,0.0,0.0,0.0,0.0,0.0,0.0,0.0,0.0,0.0,0.0,0.0,0.0,0.0,0.0,0.0,0.0,0.0,0.0,0.0,0.0,0.0,0.0,0.0,0.0,0.0,0.0,0.0,0.0,0.0,0.0,0.0,0.0,0.0,0.0,0.0,0.0,0.0,0.0,0.0,0.0,0.0,0.0,0.0,0.0,0.0,0.0,0.0,0.0,0.0,0.0,0.0,0.0,0.0,0.0,0.0,0.0,0.0,0.0,0.0,0.0,0.0,0.0,0.0,0.0,0.0,0.0,0.0,0.0,0.0,0.0,0.0,0.0,0.0,0.0,0.0,0.0,0.0,0.0,0.0,0.0,0.0,0.0,0.0,0.0,0.0,0.0,0.0,0.0,0.0,0.0,0.0,0.0,0.0,0.0,0.0,0.0,0.0,0.0,0.0,0.0,0.0,0.0,0.0,0.0,0.0,0.0,0.0,0.0,0.0,0.0,0.0,0.0,0.0,0.0,0.0,0.0,0.0,0.0,0.0,0.0,0.0,0.0,0.0,0.0,0.0,0.0,0.0,0.0,0.0,0.0,0.0,0.0,0.0,0.0,0.0,0.0,0.0,0.0,0.0,0.0,0.0,0.0,0.0,0.0,0.0,0.0,0.0,0.0,0.0,0.0,0.0,0.0,0.0,0.0,0.0,0.0,0.0,0.0,0.0,0.0,0.0,0.0,0.0,0.0,0.0,0.0,0.0,0.0,0.0,0.0,0.0,0.0,0.0,0.0,0.0,0.0,0.0,0.0,0.0,0.0,0.0,0.0,0.0,0.0,0.0,0.0,0.0,0.0,0.0,0.0,0.0,0.0,0.0,0.0,0.0,0.0,0.0,0.0,0.0,0.0,0.0,0.0,0.0,0.0,0.0,0.0,0.0,0.0,0.0,0.0,0.0,0.0,0.0,0.0,0.0,0.0,0.0,0.0,0.0,0.0,0.0,0.0,0.0,0.0,0.0,0.0,0.0,0.0,0.0,0.0,0.0,0.0,0.0,0.0,0.0,0.0,0.0,0.0,0.0,0.0,0.0,0.0,0.0,0.0,0.0,0.0,0.0,0.0,0.0,0.0,0.0,0.0,0.0,0.0,0.0,0.0,0.0,0.0,0.0,0.0,0.0,0.0,0.0,0.0,0.0,0.0,0.0,0.0,0.0,0.0,0.0,0.0,0.0,0.0,0.0,0.0,0.0,0.0,0.0,0.0,0.0,0.0,0.0,0.0,0.0,0.0,0.0,0.0,0.0,0.0,0.0,0.0,0.0,0.0,0.0,0.0,0.0,0.0,0.0,0.0,0.0,0.0,0.0,0.0,0.0,0.0,0.0,0.0,0.0,0.0,0.0,0.0,0.0,3.1558,3.0911,0.0,0.0,0.0,0.0,0.0,0.0,0.0,0.0,0.0,0.0,0.0,0.0,0.0,0.0,0.0,0.0,0.0,0.0,0.0,0.0,0.0,0.0,0.0,0.0,0.0,0.0,0.0,0.0,0.0,0.0,0.0,0.0,0.0,0.0,0.0,0.0,0.0,4.2493,4.1807,4.1125,4.0472,3.9077,3.8418,3.8366,0.0,0.0,0.0,0.0,0.0,0.0,0.0,0.0,0.0,0.0,0.0,0.0,0.0,0.0,0.0,0.0,0.0,0.0,0.0,0.0,0.0,0.0,0.0,0.0,0.0,0.0,0.0,0.0,0.0,0.0,0.0,0.0,0.0,0.0,0.0,0.0,0.0,0.0,0.0,0.0,0.0,0.0,0.0,0.0,0.0,0.0,0.0,0.0,0.0,0.0,0.0,0.0,0.0,0.0,0.0,0.0,0.0,0.0,0.0,0.0,0.0,0.0,0.0,0.0,0.0,0.0,0.0,0.0,0.0,0.0,3.3086,3.2542,0.0,0.0,0.0,0.0,0.0,0.0,0.0,0.0,0.0,0.0,0.0,0.0,0.0,0.0,0.0,0.0,0.0,0.0,0.0,0.0,0.0,0.0,0.0,4.4615,4.4615,4.4615,4.4615,4.4615,0.0,0.0,0.0,0.0,0.0,0.0,4.4615,4.4615,4.4615,4.4615,4.3427,4.2307,4.1187,4.1187,4.0827,4.0083,3.9707,0.0,0.0,0.0,0.0,0.0,0.0,0.0,0.0,0.0,0.0,0.0,0.0,0.0,0.0,0.0,0.0,0.0,0.0,0.0,0.0,0.0,0.0,0.0,0.0,0.0,0.0,0.0,0.0,0.0,0.0,0.0,0.0,0.0,0.0,0.0,0.0,0.0,0.0,0.0,0.0,0.0,0.0,0.0,0.0,0.0,0.0,0.0,0.0,0.0,0.0,0.0,0.0,0.0,0.0,0.0,0.0,0.0,0.0,0.0,0.0,0.0,0.0,0.0,3.4235,3.4284,3.4284,3.4284,3.4529,3.4887,3.448,3.4235,3.4111,3.3649,0.0,0.0,0.0,0.0,0.0,0.0,0.0,0.0,0.0,0.0,0.0,0.0,0.0,0.0,0.0,0.0,0.0,0.0,0.0,4.4615,4.4615,4.4615,4.4615,4.4615,4.4615,4.4615,4.4615,0.0,0.0,0.0,0.0,0.0,4.4615,4.4615,4.4615,4.4615,4.4395,4.4238,4.4052,4.4052,4.362,4.2785,4.0984,4.0407,4.0793,0.0,0.0,0.0,0.0,0.0,0.0,0.0,0.0,0.0,0.0,0.0,0.0,0.0,0.0,0.0,0.0,0.0,0.0,0.0,0.0,0.0,0.0,0.0,0.0,0.0,0.0,0.0,0.0,0.0,0.0,0.0,0.0,0.0,0.0,0.0,0.0,0.0,0.0,0.0,0.0,0.0,3.4257,3.3794,0.0,0.0,0.0,0.0,0.0,0.0,0.0,0.0,0.0,0.0,0.0,0.0,0.0,3.4011,3.4011,3.4456,3.4697,3.4697,3.5178,3.5385,3.5385,3.5385,3.5441,3.5509,3.5407,0.0,3.4673,3.4625,0.0,0.0,0.0,0.0,0.0,0.0,0.0,0.0,0.0,0.0,0.0,0.0,0.0,0.0,0.0,0.0,0.0,0.0,0.0,0.0,0.0,4.5425,4.5425,4.5425,4.5169,4.4981,4.4981,4.4748,0.0,0.0,4.4615,4.4615,4.4615,4.4615,4.4615,4.4615,4.4615,4.4615,4.4615,4.4615,4.4384,4.4012,4.265,4.1971,4.1779,4.1035,0.0,0.0,0.0,0.0,0.0,0.0,0.0,0.0,0.0,0.0,0.0,0.0,0.0,0.0,0.0,0.0,0.0,0.0,0.0,0.0,0.0,0.0,0.0,0.0,0.0,0.0,0.0,0.0,0.0,0.0,0.0,0.0,0.0,0.0,0.0,0.0,0.0,0.0,0.0,3.5108,3.5155,3.4944,3.5052,3.5075,0.0,0.0,0.0,0.0,0.0,0.0,0.0,0.0,0.0,3.4887,3.4887,3.512,3.5575,3.5813,3.6142,3.6544,3.6791,3.6884,3.6884,3.6884,3.6671,3.6265,3.6265,3.5857,3.5224,3.4911,3.4529,3.4053,0.0,0.0,0.0,0.0,3.3649,3.3675,0.0,0.0,0.0,0.0,0.0,0.0,0.0,0.0,0.0,0.0,0.0,0.0,4.6098,4.6098,4.6098,4.6098,4.5724,4.5494,4.5494,4.5367,4.5241,4.5109,4.5279,4.5326,4.519,4.4987,4.4818,4.4615,4.4615,4.4615,4.4615,4.4615,4.4615,4.4581,4.3978,4.3301,4.2523,4.1779,4.1474,4.1441,0.0,0.0,0.0,0.0,0.0,0.0,0.0,0.0,0.0,0.0,0.0,0.0,0.0,0.0,0.0,0.0,0.0,0.0,0.0,0.0,0.0,0.0,0.0,0.0,0.0,0.0,0.0,0.0,0.0,0.0,0.0,0.0,0.0,0.0,0.0,0.0,0.0,3.56,3.56,3.56,3.56,3.56,0.0,0.0,0.0,0.0,0.0,0.0,3.6174,3.6174,3.6174,3.6174,3.6174,3.6502,3.71,3.71,3.7347,3.7922,3.7922,3.7922,3.7922,3.7922,3.7584,3.71,3.71,3.6738,3.6118,3.5345,3.4911,3.4745,3.4358,3.4136,3.4011,3.4161,3.421,3.4235,0.0,0.0,0.0,0.0,0.0,0.0,0.0,0.0,0.0,0.0,0.0,4.6098,4.6098,4.6098,4.6098,4.6098,4.6074,4.6049,4.6049,4.675,4.6951,4.6439,4.7086,4.7215,4.6713,4.6007,4.5297,4.4615,4.4615,4.4615,4.4615,4.4615,4.4615,4.4615,4.4581,4.4079,4.3301,4.2557,4.2219,4.2219,4.2185,0.0,0.0,0.0,0.0,0.0,0.0,0.0,0.0,0.0,0.0,0.0,0.0,0.0,0.0,0.0,0.0,0.0,0.0,0.0,0.0,0.0,0.0,0.0,0.0,0.0,0.0,0.0,0.0,0.0,0.0,0.0,0.0,0.0,0.0,0.0,0.0,0.0,0.0,3.56,3.56,0.0,0.0,0.0,0.0,3.6694,3.6761,3.7066,3.7753,3.7787,3.7787,3.7787,3.7787,3.7821,3.7855,3.7855,3.7855,3.7922,3.7922,3.7922,3.7922,3.7922,3.7889,3.7855,3.7855,3.7821,3.7686,3.6185,3.5247,3.4793,3.4769,3.4456,3.4061,3.4577,3.4745,3.4816,0.0,0.0,0.0,0.0,0.0,0.0,0.0,0.0,4.8942,4.8942,4.8317,4.7882,4.7882,4.7882,4.7882,4.7882,4.8057,4.8151,4.8151,4.808,4.7978,4.7806,4.8041,4.8076,4.7897,4.7654,4.7376,4.7125,4.6721,4.6446,4.6343,4.5979,4.5731,4.5554,4.5188,4.489,4.4555,4.3464,4.3031,4.2963,4.2489,4.2117,0.0,0.0,0.0,0.0,0.0,0.0,0.0,0.0,0.0,0.0,0.0,0.0,0.0,0.0,0.0,0.0,0.0,0.0,0.0,0.0,0.0,0.0,0.0,0.0,0.0,0.0,0.0,0.0,0.0,0.0,0.0,0.0,0.0,0.0,0.0,0.0,0.0,3.56,3.6062,0.0,3.6366,3.6806,3.7212,3.7483,3.7516,3.7618,3.7889,3.8362,3.8599,3.8599,3.9073,3.9521,4.002,4.002,4.0257,4.073,4.073,4.073,4.073,4.073,4.046,4.002,3.9512,3.9039,3.8531,3.7516,3.6959,3.6817,3.6817,3.6396,3.5842,3.6008,3.5753,3.5339,0.0,0.0,0.0,0.0,0.0,0.0,0.0,5.0112,5.0112,5.0112,4.9655,4.9293,4.9293,4.9293,4.9293,4.9293,4.946,4.9588,4.9588,4.9222,4.8954,4.8756,4.8579,4.8336,4.8055,4.8055,4.7949,4.7694,4.7309,4.703,4.6871,4.6525,4.6272,4.6074,4.5724,4.5571,4.5511,4.4698,4.4129,4.3802,4.345,4.3049,4.2726,0.0,0.0,0.0,0.0,0.0,0.0,0.0,0.0,0.0,0.0,0.0,0.0,0.0,0.0,0.0,0.0,0.0,0.0,0.0,0.0,0.0,0.0,0.0,0.0,0.0,0.0,0.0,0.0,0.0,0.0,0.0,0.0,0.0,0.0,3.6196,3.6164,3.6581,3.7081,3.7421,3.7506,3.8122,3.8656,3.8971,3.9005,3.914,3.9377,3.9851,4.0087,4.0087,4.0595,4.1068,4.1576,4.1576,4.1813,4.2286,4.2286,4.2286,4.2286,4.2286,4.2016,4.1542,4.106,4.0561,4.0087,3.958,3.9377,3.9309,3.8294,3.7584,3.7178,3.7178,3.684,3.6377,0.0,0.0,0.0,0.0,0.0,0.0,5.0184,5.0184,5.0184,5.0184,5.0148,5.0148,5.0148,5.0148,5.0148,5.0148,5.0184,5.0184,5.0148,5.0148,4.9888,4.927,4.8731,4.8099,4.7317,4.7317,4.6966,4.6253,4.6263,4.6263,4.6253,4.6228,4.6228,4.6217,4.6193,4.6193,4.6158,4.6158,4.5589,4.4692,4.5135,4.459,4.3464,0.0,0.0,0.0,0.0,0.0,0.0,0.0,0.0,0.0,0.0,0.0,0.0,0.0,0.0,0.0,0.0,0.0,0.0,0.0,0.0,0.0,0.0,0.0,0.0,0.0,0.0,0.0,0.0,0.0,0.0,0.0,0.0,0.0,3.8239,3.7391,3.7331,3.8513,3.8661,3.8826,3.9093,3.9545,4.0233,4.1214,4.1289,4.1594,4.2306,4.2373,4.2373,4.2347,4.2381,4.2381,4.2354,4.2354,4.2354,4.2354,4.2354,4.2354,4.2354,4.2354,4.2354,4.2354,4.2354,4.232,4.232,4.2286,4.2286,4.2016,3.914,3.8024,3.799,3.799,3.7956,3.7922,0.0,0.0,0.0,0.0,0.0,0.0,5.1828,5.1828,5.1828,5.1828,5.1321,5.0981,5.0981,5.0981,5.0981,5.0981,5.1502,5.1574,5.0995,5.0981,5.066,4.9911,4.9716,4.9539,4.931,4.9885,5.0065,4.9873,5.0006,5.0031,4.9849,4.9436,4.9139,4.8987,4.8603,4.8117,4.756,4.756,4.6822,4.5708,4.5825,4.5695,4.5335,0.0,0.0,0.0,0.0,0.0,0.0,0.0,0.0,0.0,0.0,0.0,0.0,0.0,0.0,0.0,0.0,0.0,0.0,0.0,0.0,0.0,0.0,0.0,0.0,0.0,0.0,0.0,0.0,0.0,0.0,0.0,3.9403,3.9209,3.8998,3.8755,3.8928,3.9869,4.0442,4.1006,4.1696,4.2346,4.2859,4.3136,4.3147,4.3252,4.3461,4.3959,4.4073,4.37,4.4189,4.4312,4.3972,4.3972,4.3972,4.3972,4.3972,4.3972,4.3972,4.3972,4.3972,4.3938,4.3335,4.3098,4.3064,4.2523,4.2286,4.2219,4.1407,4.046,3.9487,3.9478,3.8802,3.7922,0.0,0.0,0.0,0.0,0.0,0.0,5.248,5.248,5.248,5.248,5.2082,5.1792,5.1792,5.1792,5.1792,5.1792,5.19,5.1937,5.1792,5.1176,5.0271,4.9148,4.9401,4.9582,4.9582,5.0379,5.08,5.08,5.0914,5.0901,5.0778,5.0446,5.0217,5.009,4.9748,4.9382,4.8928,4.8582,4.7992,4.7239,4.6918,4.6543,4.6172,4.6123,4.5877,4.5587,4.5893,4.5338,4.4587,4.4845,0.0,0.0,0.0,0.0,0.0,0.0,0.0,0.0,0.0,0.0,0.0,0.0,0.0,0.0,0.0,0.0,0.0,0.0,0.0,0.0,0.0,0.0,0.0,0.0,4.1125,4.1319,4.1319,4.0728,4.0736,4.2044,4.2611,4.309,4.3663,4.4281,4.4834,4.5292,4.5328,4.5468,4.582,4.6217,4.6315,4.5986,4.6439,4.6525,4.6239,4.6239,4.6103,4.5855,4.5855,4.5855,4.5855,4.5609,4.5778,4.6178,4.5152,4.4837,4.4973,4.4216,4.3751,4.3481,0.0,0.0,0.0,0.0,4.046,3.9749,0.0,0.0,0.0,0.0,0.0,0.0,5.248,5.248,5.248,5.248,5.248,5.248,5.248,5.248,5.2444,5.2371,5.1792,5.1647,5.219,5.0814,4.9329,4.7916,4.8605,4.9018,4.9018,4.98,5.0257,5.0257,5.0329,5.0365,5.0365,5.0365,5.0365,5.0365,5.0365,5.0329,5.0184,4.9474,4.9054,4.8837,4.8113,4.7303,4.6472,4.6341,4.6376,4.6543,4.7062,4.6552,4.5721,4.6133,0.0,0.0,0.0,0.0,0.0,0.0,0.0,0.0,0.0,0.0,0.0,0.0,0.0,0.0,0.0,0.0,0.0,0.0,0.0,0.0,0.0,0.0,0.0,0.0,4.3372,4.415,4.4331,4.3185,4.2894,4.4636,4.4893,4.5076,4.5423,4.5912,4.6562,4.7541,4.7622,4.7939,4.8645,4.868,0.0,0.0,0.0,4.8579,4.8502,4.8502,4.8234,4.7699,4.7699,4.7699,4.7699,4.721,4.7548,4.8441,4.7229,4.7004,4.7387,4.666,4.6104,4.5441,4.3265,4.2422,4.2388,4.232,4.2286,4.2286,0.0,0.0,0.0,0.0,0.0,0.0,5.248,5.248,5.248,5.248,5.248,5.248,5.248,5.248,5.2226,5.1574,5.1973,5.1756,5.0655,4.9655,4.8981,4.8656,4.9438,4.9872,4.9872,5.0633,5.109,5.109,5.1719,5.2045,5.2045,5.2045,5.2045,5.2045,5.2045,5.1683,5.1067,5.0886,5.009,4.8873,4.8728,4.8172,4.7428,4.7529,4.7493,4.7472,4.785,4.7736,4.7482,4.7773,4.7285,4.6606,4.6586,4.5964,0.0,0.0,0.0,0.0,0.0,0.0,0.0,0.0,0.0,0.0,0.0,0.0,0.0,0.0,0.0,0.0,0.0,0.0,0.0,4.3654,4.393,4.4548,4.5852,4.6323,4.6404,4.6163,4.6705,4.7385,4.8091,4.8828,4.9356,4.9555,4.9555,4.9627,4.9771,4.9807,4.9588,4.9174,4.915,4.8954,4.8528,4.8502,4.8451,4.8312,4.8312,0.0,4.8312,4.8242,4.8295,4.8502,4.8223,4.8153,4.8256,4.8115,4.7969,4.7578,4.4414,4.32,4.3132,4.2523,4.2286,4.2286,0.0,0.0,0.0,0.0,0.0,0.0,5.2731,5.2595,5.248,5.248,5.2154,5.19,5.19,5.1538,5.1285,5.1285,5.2045,5.1828,5.022,5.009,4.9908,4.951,5.0271,5.0728,5.0728,5.1466,5.19,5.19,5.2299,5.248,5.248,5.248,5.248,5.248,5.248,5.2263,5.1864,5.1466,5.0597,4.9474,4.9075,4.8402,4.7699,4.784,4.7902,4.785,4.8048,4.8048,4.7968,4.8092,4.7855,4.7487,4.7582,4.7015,4.6318,0.0,0.0,0.0,0.0,0.0,0.0,0.0,0.0,0.0,0.0,0.0,0.0,0.0,0.0,4.3498,4.3498,0.0,4.4222,4.4621,4.5055,4.5707,4.6939,4.7787,4.8149,4.7772,4.8424,4.9075,4.9474,4.9836,5.0293,5.0669,5.0728,5.0873,5.1285,5.1285,5.1194,5.0926,5.0926,5.0772,5.0508,5.0508,5.0325,5.0049,5.0049,5.0049,5.0049,4.9731,4.9912,5.0448,4.9749,4.9597,4.9841,4.9206,4.8905,4.8689,4.6717,4.5718,4.5243,4.4483,4.4207,4.4156,0.0,0.0,0.0,0.0,0.0,0.0,0.0,5.2731,5.2444,5.2299,5.1683,5.1285,5.1285,5.0728,5.0655,5.1466,5.1828,5.1538,5.0401,5.0923,5.0995,5.0365,5.1104,5.1538,5.1538,5.2154,5.248,5.248,5.248,5.248,5.248,5.248,5.248,5.248,5.248,5.248,5.2444,5.167,5.0836,5.0039,4.9242,4.8445,4.7699,4.7881,4.7927,4.7972,4.8032,4.8052,4.8032,4.8032,4.8052,4.8072,4.8148,4.7729,4.7236,4.7295,4.6837,0.0,0.0,0.0,0.0,0.0,0.0,0.0,0.0,4.471,4.4398,4.3667,4.3954,4.4331,4.4331,4.4874,4.5345,4.5526,4.6069,4.683,4.7808,4.8641,4.9184,4.9365,4.9945,5.0329,5.0329,5.0452,5.0814,5.1466,5.1538,5.1828,5.248,5.248,5.248,5.248,5.248,5.248,5.248,5.248,5.2269,5.1786,5.1786,5.1786,5.1761,5.1286,5.1601,5.2421,5.1299,5.1095,5.1443,5.0353,4.9901,4.9877,4.9263,4.8629,4.7968,4.6935,4.6555,4.6505,0.0,0.0,0.0,0.0,0.0,0.0,0.0,0.0,5.2226,5.1502,5.1357,5.1285,5.1285,5.1212,5.1466,5.2299,5.114,5.0619,5.1104,5.1249,5.1249,5.1176,5.1937,5.2371,5.2371,5.2444,5.248,5.248,5.248,5.248,5.248,5.248,5.248,5.248,5.248,5.248,5.2444,5.1724,5.0903,5.0039,4.9349,4.8508,4.772,4.7927,4.7968,4.7943,4.817,4.8209,4.8187,4.8187,4.8226,4.8229,4.8072,4.8055,4.8078,4.806,4.8024,4.7934,4.8011,4.7972,4.7768,4.7072,4.6776,4.646,0.0,4.5397,4.5321,4.5095,4.5091,4.5164,4.5164,4.5236,4.5526,4.625,4.6432,4.7047,4.8547,4.9474,5.0234,5.0959,5.1104,5.1199,5.1199,5.1792,5.2263,5.2371,5.2371,5.2408,5.248,5.248,5.248,5.248,5.248,5.248,5.248,5.248,5.2457,5.241,5.241,5.241,5.2387,5.234,5.2387,5.248,5.2325,5.2289,5.2335,5.2216,5.2157,5.2085,5.1316,5.0931,5.0636,4.8891,4.8221,4.8221,0.0,0.0,0.0,0.0,0.0,0.0,0.0,0.0,5.219,5.1393,5.1285,5.1104,5.0655,5.1017,5.143,5.1756,5.1611,5.1647,5.1973,5.2009,5.2009,5.2009,5.2299,5.248,5.248,5.248,5.248,5.248,5.248,5.248,5.248,5.248,5.248,5.248,5.248,5.2526,5.2559,5.2209,5.1637,5.0926,5.0068,4.9247,4.8525,4.8214,4.8108,4.8105,4.8207,4.8226,0.0,4.8187,4.8226,4.8209,4.819,4.8209,4.8285,4.8285,4.8285,4.8248,4.8287,4.8265,4.8134,4.7826,4.7694,4.7358,4.6458,4.6233,4.6028,4.5401,4.5671,4.5997,4.5997,4.6395,4.683,4.7156,4.7591,4.8315,4.9438,5.0271,5.1104,5.19,5.2009,5.2009,5.2009,5.2299,5.248,5.248,5.248,5.248,5.248,5.248,5.248,5.248,5.248,5.248,5.248,5.248,5.248,5.248,5.248,5.248,5.248,5.248,5.248,5.248,5.248,5.248,5.248,5.248,5.248,5.248,5.2118,5.2009,5.1782,5.0054,4.9447,4.94,0.0,0.0,0.0,0.0,0.0,0.0,0.0,0.0,0.0,0.0,5.1285,5.1067,5.051,5.114,5.1611,5.1611,5.2154,5.248,5.248,5.248,5.248,5.248,5.248,5.248,5.248,5.248,5.248,5.248,5.248,5.248,5.248,5.248,5.248,5.248,5.248,5.2526,5.2545,5.2341,5.1972,5.1522,5.0663,4.9883,4.9159,4.8696,4.837,4.8207,4.8226,4.8226,4.8226,4.8207,4.8207,4.8246,4.8248,4.8287,4.8306,4.8306,4.8306,4.8306,4.8306,4.8265,4.8207,4.8248,4.8246,4.8002,4.7279,4.7074,4.6848,4.609,4.6432,4.683,4.683,4.7301,4.7699,4.7699,4.8366,4.9184,5.0003,5.0778,5.1574,5.2408,5.2697,5.2733,5.2516,5.248,5.248,5.248,5.248,5.248,5.248,5.248,5.248,5.248,5.248,5.248,5.248,5.248,5.248,5.248,5.248,5.248,5.248,5.248,5.248,5.248,5.248,5.248,5.248,5.248,5.248,5.248,5.248,5.248,5.2371,5.1176,5.0741,5.0697,0.0,0.0,0.0,0.0,0.0,0.0,0.0,0.0,0.0,0.0,0.0,5.1285,5.1249,5.1973,5.2444,5.2444,5.248,5.248,5.248,5.248,5.248,5.248,5.248,5.248,5.248,5.248,5.248,5.248,5.248,5.248,5.248,5.248,5.248,5.248,5.248,5.248,5.2467,5.1857,5.1573,5.1449,5.0827,5.0028,4.9195,4.9318,4.8882,4.8207,4.8267,4.8287,4.8287,4.8226,4.8246,4.8287,4.8226,4.8265,4.8306,4.8306,4.8306,4.8306,4.8306,4.8265,4.8187,4.8207,4.8207,4.8128,4.7907,4.7911,4.7895,4.7669,4.7663,4.7663,4.7663,4.7699,4.7699,4.7699,4.8366,4.9184,5.0003,5.0778,5.1574,5.2408,5.3204,5.3349,5.2589,5.248,5.248,5.248,5.248,5.248,5.248,5.248,5.248,5.248,5.248,5.248,5.248,5.248,5.248,5.248,5.248,5.248,5.248,5.248,5.248,5.248,5.248,5.248,5.248,5.248,5.248,5.248,5.248,5.248,5.248,5.2444,5.2408,5.2408,0.0,0.0,0.0,0.0,0.0,0.0,0.0,0.0,0.0,0.0,0.0,0.0,0.0,0.0,0.0,0.0,5.248,5.248,5.248,5.248,5.248,5.248,5.248,5.248,5.248,5.248,5.248,5.248,5.248,5.248,5.248,5.248,5.248,5.248,5.248,5.2526,5.2545,5.2358,5.236,5.2433,5.1694,5.1245,5.0993,5.0521,5.0155,4.9955,0.0,4.926,4.8287,4.8267,4.8267,4.8344,4.8532,4.8586,4.8676,4.8881,4.8816,4.8622,4.8622,4.8439,4.8248,4.8248,4.8246,4.8148,4.8008,4.7947,4.7866,4.772,4.7699,4.7699,4.7699,4.7699,4.7699,4.7699,4.8822,4.98,5.0075,5.1249,5.219,5.248,5.3204,5.3603,5.3313,5.3313,5.3059,5.2552,5.248,5.248,5.248,5.248,5.248,5.248,5.248,5.248,5.248,5.248,5.248,5.248,5.248,5.248,5.248,5.248,5.248,5.248,5.248,5.248,5.248,5.248,5.248,5.248,5.248,5.248,5.248,5.248,5.248,5.248,0.0,0.0,0.0,0.0,0.0,0.0,0.0,0.0,0.0,0.0,0.0,0.0,0.0,0.0,0.0,0.0,0.0,5.248,5.248,5.248,5.248,5.248,5.248,5.248,5.248,5.248,5.248,5.248,5.248,5.248,5.248,5.248,5.248,5.248,5.2526,5.2559,5.2613,5.268,5.285,5.2944,5.2511,5.2254,5.2109,5.1593,5.1321,0.0,5.1157,5.0454,4.9472,4.9049,4.879,4.8693,4.8898,4.8965,4.9015,4.924,4.9145,4.8965,4.8965,4.8833,4.8658,4.8658,4.8605,4.8477,4.8383,4.819,4.8008,4.785,4.7783,4.7699,4.7699,4.7699,4.7699,4.7699,4.9039,5.0112,5.0112,5.1466,5.248,5.248,5.3458,5.4037,5.3748,5.4218,5.4074,5.3023,5.2661,5.248,5.248,5.248,5.248,5.248,5.248,5.248,5.248,5.248,5.248,5.248,5.248,5.248,5.248,5.248,5.248,5.248,5.248,5.248,5.248,5.248,5.248,5.248,5.248,5.248,5.248,5.248,5.248,5.248,0.0,0.0,0.0,0.0,0.0,0.0,0.0,0.0,0.0,0.0,0.0,0.0,0.0,0.0,0.0,0.0,0.0,0.0,5.248,5.2503,5.2503,5.2503,5.2503,5.2503,5.2503,5.2503,5.2503,5.2503,5.2503,5.2503,5.2503,5.2503,5.2503,5.2503,5.2581,5.2613,5.2613,5.2893,5.3002,5.3023,5.3167,5.2961,5.2568,5.2568,5.2335,5.1925,5.1925,5.1904,5.1721,5.046,4.972,4.9333,4.9333,4.9348,4.9363,4.9363,4.9348,4.9333,4.9333,4.9317,4.9317,4.9317,4.9177,4.9069,4.9023,4.8659,4.8306,4.8173,4.7951,4.7762,4.7762,4.7762,4.7762,4.7741,4.9104,5.0156,5.0134,5.1511,5.2503,5.2503,5.3892,5.4544,5.3844,5.5076,5.5269,5.3856,5.3023,5.2552,5.248,5.248,5.248,5.248,5.248,5.248,5.248,5.248,5.248,5.248,5.248,5.248,5.248,5.248,5.248,5.248,5.248,5.248,5.248,5.248,5.248,5.248,5.248,5.248,5.248,5.248,5.248,5.248,0.0,0.0,0.0,0.0,0.0,0.0,0.0,0.0,0.0,0.0,0.0,0.0,0.0,0.0,0.0,0.0,0.0,0.0,5.2581,5.2581,5.2627,5.2694,5.2627,5.2581,5.2581,5.2581,5.2581,5.2581,5.2672,5.2717,5.2717,5.2717,5.2717,5.2717,5.2739,5.2761,5.2761,5.2915,5.3136,5.337,5.3506,5.3684,5.3859,5.3859,5.3761,5.3658,5.3658,5.3462,5.2863,5.1067,5.0086,4.9655,4.9655,4.9844,5.0051,5.0051,4.987,4.9655,4.9655,4.9498,4.9317,4.9317,4.9177,4.9069,4.9023,4.8905,4.8801,4.864,4.8639,4.8656,4.855,4.8513,4.8514,4.8401,4.9743,5.0672,5.0441,5.1806,5.2886,5.2886,5.3549,5.4241,5.4848,5.4506,5.4363,5.4581,5.3856,5.3132,5.2516,5.248,5.248,5.248,5.248,5.248,5.248,5.248,5.248,5.248,5.248,5.248,5.248,5.248,5.248,5.248,5.248,5.248,5.248,5.248,5.248,5.248,5.248,5.248,5.248,5.248,5.248,5.248,0.0,0.0,0.0,0.0,0.0,0.0,0.0,0.0,0.0,0.0,0.0,0.0,0.0,0.0,0.0,0.0,0.0,0.0,0.0,5.2568,5.2635,5.2717,5.2717,5.2717,5.2717,5.2717,5.2769,5.295,5.303,5.312,5.3289,5.3289,5.3289,5.3289,5.333,5.335,5.337,5.3506,5.3682,0.0,0.0,5.4193,5.4511,5.4511,5.4607,5.4784,5.4784,5.413,5.3079,5.194,5.0895,5.0025,5.0025,5.0163,5.0283,5.0283,5.0188,5.0025,5.0025,4.987,4.9749,4.9749,4.9637,4.9544,4.9499,4.9324,4.9129,4.908,4.8982,4.8898,4.8816,4.8746,4.8695,4.8587,4.964,5.0523,5.0715,5.1834,5.2752,5.3141,5.3719,5.4481,5.5486,5.4843,5.46,5.5096,5.3914,5.2987,5.2516,5.248,5.248,5.248,5.248,5.248,5.248,5.248,5.248,5.248,5.248,5.2503,5.2536,5.2503,5.2503,5.2536,5.2503,5.248,5.248,5.248,5.248,5.248,5.248,5.248,5.248,5.248,5.248,5.248,0.0,0.0,0.0,0.0,0.0,0.0,0.0,0.0,0.0,0.0,0.0,0.0,0.0,0.0,0.0,0.0,0.0,0.0,0.0,0.0,5.2613,5.2635,5.2761,5.2806,5.2828,5.2828,5.2987,5.3346,5.3346,5.3548,5.3868,5.3868,5.3886,5.3977,5.4066,5.4138,5.4118,5.4262,5.4313,5.4364,5.4364,5.4576,5.4903,0.0,5.5099,5.5403,5.5403,5.4333,5.2957,5.2843,5.1697,5.0283,5.0283,5.0283,5.0283,5.0283,5.0283,5.0283,5.0283,5.0283,5.0283,5.0283,5.0188,5.0076,5.0076,4.9776,4.9498,4.9498,4.9224,4.8982,4.8986,4.8867,4.8783,4.8748,4.9416,5.0195,5.0952,5.1766,5.2579,5.3356,5.4035,5.481,5.5722,5.5331,5.5111,5.5265,5.3613,5.2526,5.248,5.248,5.248,5.248,5.248,5.248,5.248,5.2503,5.2503,5.2503,5.2526,5.2595,5.2613,5.2572,5.2536,5.259,5.2549,5.2503,5.248,5.248,5.2503,5.2503,5.2503,5.2526,5.2526,5.2526,5.2526,5.2526,0.0,0.0,0.0,0.0,0.0,0.0,0.0,0.0,0.0,0.0,5.2568,5.2568,0.0,0.0,0.0,0.0,0.0,0.0,0.0,0.0,0.0,5.2915,5.285,5.285,5.2959,5.2959,5.3002,5.3066,5.3188,5.342,5.372,5.372,5.3906,5.4245,5.4262,5.4262,5.4262,5.4279,5.4463,5.4716,5.4716,5.4947,5.5286,5.5286,0.0,0.0,5.5403,5.4753,5.376,5.3034,5.1697,5.0283,5.0283,5.0283,5.0283,5.0283,5.0283,5.0283,5.0283,5.0283,5.0283,5.0283,5.0188,5.0076,5.0076,5.0038,4.9999,4.9999,5.0,5.0,4.9882,4.9841,4.9783,4.9537,5.0168,5.0853,5.1246,5.2066,5.2902,5.3721,5.3676,5.4061,5.5114,5.43,5.4006,5.4707,5.3601,5.2798,5.2503,5.248,5.248,5.248,5.248,5.248,5.248,5.2559,5.2568,5.2568,5.2694,5.2739,5.2761,5.2739,5.2694,5.259,5.2568,5.2536,5.248,5.248,5.2549,5.2568,5.2568,5.2649,5.2739,5.2739,5.2739,5.2717,0.0,0.0,0.0,0.0,0.0,0.0,0.0,5.259,5.259,5.259,5.2635,5.2658,5.2613,5.2635,5.2739,0.0,0.0,0.0,0.0,0.0,0.0,5.298,5.3017,5.3039,5.3103,5.3103,5.3172,5.3383,0.0,5.3661,5.4016,5.4016,5.4228,5.456,5.456,5.4654,5.4859,5.4859,5.4985,5.5113,5.5113,5.5233,5.5403,5.5403,0.0,0.0,5.5403,5.483,5.3951,5.3072,5.2002,5.0894,5.0436,5.0283,5.0283,5.0283,5.0283,5.0283,5.0283,5.0283,5.0283,5.0283,5.0236,5.0188,5.0188,5.0188,5.0188,5.0188,5.0188,5.0201,5.0089,5.0025,4.9933,4.9797,5.009,5.0485,5.1056,5.1882,5.2744,5.3532,5.3948,5.4565,5.5512,5.4572,5.426,5.5081,5.409,5.331,5.2987,5.2828,5.2708,5.2559,5.2536,5.2581,5.2663,5.2694,5.2717,5.2717,5.2761,5.2828,5.2893,5.2828,5.2806,5.2806,5.2739,5.2694,5.2663,5.2663,5.2672,5.2717,5.2717,5.2761,5.2806,5.2806,5.2806,5.2783,0.0,0.0,0.0,0.0,0.0,0.0,0.0,5.268,5.268,5.268,5.2783,5.2806,5.268,5.2783,5.285,0.0,0.0,0.0,0.0,0.0,0.0,0.0,0.0,0.0,5.3203,0.0,0.0,5.3565,5.3565,0.0,0.0,0.0,0.0,0.0,5.47,5.4918,5.5273,5.5273,5.53,0.0,0.0,5.5403,5.5403,0.0,0.0,0.0,0.0,5.4982,5.4218,5.3148,5.2384,5.1658,5.0627,5.0283,5.0283,5.0283,5.0283,5.0283,5.0283,5.0283,5.0283,5.0283,5.0283,5.0283,5.0283,5.0283,5.0283,5.0283,5.0238,5.0126,5.0126,5.005,4.9973,4.9933,4.9838,5.0066,5.0786,5.1684,5.253,5.333,5.43,5.5148,5.5792,5.5038,5.4775,5.5379,5.4614,5.3941,5.3528,5.3306,5.3072,5.2791,5.2791,5.2769,5.2806,5.301,5.3083,5.3083,5.3383,5.3536,5.3573,5.3536,5.3536,5.3529,5.3383,5.3338,5.3316,5.3316,5.3316,5.3338,5.3338,5.3251,5.3127,5.3127,5.3018,5.2872,0.0,0.0,0.0,0.0,0.0,0.0,0.0,5.2959,5.2959,5.2959,5.2959,5.2959,5.2959,5.2959,5.3039,0.0,0.0,0.0,0.0,0.0,0.0,0.0,0.0,0.0,0.0,0.0,0.0,5.323,5.323,0.0,0.0,0.0,0.0,0.0,0.0,5.4528,5.4836,5.4836,0.0,0.0,0.0,0.0,0.0,0.0,0.0,0.0,0.0,5.5365,5.5021,5.3339,5.2728,5.2422,5.0818,5.0283,5.0283,5.0283,5.0283,5.0283,5.0283,5.0283,5.0283,5.0283,5.0283,5.0283,5.0283,5.0283,5.0283,5.0283,5.0271,5.0259,5.0259,5.0259,5.0212,5.0089,5.005,5.0263,5.0816,5.1773,5.2649,5.333,5.43,5.492,5.4996,5.4928,5.489,5.4966,5.486,5.4528,5.3868,5.3813,5.3664,5.3346,5.3326,5.3178,5.2806,5.3624,5.4093,5.4093,5.5311,5.5702,5.5354,5.5743,5.5639,5.5176,5.5176,5.5085,5.4994,5.4994,5.5062,5.5153,5.5153,5.4781,5.4246,5.4246,5.3769,5.3161,0.0,0.0,0.0,0.0,0.0,0.0,5.298,5.298,5.298,5.298,5.298,5.298,5.298,5.3082,5.3124,5.3203,0.0,0.0,0.0,0.0,0.0,0.0,0.0,0.0,0.0,0.0,5.3203,5.3203,5.3203,0.0,0.0,0.0,0.0,0.0,0.0,5.4242,5.4791,5.4791,0.0,0.0,0.0,0.0,0.0,0.0,0.0,0.0,0.0,0.0,5.5212,5.3989,5.3225,5.2614,5.1467,5.0741,5.0283,5.0283,5.0283,5.0283,5.0283,5.0283,5.0283,5.0283,5.0283,5.0283,5.0283,5.0283,5.0283,5.0283,5.0283,5.0283,5.0283,5.0283,5.0259,5.0212,5.0139,5.0152,5.0375,5.1643,5.2607,5.2892,5.4272,5.5192,5.5192,5.5192,5.5192,5.5192,5.5192,5.5313,5.5504,5.4667,5.4308,5.4522,5.4559,5.4745,5.5208,5.536,5.5529,5.5787,5.6063,5.6231,5.6348,5.65,5.6425,5.6233,5.6233,5.6214,5.6174,5.6174,5.6194,5.6214,5.5969,5.5702,5.5443,5.5205,5.462,5.3901,0.0,0.0,0.0,0.0,0.0,5.306,5.306,5.306,5.306,5.306,5.306,5.306,5.306,5.3124,5.3203,5.3203,5.3203,0.0,0.0,0.0,0.0,0.0,0.0,0.0,0.0,0.0,5.3203,5.3203,5.3203,5.3203,0.0,0.0,5.3334,5.3563,0.0,0.0,0.0,0.0,0.0,0.0,0.0,0.0,0.0,0.0,0.0,0.0,0.0,0.0,0.0,0.0,0.0,5.2652,5.1849,5.1009,5.0283,5.0283,5.0474,5.0627,5.0359,5.0474,5.0627,5.0359,5.0283,5.0283,5.0283,5.0283,5.0283,5.0283,5.0283,5.0283,5.0283,5.0283,5.0283,5.0283,5.02,5.0164,5.0127,5.1383,5.2386,5.2576,5.4027,5.5135,5.5365,5.5403,5.5403,5.5403,5.5403,5.5747,5.6549,5.5631,5.5325,5.5864,5.5885,5.6185,5.679,5.6762,5.6874,5.7148,5.7248,5.736,5.7524,5.7647,5.7629,5.7524,5.7524,5.7524,5.7524,5.7524,5.7524,5.7488,5.7191,5.6946,5.6684,5.6422,5.5817,5.5114,0.0,0.0,0.0,0.0,0.0,0.0,5.3203,5.3203,5.3203,5.3203,5.3203,5.3203,5.3203,5.3203,5.3203,5.3203,5.3203,0.0,0.0,0.0,0.0,0.0,0.0,0.0,0.0,0.0,5.3203,5.3203,5.3203,5.3203,5.3203,5.3203,5.3225,5.3225,0.0,0.0,0.0,0.0,0.0,0.0,0.0,0.0,5.5403,0.0,0.0,0.0,0.0,0.0,0.0,0.0,0.0,0.0,0.0,5.1009,5.0283,5.0283,5.0932,5.1391,5.055,5.0932,5.1391,5.0512,5.0283,5.0283,5.0283,5.0283,5.0283,5.0283,5.0283,5.0283,5.0283,5.0283,5.0283,5.0283,5.0321,5.0236,5.0139,5.0963,5.1877,5.2513,5.3493,5.4448,5.5326,5.5403,5.5403,5.5403,5.5403,5.5747,5.6549,5.6587,5.6796,5.7248,5.7286,5.7127,5.679,5.7599,5.7975,5.8012,5.919,5.9571,5.9178,5.9605,5.9534,5.9178,5.9178,5.9178,5.9178,5.9178,5.9178,5.9178,5.9159,5.8689,5.7975,5.7957,5.7486,5.6772,0.0,0.0,0.0,0.0,0.0,0.0,0.0,5.3203,5.3203,5.3203,5.3203,5.3203,5.3203,5.3203,5.3203,5.3203,5.3203,0.0,0.0,0.0,0.0,0.0,0.0,0.0,0.0,5.3203,5.3203,5.3203,5.3203,5.3203,5.3203,5.3203,5.3203,5.3225,5.3461,5.3814,0.0,0.0,0.0,0.0,0.0,5.5403,5.5403,0.0,0.0,0.0,0.0,0.0,0.0,0.0,0.0,0.0,0.0,0.0,0.0,5.2002,5.1811,5.1532,5.1276,5.1391,5.1544,5.1276,5.0741,5.0283,5.0283,5.0283,5.0283,5.0283,5.0283,5.0283,5.0283,5.0283,5.0283,5.0283,5.0283,5.0309,5.0224,5.1023,5.1863,5.2641,5.4078,5.5097,5.5365,5.5403,5.5403,5.5403,5.5403,5.5747,5.6549,5.716,5.7808,5.8511,5.8511,5.8773,5.9269,5.9246,5.936,5.9635,5.976,5.9874,6.0,6.0144,6.0144,6.0038,6.0038,6.0038,6.0038,6.0038,6.0038,5.9969,5.9744,5.9454,5.9211,5.8911,5.8295,5.7599,0.0,0.0,0.0,0.0,0.0,0.0,0.0,5.3203,5.3203,5.3203,5.3203,5.3203,5.3203,5.3203,5.3203,5.3203,5.3203,0.0,0.0,0.0,0.0,0.0,0.0,0.0,5.3203,5.3203,5.3203,5.3203,5.3203,5.3203,5.3203,5.3203,5.3203,5.3188,5.3563,5.3925,0.0,0.0,0.0,0.0,5.5403,5.5403,5.5403,0.0,0.0,0.0,0.0,0.0,0.0,0.0,0.0,0.0,0.0,0.0,0.0,0.0,5.269,5.2461,5.2155,5.2308,5.2461,5.2117,5.1429,5.0779,5.0779,5.055,5.0283,5.0283,5.0283,5.0283,5.0283,5.0283,5.0283,5.0283,5.0283,5.0283,5.0283,5.0779,5.1544,5.2652,5.4333,5.5403,5.5403,5.5403,5.5403,5.5403,5.5403,5.5747,5.6549,5.7428,5.8268,5.9057,5.9415,5.9835,6.0384,6.0144,6.0144,6.0408,6.0144,6.0144,6.0422,6.0422,6.0422,6.0422,6.0422,6.0422,0.0,6.0422,6.0422,6.0394,6.0129,6.0038,5.9984,5.976,5.9353,5.8916,0.0,0.0,0.0,0.0,0.0,0.0,0.0,5.3203,5.3203,5.3203,5.3203,5.3203,5.3203,5.3203,5.3203,5.3203,0.0,0.0,0.0,0.0,0.0,0.0,0.0,0.0,5.3203,5.3203,5.3203,5.3203,5.3203,5.3203,5.3203,5.3203,5.3188,5.3251,5.3602,5.398,0.0,0.0,0.0,0.0,5.5403,5.5403,0.0,0.0,0.0,0.0,0.0,0.0,0.0,0.0,0.0,0.0,0.0,0.0,0.0,0.0,0.0,0.0,0.0,5.3531,5.3913,5.3072,5.227,5.1697,5.1697,5.1009,0.0,5.0397,5.0359,5.0283,5.0283,5.0283,5.0283,5.0283,5.0283,5.0283,5.0283,5.0397,5.1047,5.2614,5.4333,5.5403,5.5403,5.5403,5.5403,5.5403,5.5403,5.5747,5.6473,5.739,5.823,5.8994,5.9911,6.0422,6.0422,6.0422,6.0422,6.0422,6.0422,6.0422,6.0422,6.0422,6.0422,6.0422,6.0422,6.0422,6.0422,6.0422,6.0422,6.0422,6.0422,6.0422,6.0422,6.0422,6.0422,6.0422,0.0,0.0,0.0,0.0,0.0,0.0,0.0,0.0,0.0,0.0,5.3203,5.3203,5.3203,5.3203,5.3203,0.0,0.0,0.0,0.0,0.0,0.0,0.0,0.0,0.0,5.3203,5.3203,5.3203,5.3203,5.3203,5.3203,5.3203,5.3203,5.3355,5.3622,5.398,5.4511,0.0,0.0,0.0,0.0,5.5403,5.5403,0.0,0.0,0.0,0.0,5.5415,5.5402,0.0,0.0,0.0,0.0,0.0,0.0,0.0,0.0,5.4944,5.5059,5.483,0.0,5.4065,5.3836,5.3148,5.2499,0.0,5.1888,5.1314,5.1314,5.0779,5.0283,5.0283,5.0283,5.0283,5.0283,5.0283,5.0283,5.0283,5.1391,5.2346,5.2728,5.4333,5.5403,5.5403,5.5403,5.5403,5.5403,5.5403,5.5479,5.567,5.7084,5.8001,5.8192,5.9606,6.0422,6.0422,6.0422,6.0422,6.0422,6.0422,6.0422,6.0422,6.0422,6.0422,6.0422,6.0422,6.0422,6.0422,6.0422,6.0422,6.0422,6.0422,6.0422,6.0422,6.0422,6.0422,6.0422,0.0,0.0,0.0,0.0,0.0,0.0,0.0,0.0,0.0,0.0,0.0,0.0,0.0,0.0,0.0,0.0,0.0,0.0,0.0,0.0,0.0,0.0,0.0,5.3203,5.3203,5.3203,5.3203,5.3203,5.3203,5.3203,5.3225,5.3339,5.3524,5.3739,5.4296,5.4859,0.0,0.0,0.0,5.5403,5.5403,0.0,0.0,0.0,0.0,0.0,5.5402,5.5401,0.0,5.5473,5.5497,5.552,0.0,0.0,0.0,0.0,5.5415,5.544,5.5416,5.5059,5.4715,5.4715,5.4027,5.3416,5.3416,5.2766,5.204,5.1697,5.1238,5.0779,5.0359,5.0352,5.0374,5.0294,5.0352,5.0374,5.0294,5.1735,5.2805,5.2805,5.4333,5.5403,5.5403,5.5403,5.5403,5.5403,5.5403,5.5403,5.5403,5.6625,5.7504,5.7886,5.9147,5.9988,6.0422,6.0422,6.0422,6.0422,6.0422,6.0422,6.0422,6.0422,6.0422,6.0422,6.0422,6.0422,6.0422,6.0422,6.0422,6.0422,6.0422,6.0422,6.0422,6.0422,6.0422,6.0422,0.0,0.0,0.0,0.0,0.0,0.0,0.0,0.0,0.0,0.0,0.0,0.0,0.0,0.0,0.0,0.0,0.0,0.0,0.0,0.0,0.0,0.0,5.3203,5.3203,5.3203,5.3203,5.3203,5.3203,5.3203,5.3209,5.3293,5.3583,5.3777,5.3888,5.4607,5.5099,0.0,0.0,5.5403,5.5416,5.5416,0.0,0.0,0.0,0.0,0.0,0.0,0.0,0.0,5.5547,5.5581,5.5626,5.557,0.0,0.0,0.0,0.0,0.0,5.5428,5.5428,5.5428,5.5416,5.4842,5.4307,5.4307,5.3619,5.2805,5.2117,5.1761,5.1391,5.0662,5.0495,5.0423,5.034,5.0429,5.0413,5.0306,5.1735,5.2805,5.2805,5.4333,5.5403,5.5403,5.5403,5.5403,5.5403,5.5403,5.5403,5.5403,5.6167,5.7008,5.7886,5.8689,5.9529,6.0384,6.0422,6.0422,6.0422,6.0422,6.0422,6.0422,6.0422,6.0422,6.0422,6.0422,6.0422,6.0422,6.0422,6.0422,6.0422,6.0422,6.0422,6.0422,6.0422,6.0422,6.0422,0.0,0.0,0.0,0.0,0.0,0.0,0.0,0.0,0.0,0.0,0.0,0.0,0.0,0.0,0.0,0.0,0.0,0.0,0.0,0.0,0.0,5.3203,5.3203,5.3203,5.3203,5.3203,5.3203,5.3203,5.3203,5.3375,5.3604,5.3682,5.4033,5.467,5.5113,5.5364,5.5403,5.5403,5.539,5.5402,5.5402,0.0,0.0,0.0,0.0,0.0,0.0,0.0,0.0,5.566,5.5682,5.5692,5.5682,0.0,0.0,0.0,0.0,0.0,5.5499,5.5488,5.5476,5.5415,5.5287,5.5211,5.5211,5.4523,5.3874,5.376,5.2575,5.1591,5.1557,5.0905,5.0363,5.0445,5.0396,5.0317,5.0283,5.1735,5.2805,5.2805,5.4333,5.5403,5.5403,5.5403,5.5403,5.5403,5.5403,5.5403,5.5403,5.6167,5.7008,5.7886,5.8689,5.9529,6.0384,6.0422,6.0422,6.0422,6.0422,6.0422,6.0422,6.0422,6.0422,6.0422,6.0422,6.0422,6.0422,6.0422,6.0422,6.0422,6.0422,6.0422,6.0422,6.0422,6.0422,6.0422,0.0,0.0,0.0,0.0,0.0,0.0,0.0,0.0,0.0,0.0,0.0,0.0,0.0,0.0,0.0,0.0,0.0,0.0,0.0,0.0,5.3203,5.3203,5.3203,5.3203,5.3203,5.338,5.3464,5.3464,5.368,5.3851,5.4034,5.419,5.4585,5.5105,5.5326,5.544,5.5427,5.5427,5.5451,5.5437,0.0,0.0,0.0,0.0,0.0,0.0,0.0,0.0,0.0,0.0,5.5703,5.5703,5.5703,0.0,0.0,0.0,0.0,0.0,5.5497,5.5621,5.571,5.5619,5.5588,5.5577,5.563,5.536,5.4923,5.4334,5.3621,5.2801,5.1956,5.1478,5.1115,5.0803,5.0557,5.0429,5.0429,5.1794,5.2805,5.2805,5.4333,5.5403,5.5403,5.5403,5.5403,5.5403,5.5403,5.5403,5.5403,5.5747,5.6549,5.7848,5.8268,5.9071,6.0384,6.0422,6.0422,6.0422,6.0422,6.0422,6.0422,6.0422,6.0422,6.0422,6.0422,6.0422,6.0422,6.0422,6.0422,6.0422,6.0422,6.0422,6.0422,6.0422,6.0422,6.0422,0.0,0.0,0.0,0.0,0.0,0.0,0.0,0.0,0.0,0.0,0.0,0.0,0.0,0.0,0.0,0.0,0.0,0.0,0.0,5.3203,5.323,5.3339,5.3339,5.3318,5.3334,5.3583,5.3758,5.3851,5.4176,5.438,5.4479,5.4821,5.5119,5.5413,5.5413,5.5437,5.5485,5.5485,5.5497,5.5508,0.0,0.0,0.0,0.0,0.0,0.0,0.0,0.0,0.0,0.0,0.0,0.0,0.0,0.0,0.0,5.572,5.575,5.576,5.5679,5.5788,5.5954,5.5932,5.5827,5.5822,5.5883,5.593,5.5685,5.4882,5.4534,5.3985,5.2684,5.2213,5.1756,5.0982,5.069,5.0557,5.0557,5.1869,5.2839,5.2839,5.4358,5.5403,5.5403,5.5403,5.5403,5.5403,5.5403,5.5403,5.5403,5.5403,5.6167,5.7848,5.7886,5.8689,6.037,6.0422,6.0422,6.0422,6.0422,6.0422,6.0422,6.0422,6.0422,6.0422,6.0422,6.0422,6.0422,6.0422,6.0422,6.0422,6.0422,6.0422,6.0422,6.0422,6.0422,6.0422,0.0,0.0,0.0,0.0,0.0,0.0,0.0,0.0,0.0,0.0,0.0,0.0,0.0,0.0,0.0,0.0,0.0,0.0,0.0,5.3203,5.338,5.3739,5.3777,5.372,5.3662,5.3682,5.3906,5.4343,5.4359,5.4585,5.4957,5.5275,5.5449,5.5473,5.5473,5.5511,5.5485,5.5485,5.5558,5.5604,5.5604,0.0,0.0,0.0,0.0,0.0,0.0,0.0,0.0,0.0,0.0,0.0,0.0,0.0,5.5904,5.6022,5.6064,5.6064,5.6057,5.6071,5.611,5.6222,5.6108,5.5984,5.5991,5.6001,5.5971,5.5878,5.5227,5.4622,5.4418,5.3095,5.1692,5.0711,5.0605,5.0687,5.0687,5.201,5.2971,5.2971,5.4393,5.5403,5.5403,5.5403,5.5403,5.5403,5.5403,5.5403,5.5403,5.5403,5.6167,5.7848,5.7886,5.8689,6.037,6.0422,6.0422,6.0422,6.0422,6.0422,6.0422,6.0422,6.0422,6.0422,6.0422,6.0422,6.0422,6.0422,6.0422,6.0422,6.0422,6.0422,6.0422,6.0422,6.0422,6.0422,0.0,0.0,0.0,0.0,0.0,0.0,0.0,0.0,0.0,0.0,0.0,0.0,0.0,0.0,0.0,0.0,0.0,0.0,0.0,5.3833,5.4086,5.4221,5.4238,5.4322,5.45,5.45,5.4579,5.4783,5.4971,5.5172,5.5301,5.5437,5.5508,5.5543,5.5543,5.5604,5.5638,5.5638,5.5649,5.5671,5.5671,5.5682,0.0,0.0,0.0,0.0,0.0,0.0,0.0,0.0,5.587,5.597,5.5993,5.6015,5.6022,5.6084,5.6097,5.6097,5.6097,5.6158,5.6222,5.6303,5.6359,5.6359,5.6329,5.6315,5.6285,5.6149,5.5858,5.545,5.4823,5.3374,5.2119,5.1726,5.1231,5.0898,5.0898,5.221,5.3156,5.3003,5.4472,5.5502,5.5416,5.5403,5.5403,5.5403,5.5403,5.5403,5.5403,5.5403,5.6167,5.7848,5.7886,5.8689,6.037,6.0422,6.0422,6.0422,6.0422,6.0422,6.0422,6.0422,6.0422,6.0422,6.0422,6.0422,6.0422,6.0422,6.0422,6.0422,6.0422,6.0422,6.0422,6.0422,6.0422,6.0422,0.0,0.0,0.0,0.0,0.0,0.0,0.0,0.0,0.0,0.0,0.0,0.0,0.0,0.0,0.0,0.0,0.0,0.0,5.4013,5.4322,5.4547,5.4671,5.4686,5.4848,5.5199,5.5199,5.5224,5.5211,5.5449,5.5543,5.5543,5.5543,5.5604,5.5649,5.5649,5.5671,5.5703,5.5703,5.5703,5.5703,5.5703,5.5703,0.0,0.0,0.0,0.0,0.0,0.0,0.0,0.0,5.6015,5.6104,5.6146,5.6158,5.6169,5.6241,5.6251,5.6251,5.6251,5.6303,5.6386,5.6386,5.65,5.6602,5.6542,5.6539,5.6482,5.6333,5.6285,5.5925,5.5003,5.3922,5.3106,5.2796,5.2039,5.1477,5.1449,5.2546,5.3308,5.3157,5.4647,5.561,5.5523,5.549,5.5453,5.5453,5.5441,5.5403,5.5403,5.5403,5.6167,5.7848,5.7886,5.8689,6.037,6.0422,6.0422,6.0422,6.0422,6.0422,6.0422,6.0422,6.0422,6.0422,6.0422,6.0422,6.0422,6.0422,6.0422,6.0422,6.0422,6.0422,6.0422,6.0422,6.0422,6.0422,0.0,0.0,0.0,0.0,0.0,0.0,0.0,0.0,0.0,0.0,0.0,0.0,0.0,0.0,0.0,0.0,0.0,0.0,5.4468,5.45,5.4686,5.5094,5.5121,5.5275,5.5703,5.5703,5.5682,5.5615,5.5682,5.5703,5.5703,5.5703,5.5703,5.5703,5.5703,5.5703,5.5703,5.5703,5.5703,5.5703,5.5703,5.5703,5.5714,0.0,0.0,0.0,0.0,0.0,0.0,0.0,5.6097,5.6122,5.6242,5.6312,5.6328,5.6553,5.6606,5.6606,5.6606,5.6606,5.6606,5.6606,5.6606,5.6606,5.6606,5.6606,5.6606,5.6606,5.6429,5.6028,5.5086,5.4914,5.4588,5.3676,5.295,5.2485,5.2418,5.3053,5.3515,5.3515,5.4877,5.5798,5.5798,5.5686,5.5588,5.5588,5.5477,5.5403,5.5403,5.5403,5.6167,5.7848,5.7886,5.8689,6.037,6.0422,6.0422,6.0422,6.0422,6.0422,6.0422,6.0422,6.0422,6.0422,6.0422,6.0422,6.0422,6.0422,6.0422,6.0422,6.0422,6.0422,6.0422,6.0422,6.0422,6.0422,0.0,0.0,0.0,0.0,0.0,0.0,0.0,0.0,0.0,0.0,0.0,0.0,0.0,0.0,0.0,0.0,0.0,0.0,5.4905,5.5186,5.5399,5.5531,5.5531,5.5577,5.5703,5.5703,5.5703,5.5682,5.5703,5.5703,5.5703,5.5703,5.5703,5.5703,5.5703,5.5703,5.5703,5.5703,5.5703,5.5703,5.5703,5.5758,5.5845,0.0,0.0,0.0,0.0,0.0,0.0,0.0,0.0,0.0,5.6497,5.6503,5.6509,5.6563,5.6606,5.6606,5.6606,5.6606,5.6606,5.6606,5.6606,5.6606,5.6606,5.6606,5.6606,5.6606,5.6533,5.6379,5.6094,5.5485,5.4942,5.4679,5.3969,5.3472,5.3374,5.408,5.4563,5.4429,5.5358,5.5962,5.5861,5.587,5.5887,5.5887,5.5721,5.5626,5.5621,5.5499,5.618,5.7848,5.7886,5.8689,6.037,6.0422,6.0398,6.0491,6.0491,6.0491,6.0491,6.0491,6.0518,6.052,6.052,6.052,6.052,6.052,6.052,6.052,6.052,6.052,6.052,6.0504,6.048,6.052,0.0,0.0,0.0,0.0,0.0,0.0,0.0,0.0,0.0,0.0,5.338,5.3444,0.0,0.0,0.0,0.0,0.0,0.0,0.0,5.5566,5.5703,5.5703,5.5703,5.5703,5.5703,5.5703,5.5703,5.5703,5.5703,5.5703,5.5703,5.5703,5.5703,5.5703,5.5703,5.5703,5.5714,5.5758,5.5798,5.576,5.5845,5.5904,5.5994,0.0,0.0,0.0,0.0,0.0,0.0,0.0,0.0,0.0,5.6606,5.6606,5.6606,5.6606,5.6606,5.6606,5.6606,5.6606,5.6606,5.6606,5.6606,5.6606,5.6606,5.6606,5.6606,5.6606,5.6553,5.6539,5.6485,5.6049,5.5688,5.5615,5.4925,5.4375,5.4324,5.4787,5.5068,5.4938,5.5695,5.62,5.6096,5.6089,5.6089,5.6089,5.5924,5.5814,5.5825,5.5701,5.622,5.7515,5.7899,5.8704,6.0009,6.0393,6.0621,6.0723,6.0723,6.0696,6.0745,6.0597,6.0546,6.0585,6.0585,6.0585,6.0585,6.0585,6.0585,6.0585,6.0585,6.0585,6.061,6.0533,6.0584,6.0572,0.0,0.0,0.0,0.0,0.0,0.0,0.0,0.0,0.0,0.0,5.3541,5.3699,0.0,0.0,0.0,0.0,0.0,0.0,0.0,5.5703,5.5703,5.5703,5.5703,5.5703,5.5703,5.5703,5.5703,5.5703,5.5703,5.5703,5.5703,5.5703,5.5703,5.5703,5.5703,5.5714,5.5707,5.5855,5.5896,5.593,5.6044,5.6104,5.6116,5.6116,0.0,0.0,0.0,0.0,0.0,0.0,0.0,0.0,5.6606,5.6606,5.6606,5.6606,5.6606,5.6606,5.6606,5.6606,5.6606,5.6606,5.6606,5.6606,5.6606,5.6606,5.6606,5.6606,5.6606,5.6599,5.6533,5.655,5.655,5.6453,5.5808,5.5311,5.5233,5.5225,5.5225,5.5221,5.5926,5.6394,5.6394,5.6295,5.6253,5.6253,5.6123,5.6015,5.6008,5.5993,5.6303,5.7004,5.7776,5.8625,5.9523,6.0295,6.0819,6.0995,6.0995,6.105,6.112,6.0779,6.0648,6.0635,6.0635,6.0623,6.0636,6.0636,6.0636,6.0636,6.0636,6.0636,6.0597,6.0623,6.0635,6.0635,0.0,0.0,0.0,0.0,0.0,0.0,0.0,0.0,0.0,0.0,0.0,0.0,0.0,0.0,0.0,0.0,0.0,0.0,0.0,5.5703,5.5703,5.5703,5.5703,5.5703,5.5703,5.5703,5.5703,5.5703,5.5703,5.5703,5.5703,5.5703,5.5703,5.5703,5.5703,5.5758,5.5873,5.587,5.597,5.605,5.6084,5.6158,5.6281,5.6281,0.0,0.0,0.0,0.0,0.0,0.0,0.0,0.0,5.6606,5.6606,5.6606,5.6606,5.6606,5.6606,5.6606,5.6606,5.6606,5.6606,5.6606,5.6606,5.6606,5.6606,5.6606,5.6606,5.6606,5.6604,5.6599,5.6602,5.6602,5.6553,5.6399,5.6277,5.6205,5.6198,5.6188,5.6121,5.634,5.6471,5.6471,5.6488,5.6497,5.6497,5.6351,5.6251,5.623,5.6091,5.635,5.7124,5.7357,5.817,5.9727,5.9913,6.0381,6.1074,6.1074,6.1097,6.1172,6.1056,6.0973,6.0895,6.0895,6.0839,6.0746,6.0746,6.0746,6.0746,6.0746,6.0746,6.0757,6.0828,6.0864,6.0915,0.0,0.0,0.0,0.0,0.0,0.0,0.0,0.0,0.0,0.0,0.0,0.0,0.0,0.0,0.0,0.0,0.0,0.0,0.0,0.0,5.6137,5.5703,5.5703,5.5703,5.5703,5.5703,5.5703,5.5703,5.5703,5.5703,5.5703,5.5703,5.5703,5.5714,5.5778,5.5836,5.5904,5.6029,5.6128,5.6191,5.6281,5.6367,5.6443,5.6443,5.6503,0.0,5.6606,0.0,0.0,0.0,0.0,0.0,0.0,0.0,5.6606,5.6606,5.6606,5.6606,5.6606,5.6606,5.6606,5.6606,5.6606,5.6606,5.6606,5.6606,5.6606,5.6606,5.6606,5.6606,5.6606,5.6606,5.6606,5.6606,5.6606,5.6602,5.6548,5.6545,5.6539,5.6485,5.6536,5.6545,5.6545,5.6597,5.6606,5.6606,5.6503,5.6439,5.6429,5.6347,5.6446,5.6763,5.7184,5.8039,5.9367,5.9789,6.0454,6.1383,6.1383,6.1393,6.1442,6.1227,6.112,6.1095,6.1095,6.1044,6.0993,6.0993,6.0993,6.0993,6.0993,6.0993,6.1002,6.1036,6.1079,6.1112,0.0,0.0,0.0,0.0,0.0,0.0,0.0,0.0,0.0,0.0,0.0,0.0,0.0,0.0,0.0,0.0,0.0,0.0,0.0,0.0,0.0,5.6165,5.6011,5.5934,5.5934,5.578,5.5703,5.5703,5.5703,5.5724,5.5728,5.5728,5.5728,5.5738,5.5861,5.5954,5.5963,5.6197,5.632,5.6375,5.6511,5.6606,5.6606,5.6606,5.6606,5.6606,5.6606,5.6606,5.6606,5.6606,0.0,0.0,0.0,0.0,5.6606,5.6606,5.6606,5.6606,5.6606,5.6606,5.6606,5.6606,5.6606,5.6606,5.6606,5.6606,5.6606,5.6606,5.6606,5.6606,5.6606,5.6606,5.6606,5.6606,5.6606,5.6606,5.6606,5.6606,5.6606,5.6606,5.6606,5.6606,5.6606,5.6606,5.6606,5.6606,5.6606,5.6606,5.6606,5.6606,5.6509,5.6375,5.7065,5.7844,5.8714,5.9564,6.0496,6.1483,6.164,6.1718,6.1676,6.1427,6.1285,6.1266,6.1266,6.1214,6.1186,6.1186,6.1186,6.1186,6.1186,6.1186,6.1193,6.1259,6.1266,6.1266,0.0,0.0,0.0,0.0,0.0,0.0,0.0,0.0,0.0,0.0,5.4948,5.5799,0.0,0.0,0.0,0.0,0.0,0.0,0.0,0.0,0.0,5.7973,5.7242,5.683,5.683,5.6088,5.5703,5.5703,5.5703,5.5768,5.5852,5.5852,5.5852,5.5861,5.6001,5.6135,5.6232,5.626,5.639,5.6558,5.6604,5.6606,5.6606,5.6606,5.6606,5.6606,5.6606,5.6606,5.6606,5.6606,5.6606,0.0,0.0,0.0,5.6606,5.6606,5.6606,5.6606,5.6606,5.6606,5.6606,5.6606,5.6606,5.6606,5.6606,5.6606,5.6606,5.6606,5.6606,5.6606,5.6606,5.6606,5.6606,5.6606,5.6606,5.6606,5.6606,5.6606,5.6606,5.6606,5.6606,5.6606,5.6606,5.6606,5.6606,5.6606,5.6606,5.6606,5.6606,5.6606,5.6602,5.6558,5.6672,5.7102,5.7924,5.8819,5.9683,6.0588,6.133,6.1718,6.1718,6.1666,6.1584,6.1471,6.1471,6.1373,6.1186,6.1186,6.1186,6.1186,6.1186,6.1186,6.1207,6.1395,6.1471,6.1481,0.0,0.0,0.0,0.0,0.0,0.0,0.0,0.0,0.0,0.0,0.0,5.702,0.0,0.0,0.0,5.8319,0.0,0.0,0.0,0.0,0.0,5.8319,5.7934,5.7742,5.7742,5.6857,5.6459,5.6541,5.604,5.587,5.6001,5.6084,5.6078,5.6008,5.6146,5.6232,5.6312,5.6436,5.6506,5.6606,5.6606,5.6606,5.6606,5.6606,5.6606,5.6606,5.6606,5.6606,5.6606,5.6606,5.6606,5.6606,5.6606,0.0,0.0,0.0,5.6606,5.6606,5.6606,5.6606,5.6606,5.6606,5.6606,5.6606,5.6606,5.6606,5.6606,5.6606,5.6606,5.6606,5.6606,5.6606,5.6606,5.6606,5.6606,5.6606,5.6606,5.6606,5.6606,5.6606,5.6606,5.6606,5.6606,5.6606,5.6606,5.6606,5.6606,5.6606,5.6606,5.6606,5.6606,5.6606,5.6606,5.6996,5.7777,5.8675,5.9768,6.1134,6.1522,6.1718,6.1718,6.1718,6.1666,6.1602,6.1602,6.1541,6.147,6.147,6.147,6.147,6.147,6.147,6.1474,6.1588,6.1914,6.2347,0.0,0.0,0.0,0.0,0.0,0.0,0.0,0.0,0.0,0.0,0.0,0.0,0.0,0.0,0.0,0.0,5.9473,0.0,0.0,0.0,0.0,5.8934,5.8704,5.8611,5.8676,5.7839,5.7439,5.7589,5.6698,5.6357,5.6463,5.6354,5.6285,5.6236,5.6312,5.6383,5.6386,5.655,5.6606,5.6606,5.6606,5.6606,5.6606,5.6606,5.6606,5.6606,5.6606,5.6606,5.6606,5.6606,5.6606,5.6606,5.6606,5.6606,0.0,0.0,0.0,5.6606,5.6606,5.6606,5.6606,5.6606,5.6606,5.6606,5.6606,5.6606,5.6606,5.6606,5.6606,5.6606,5.6606,5.6606,5.6606,5.6606,5.6606,5.6606,5.6606,5.6606,5.6606,5.6606,5.6606,5.6606,5.6606,5.6606,5.6606,5.6606,5.6606,5.6606,5.6606,5.6606,5.6606,5.6606,5.6606,5.6879,5.7504,5.8558,5.9961,6.1718,6.1718,6.1718,6.1718,6.1718,6.1718,6.1718,6.1718,6.1718,6.1718,6.1718,6.1718,6.1718,6.1718,6.1835,6.2032,6.2032,6.2579,6.3321,0.0,0.0,0.0,0.0,0.0,0.0,0.0,0.0,0.0,0.0,0.0,0.0,5.9022,6.0021,6.0666,6.0666,6.0704,6.0742,6.0742,6.0704,0.0,6.0666,5.9896,0.0,5.9707,5.8874,5.8505,5.8629,5.7729,5.7408,5.7511,5.6697,5.639,5.6558,5.6563,5.6563,5.6602,5.6604,5.6606,5.6606,5.6606,5.6606,5.6606,5.6606,5.6606,5.6606,5.6606,5.6606,5.6606,5.6606,5.6606,5.6606,5.6606,5.6606,5.6606,0.0,0.0,0.0,5.6606,5.6606,5.6606,5.6606,5.6606,5.6606,5.6606,5.6606,5.6606,5.6606,5.6606,5.6606,5.6606,5.6606,5.6606,5.6606,5.6606,5.6606,5.6606,5.6606,5.6606,5.6606,5.6606,5.6606,5.6606,5.6606,5.6606,5.6606,5.6606,5.6606,5.6606,5.6606,5.6606,5.6606,5.6606,5.6606,5.6645,5.8285,5.9961,6.1718,6.1718,6.1718,6.1718,6.1718,6.1718,6.1718,6.1718,6.1718,6.1718,6.1718,6.1718,6.1718,6.1718,6.2189,6.293,6.293,6.3477,6.4221,0.0,0.0,0.0,0.0,0.0,0.0,0.0,0.0,0.0,0.0,0.0,0.0,0.0,6.0541,6.0781,6.0781,6.0781,6.0781,6.0781,6.0781,0.0,6.0781,6.0512,6.0393,6.0567,5.9764,5.9429,5.9674,5.8778,5.8172,5.7775,5.7417,5.7031,5.6616,5.6608,5.6606,5.6606,5.6606,5.6606,5.6606,5.6606,5.6606,5.6606,5.6606,5.6606,5.6606,5.6606,5.6606,5.6606,5.6606,5.6606,5.6606,5.6606,5.6606,5.6606,5.6606,5.6606,5.6606,5.6606,5.6606,5.6606,5.6606,5.6606,5.6606,5.6606,5.6606,5.6606,5.6606,5.6606,5.6606,5.6606,5.6606,5.6606,5.6606,5.6606,5.6606,5.6606,5.6606,5.6606,5.6606,5.6606,5.6606,5.6606,5.6606,5.6606,5.6606,5.6606,5.6606,5.6606,5.6606,5.6606,5.6606,5.6606,5.7113,5.8204,5.9339,6.0549,6.1718,6.1718,6.1718,6.1718,6.1718,6.1718,6.1718,6.1718,6.1718,6.1718,6.1718,6.1718,6.1757,6.2306,6.2735,6.3086,6.3633,6.4375,6.5116,0.0,0.0,0.0,0.0,0.0,0.0,0.0,0.0,0.0,5.9439,0.0,0.0,0.0,0.0,6.0781,6.0781,6.0781,6.0781,6.0781,6.0781,6.0781,6.0781,6.0823,6.0933,6.1053,6.0297,6.0197,6.0708,5.9541,5.8905,5.8741,5.8112,5.7522,5.6973,5.6735,5.6612,5.6606,5.6606,5.6608,5.661,5.661,5.661,5.661,5.661,5.6608,5.6606,5.661,5.661,5.6612,5.6614,5.6614,5.661,5.661,5.6608,5.6606,5.6606,5.6606,5.6606,5.6606,5.6606,5.6606,5.6606,5.6606,5.6606,5.6606,5.6606,5.6606,5.6606,5.6606,5.6606,5.6606,5.6606,5.6606,5.6606,5.6606,5.6606,5.6606,5.6606,5.6606,5.6606,5.6606,5.6606,5.6606,5.6606,5.6606,5.6606,5.6606,5.6606,5.6606,5.6606,5.6606,5.6606,5.6879,5.7699,5.9102,5.9963,6.0822,6.1718,6.1718,6.1718,6.1718,6.1718,6.1718,6.1718,6.1718,6.1718,6.1718,6.1718,6.1874,6.2189,6.2774,6.336,6.3945,6.4531,6.5273,6.6014,0.0,0.0,0.0,0.0,0.0,0.0,0.0,0.0,5.9937,6.0265,0.0,0.0,0.0,0.0,0.0,6.0781,6.0781,6.0781,6.0781,6.0793,6.0793,6.0793,0.0,0.0,6.1193,6.0578,6.0726,6.1697,6.002,5.9595,6.0343,5.8741,5.7918,5.7755,5.698,5.6624,5.6606,5.6606,5.6612,5.658,5.658,5.6582,5.6582,5.6582,5.6616,5.6608,5.6618,5.6582,5.6584,5.6591,5.6588,5.6582,5.6582,5.6614,5.6606,5.6606,5.6606,5.6606,0.0,0.0,0.0,5.6606,5.6606,5.6606,5.6606,5.6606,5.6606,5.6606,5.6606,5.6606,5.6606,5.6606,5.6606,5.6606,5.6606,5.6606,5.6606,5.6606,5.6606,5.6606,5.6606,5.6606,5.6606,5.6606,5.6606,5.6606,5.6606,5.6606,5.6606,5.6606,5.6606,5.6606,5.7426,5.8246,5.9102,6.0002,6.0861,6.1718,6.1718,6.1718,6.1718,6.1718,6.1718,6.1718,6.1718,6.1718,6.1718,6.1718,6.2228,6.3008,6.3047,6.4101,6.5585,6.5624,6.6131,6.6795,0.0,0.0,0.0,0.0,0.0,5.8569,5.9197,5.9592,6.0015,0.0,0.0,0.0,6.0781,6.0781,6.0781,6.0781,6.0781,6.0781,6.0781,6.0899,6.0953,6.0953,6.107,6.1232,6.1406,6.1242,6.1311,6.1697,6.1229,6.0768,6.0387,5.9915,5.9055,5.7846,5.7605,5.713,5.6616,5.6616,5.6614,5.661,5.661,5.6614,5.6582,5.6582,5.6584,5.6588,5.6589,5.6591,5.6591,5.6592,5.6588,5.658,5.6612,5.6608,5.6606,5.6606,5.6606,5.6606,5.6606,0.0,0.0,0.0,0.0,0.0,5.6606,5.6606,5.6606,5.6606,5.6606,5.6606,5.6606,5.6606,5.6606,5.6606,5.6606,5.6606,5.6606,5.6606,5.6606,5.6606,5.6606,5.6606,5.6606,5.6606,5.6606,5.6606,5.6606,5.6606,5.6606,5.6606,5.6606,5.6606,5.7972,5.887,5.9102,6.0588,6.1444,6.1718,6.1718,6.1718,6.1718,6.1718,6.1718,6.1718,6.1718,6.1718,6.1757,6.2384,6.2774,6.3125,6.4375,6.5194,6.5663,6.6249,6.66,6.6795,0.0,0.0,0.0,5.8773,5.8925,5.9178,5.9884,6.003,6.0208,0.0,0.0,0.0,6.0781,6.0781,6.0781,6.0781,6.0781,6.0827,6.0888,6.0973,6.1039,6.1079,6.1239,6.1384,6.149,6.1218,6.1264,6.1697,6.1346,6.1082,6.0935,6.058,5.9876,5.8941,5.8504,5.7874,5.709,5.7132,5.6935,5.6618,5.6618,5.6585,5.6591,5.6591,5.6592,5.6593,5.6595,5.6596,5.6597,5.6598,5.6594,5.6585,5.6616,5.6608,5.6606,5.6606,5.6606,5.6606,5.6606,5.6606,5.6606,5.6606,0.0,0.0,5.6606,5.6606,5.6606,5.6606,5.6606,5.6606,5.6606,5.6606,5.6606,5.6606,5.6606,5.6606,5.6606,5.6606,5.6606,5.6606,5.6606,5.6606,5.6606,5.6606,5.6723,5.7074,5.6801,5.6606,5.6606,5.6606,5.6762,5.7074,5.8402,5.9261,5.9651,6.1015,6.1718,6.1718,6.1718,6.1718,6.1718,6.1718,6.1718,6.1718,6.1718,6.1913,6.2306,6.3164,6.3555,6.3672,6.5077,6.5819,6.617,6.6639,6.6795,6.6795,0.0,0.0,5.8821,5.914,5.9215,5.943,6.0208,6.0293,6.0403,0.0,6.0781,6.0781,6.0781,6.0781,6.0781,6.0781,6.0804,6.0877,6.0983,6.1039,6.1103,6.1246,6.1412,6.1504,6.1504,6.0873,6.0905,6.1696,6.0915,6.0923,6.1677,6.0929,6.0498,6.0383,5.96,5.8776,5.7952,5.7996,5.7608,5.6867,5.6788,5.6674,5.6599,5.6716,5.6675,5.6595,5.6599,5.66,5.66,5.6601,5.66,5.6593,5.6585,5.6616,5.6608,5.6608,5.6606,5.6606,5.6606,5.6606,5.6606,5.6606,5.6606,0.0,5.6606,5.6606,5.6606,5.6606,5.6606,5.6606,5.6606,5.6606,5.6606,5.6606,5.6606,5.6606,5.6606,5.6606,5.6606,5.6606,5.6606,5.6606,5.6606,5.6606,5.6918,5.7738,5.7153,5.6684,5.6606,5.6606,5.6957,5.7777,5.8636,5.9534,6.0393,6.1252,6.1718,6.1718,6.1718,6.1718,6.1718,6.1718,6.1718,6.1718,6.1796,6.2267,6.3086,6.4062,6.4455,6.4533,6.539,6.617,6.6795,6.6795,6.6795,6.6795,0.0,5.8698,5.8821,5.914,5.9215,5.943,6.0208,6.0293,6.0403,6.0757,6.0781,6.0781,6.0781,6.0781,6.0781,6.0781,6.092,6.0954,6.0993,6.1264,6.1395,6.1461,6.1588,6.1663,6.1663,6.1517,6.1525,6.1683,6.1527,6.1536,6.1702,6.1545,6.1082,6.0388,6.0227,5.968,5.8902,5.8899,5.8783,5.8629,5.7923,5.7221,5.6677,5.738,5.7225,5.6601,5.6601,5.6601,5.6601,5.6601,5.6599,5.6597,5.6593,5.6585,5.6618,5.6618,5.6612,5.6606,5.6606,5.6606,5.6606,5.6606,5.6606,0.0,5.6606,5.6606,5.6606,5.6606,5.6606,5.6606,5.6606,5.6606,5.6606,5.6606,5.6606,5.6606,5.6606,5.6606,5.6606,5.6606,5.6606,5.6606,5.6606,5.6606,5.6918,5.7738,5.766,5.727,5.6645,5.6606,5.6957,5.7777,5.8636,5.9534,6.0393,6.1252,6.1718,6.1718,6.1718,6.1718,6.1718,6.1718,6.1718,6.1757,6.2423,6.2852,6.3125,6.4687,6.5351,6.5429,6.6249,6.6678,6.6795,6.6795,6.6795,6.6795,5.8698,5.8825,5.9064,5.9432,5.9656,5.9946,6.0481,6.0546,6.0597,6.0769,6.0781,6.0781,6.0781,6.0781,6.0781,6.0781,6.0913,6.1039,6.1095,6.1355,6.1513,6.1591,6.1674,6.169,6.169,6.1694,6.1696,6.1696,6.1696,6.1702,6.1709,6.1705,6.1475,6.1052,6.1048,6.058,5.9802,5.9762,5.9528,5.9179,5.8707,5.8278,5.7929,5.8398,5.8281,5.789,5.789,5.7617,5.7265,5.7265,5.6952,5.6599,5.6595,5.6588,5.658,5.6614,5.661,5.6606,5.6606,5.6606,5.6606,5.6606,5.6606,0.0,0.0,5.6606,5.6606,5.6606,5.6606,5.6606,5.6606,5.6606,5.6606,5.6606,5.6606,5.6606,5.6606,5.6606,5.6606,5.6606,5.6606,5.6606,5.6606,5.6606,5.6762,5.7153,5.7972,5.7894,5.6684,5.6996,5.7582,5.8402,5.93,6.0159,6.1056,6.1483,6.1718,6.1718,6.1718,6.1718,6.1718,6.1718,6.1952,6.2384,6.2813,6.3477,6.4375,6.5234,6.5858,6.6249,6.6639,6.6795,6.6795,6.6795,6.6795,6.6795,5.8905,5.914,5.945,5.982,6.0135,6.039,6.0746,6.0781,6.0781,6.0781,6.0781,6.0781,6.0781,6.0781,6.0781,6.0781,6.0953,6.1079,6.1179,6.1412,6.1588,6.1718,6.1692,6.1697,6.1697,6.1705,6.1709,6.1709,6.1709,6.1711,6.1716,6.1711,6.1712,6.1716,6.1713,6.1324,6.0663,6.0663,6.0273,5.9687,5.9686,5.9491,5.9219,5.9375,5.9336,5.9219,5.9219,5.875,5.8164,5.8164,5.7695,5.7069,5.6909,5.6865,5.6816,5.6653,5.6608,5.6606,5.6606,5.6606,5.6606,5.6606,5.6606,5.6606,0.0,0.0,0.0,5.6606,5.6606,5.6606,5.6606,5.6606,5.6489,5.6138,5.6372,5.6489,5.6138,5.6372,5.6606,5.6606,5.6606,5.6606,5.6606,5.6879,5.6957,5.6606,5.8168,5.836,5.6684,5.7348,5.8207,5.9063,5.9963,6.0822,6.1679,6.1718,6.1718,6.1718,6.1718,6.1718,6.1718,6.1718,6.2189,6.3008,6.3164,6.414,6.5624,6.578,6.6209,6.6795,6.6795,6.6795,6.6795,6.6795,6.6795,6.6795,5.9694,5.9727,5.982,6.0194,6.0279,6.039,6.0746,6.0781,6.0781,6.0781,6.0781,6.0781,6.0781,6.0781,6.0781,6.0781,6.1009,6.1172,6.1186,6.1517,6.1674,6.1718,6.1692,6.1697,6.1697,6.1705,6.1709,6.1709,6.1709,6.1709,6.171,6.1709,6.1712,6.1717,6.1716,6.1639,6.1562,6.1562,6.1484,6.1406,6.1406,6.0547,5.9297,6.0,5.9805,5.9219,5.9219,5.914,5.9062,5.9062,5.8984,5.8789,5.8008,5.7731,5.7607,5.6825,5.658,5.6606,5.6606,5.6606,5.6606,5.6606,5.6606,5.6606,5.6606,0.0,5.6606,5.6606,0.0,5.6606,5.6606,0.0,0.0,5.4537,5.5591,5.6059,5.4498,5.563,5.6606,5.6606,5.6606,5.6606,5.6606,5.7933,5.8207,5.6723,5.8168,5.836,5.6684,5.7348,5.8207,5.9063,5.9963,6.0822,6.1679,6.1718,6.1718,6.1718,6.1718,6.1718,6.1718,6.1718,6.2189,6.3047,6.3828,6.4687,6.5663,6.6366,6.6717,6.6795,6.6795,6.6795,6.6795,6.6795,6.6795,6.6795,5.9858,5.9969,6.015,6.0279,6.0481,6.0622,6.0769,6.0781,6.0781,6.0781,6.0781,6.0781,6.0781,6.0781,6.0839,6.0892,6.1095,6.1266,6.1379,6.1591,6.1718,6.1718,6.1692,6.1701,6.1704,6.1711,6.1715,6.1717,6.1717,6.1717,6.1717,6.1717,6.1717,6.1717,6.1717,6.1717,6.1718,6.1718,6.1718,6.1719,6.1718,6.1288,6.0702,6.1015,6.0937,6.0664,6.0664,6.0312,5.9883,5.9883,5.9609,5.914,5.8709,5.8629,5.8588,5.8185,5.767,5.7317,5.7311,5.6957,5.6606,5.6606,5.6606,5.6606,5.6606,5.6606,5.6606,5.6606,0.0,0.0,0.0,0.0,0.0,0.0,5.6138,5.6333,5.563,5.6138,5.6606,5.6606,5.6606,5.6606,5.6606,5.766,5.7855,5.6684,5.7699,5.805,5.7348,5.8089,5.8948,5.9846,6.0705,6.133,6.1718,6.1718,6.1718,6.1718,6.1718,6.1718,6.1718,6.2228,6.293,6.3789,6.4687,6.5546,6.6327,6.6678,6.6795,6.6795,6.6795,6.6795,6.6795,6.6795,6.6795,6.6795,6.0135,6.0265,6.0455,6.0455,6.0622,6.0781,6.0781,6.0781,6.0781,6.0781,6.0781,6.0781,6.0781,6.0781,6.0845,6.0983,6.1136,6.1285,6.1486,6.1648,6.1718,6.1718,6.1692,6.1702,6.1709,6.1715,6.1718,6.1719,6.1719,6.1719,6.1719,6.1719,6.1718,6.1716,6.1716,6.1715,6.1715,6.1715,6.1716,6.1718,6.1716,6.1715,6.1716,6.1717,6.1718,6.1718,6.1718,6.1288,6.0741,6.0741,6.0351,5.9842,5.9564,5.9485,5.9484,5.9193,5.8644,5.8178,5.817,5.7738,5.7309,5.7309,5.7113,5.6918,5.6918,5.6762,5.6606,5.6606,5.6606,0.0,0.0,0.0,5.645,0.0,0.0,5.645,5.5942,5.6294,5.6606,5.6606,5.6606,5.6606,5.6606,5.7348,5.7465,5.6645,5.7348,5.7816,5.7816,5.8636,5.9495,6.0354,6.1252,6.1718,6.1718,6.1718,6.1718,6.1718,6.1718,6.1835,6.2071,6.2696,6.3594,6.4687,6.5312,6.6053,6.6798,6.68,6.68,6.68,6.6805,6.6846,6.6844,6.6798,6.6798,6.6839,6.0757,6.0769,6.0769,6.0769,6.0781,6.0781,6.0781,6.0781,6.0781,6.0781,6.0781,6.0781,6.0781,6.0781,6.0845,6.0983,6.1136,6.1285,6.1486,6.1648,6.1718,6.1718,6.1692,6.1702,6.1709,6.1715,6.1718,6.1719,6.1719,6.1719,6.1719,6.1718,6.1717,6.1716,6.1712,6.1709,6.1709,6.1709,6.1709,6.1709,6.1709,6.1709,6.1709,6.1709,6.1709,6.1709,6.1709,6.167,6.167,6.167,6.1631,6.1475,6.0616,6.0376,6.0214,5.9353,5.9074,5.9065,5.9065,5.9024,5.9024,5.9024,5.8402,5.7777,5.7777,5.7153,5.6606,5.6606,5.6606,5.6606,5.6606,0.0,0.0,0.0,0.0,0.0,0.0,5.5552,5.6606,5.6606,5.6606,5.6606,5.6606,5.7348,5.7465,5.6645,5.7348,5.7816,5.7816,5.8636,5.9495,6.0354,6.1252,6.1718,6.1718,6.1718,6.1718,6.1718,6.1718,6.2149,6.2969,6.3008,6.3945,6.5546,6.5585,6.6053,6.6798,6.6807,6.6811,6.6813,6.686,6.6902,6.6901,6.6805,6.6802,6.6928,6.0781,6.0781,6.0781,6.0781,6.0781,6.0781,6.0781,6.0781,6.0781,6.0781,6.0781,6.0781,6.0781,6.0781,6.091,6.112,6.1158,6.1322,6.1602,6.1668,6.1718,6.1718,6.1683,6.1692,6.1702,6.1705,6.1709,6.1714,6.1714,6.1714,6.1714,6.1712,6.171,6.1707,6.1704,6.1702,6.1702,6.1702,6.1705,6.1709,6.1709,6.1702,6.1694,6.1705,6.1709,6.1709,6.1709,6.1709,6.1709,6.1709,6.1709,6.1669,6.1352,6.1274,6.1196,6.0909,6.0399,5.9972,5.9966,5.954,5.9117,5.9117,5.8882,5.8648,5.8648,5.8453,5.81,5.7506,5.7393,5.7239,5.6684,0.0,0.0,0.0,0.0,0.0,0.0,5.6229,5.6614,5.6606,5.6606,5.6606,5.6606,5.684,5.6879,5.6606,5.7348,5.805,5.8636,5.9495,6.0354,6.1213,6.1562,6.1718,6.1718,6.1718,6.1718,6.1718,6.1718,6.2149,6.3008,6.3594,6.4497,6.5635,6.6143,6.6577,6.6857,6.6859,6.686,6.686,6.6902,6.6904,6.6902,6.6859,6.721,6.7876,6.0781,6.0781,6.0781,6.0781,6.0781,6.0781,6.0781,6.0781,6.0781,6.0781,6.0781,6.0816,6.0867,6.0867,6.0974,6.1279,6.1304,6.1422,6.1674,6.1718,6.1718,6.1718,6.1718,6.1686,6.1697,6.1697,6.1702,6.1709,6.1709,6.1709,6.1709,6.1707,6.1702,6.1697,6.1694,6.1694,6.1697,6.1697,6.1702,6.1709,6.1709,6.1702,6.1694,6.1705,6.1708,6.1705,6.1708,6.1709,6.1708,6.1707,6.1705,6.1704,6.1696,6.1696,6.1697,6.1683,6.1295,6.087,6.0868,6.0444,6.002,6.0023,5.9789,5.9556,5.9556,5.9322,5.8928,5.8377,5.8263,5.8108,5.7594,0.0,0.0,0.0,0.0,0.0,0.0,5.6589,5.6701,5.7047,5.6805,5.6723,5.6996,5.7035,5.7153,5.7465,5.7972,5.8636,5.9534,6.008,6.0783,6.1679,6.1718,6.1718,6.1718,6.1718,6.1718,6.1718,6.1991,6.2618,6.3477,6.4375,6.5202,6.6071,6.6577,6.6856,6.6904,6.6906,6.6906,6.6907,6.6909,6.7104,6.7378,6.7335,6.8038,6.9173,6.0781,6.0781,6.0781,6.0781,6.0781,6.0781,6.0781,6.0781,6.0781,6.0781,6.0793,6.0845,6.0974,6.1011,6.112,6.1471,6.149,6.1569,6.1676,6.1718,6.1718,6.1718,6.1718,6.1686,6.1697,6.1697,6.1701,6.1708,6.1708,6.1708,6.1708,6.1701,6.1697,6.1697,6.1686,6.1688,6.1697,6.1697,6.1702,6.1709,6.1709,6.1709,6.1709,6.1709,6.1705,6.1701,6.1707,6.1709,6.1708,6.1701,6.1699,6.1697,6.1686,6.1681,6.1681,6.1681,6.1681,6.1683,6.1696,6.1699,6.1701,6.1708,6.1085,6.0461,6.0461,5.9836,5.9211,5.9172,5.9172,5.9133,5.9094,5.9092,0.0,0.0,0.0,0.0,0.0,5.6749,5.7022,5.7843,5.7244,5.7035,5.7779,5.7857,5.8207,5.9026,5.9143,5.9534,6.0354,6.0432,6.0822,6.1679,6.1718,6.1718,6.1681,6.1681,6.1681,6.172,6.2581,6.3479,6.4338,6.5197,6.6021,6.6813,6.6813,6.6857,6.6905,6.691,6.6911,6.6912,6.6953,6.7539,6.832,6.8236,6.9291,7.0701,6.0781,6.0781,6.0781,6.0781,6.0781,6.0781,6.0781,6.0781,6.0781,6.0781,6.0899,6.0945,6.0993,6.1087,6.1246,6.1481,6.149,6.1569,6.1676,6.1718,6.1718,6.1718,6.1718,6.1681,6.1686,6.1686,6.1686,6.169,6.169,6.169,6.1688,6.1686,6.1686,6.1686,6.1681,6.1688,6.1697,6.1697,6.1702,6.1709,6.1713,6.1713,6.171,6.1717,6.1717,6.1713,6.171,6.1709,6.1708,6.1707,6.1707,6.1705,6.1704,6.1702,6.1702,6.1702,6.1702,6.1704,6.1705,6.171,6.1714,6.1715,6.152,6.1364,6.1364,6.1208,6.0855,6.0188,6.0073,5.9878,5.9211,5.9092,5.9055,0.0,0.0,0.0,0.0,5.8512,5.8589,5.8781,5.8578,5.8534,5.8736,5.877,5.8845,5.9078,5.9702,6.0167,6.0393,6.1026,6.1456,6.1679,6.1718,6.1683,6.1694,6.1694,6.1697,6.1702,6.2563,6.3461,6.432,6.5219,6.6082,6.6869,6.6869,6.6872,6.6913,6.6914,6.6914,6.6953,6.7617,6.875,7.0078,7.0039,7.0312,7.0781,6.0781,6.0781,6.0781,6.0781,6.0781,6.0781,6.0781,6.0781,6.0781,6.0781,6.0913,6.103,6.1079,6.1232,6.1406,6.158,6.1588,6.1605,6.1718,6.1718,6.1718,6.1718,6.1718,6.1683,6.1688,6.1688,6.1688,6.1688,6.1688,6.1686,6.1718,6.1718,6.1718,6.1718,6.1718,6.1688,6.1699,6.1705,6.1711,6.1716,6.1717,6.1717,0.0,6.1718,6.1718,6.1718,6.1716,6.1716,6.1715,6.1713,6.1713,6.1712,6.1709,6.1709,6.1709,6.1709,6.1709,6.1709,6.1712,6.1715,6.1717,6.1718,6.1718,6.1718,6.1718,6.1718,6.1561,6.1052,6.0975,6.0819,6.0349,6.0231,6.0115,0.0,0.0,0.0,5.9218,5.9218,5.9335,5.9646,5.9683,5.9838,6.0192,5.9907,5.9821,6.0218,6.068,6.0987,6.0987,6.1417,6.1688,6.1718,6.1718,6.1686,6.1697,6.1697,6.1898,6.2295,6.3154,6.4014,6.4912,6.5771,6.6438,6.6911,6.6911,6.6913,6.6914,6.6914,6.7109,6.7578,6.8828,6.9883,7.0742,7.1133,7.1289,7.1328,6.0781,6.0781,6.0781,6.0781,6.0781,6.0781,6.0781,6.0781,6.0793,6.0827,6.0953,6.107,6.12,6.1406,6.1576,6.1676,6.1718,6.1718,6.1718,6.1718,6.1718,6.1718,6.1718,6.1686,6.1696,6.1697,6.1697,6.1696,6.1697,6.1692,6.1718,6.1718,6.1681,6.1681,6.1681,6.169,6.1702,6.1714,6.1718,6.1719,6.1719,6.1719,6.1719,6.1719,6.1719,6.1719,6.1719,6.1719,6.1719,6.1718,6.1717,6.1717,6.1712,6.1711,6.1711,6.1711,6.1711,6.1712,6.1716,6.1717,6.1718,6.1719,6.1719,6.1719,6.1719,6.1719,6.1719,6.1719,6.1719,6.1719,6.1719,6.1719,6.1445,6.0703,5.9961,5.9531,5.9531,5.9531,5.9805,6.0508,6.0586,0.0,6.164,6.1005,6.0876,6.1631,6.1697,6.169,6.1697,6.169,6.1683,6.1718,6.1681,6.1688,6.1699,6.1818,6.2252,6.3,6.4016,6.4875,6.5618,6.6516,6.6908,6.6912,6.6912,6.6913,6.6914,6.7031,6.7656,6.8672,7.0117,7.0781,7.0976,7.1719,7.1992,7.1992,6.0781,6.0781,6.0781,6.0781,6.0781,6.0781,6.0781,6.0781,6.0861,6.0963,6.1079,6.1246,6.1412,6.1584,6.1668,6.1718,6.1718,6.1718,6.1718,6.1718,6.1718,6.1718,6.1718,6.1681,6.1683,6.1694,6.1694,6.1683,6.1694,6.1692,6.1718,6.1718,6.1686,6.1696,6.1696,6.1704,6.1715,6.1718,6.1719,6.1719,6.1719,6.1719,6.1719,6.1719,6.1719,6.1719,6.1719,6.1719,6.1719,6.1719,6.1719,6.1719,6.1718,6.1718,6.1718,6.1718,6.1718,6.1718,6.1718,6.1719,6.1719,6.1719,6.1719,6.1719,6.1719,6.1719,6.1719,6.1719,6.1719,6.1719,6.1719,6.1719,6.164,6.1484,6.1367,6.125,6.125,6.125,6.1328,6.1445,6.1484,6.1522,6.168,6.1561,6.1558,6.1677,6.1714,6.171,6.1699,6.1702,6.1699,6.172,6.169,6.1699,6.1707,6.2415,6.2849,6.3007,6.4609,6.5468,6.5624,6.6484,6.6914,6.6914,6.6914,6.6914,6.6953,6.7695,6.8867,7.0273,7.0586,7.1133,7.1797,7.1953,7.1992,7.1992,6.0781,6.0781,6.0781,6.0781,6.0845,6.0892,6.0892,6.1341,6.1523,6.1079,6.1196,6.1551,6.2114,6.2308,6.2579,6.3008,6.2657,6.2384,6.2384,6.1952,6.1718,6.1718,6.1718,6.1686,6.1697,6.1697,6.1701,6.1704,6.1704,6.1702,6.1697,6.1697,6.1699,6.1704,6.1704,6.171,6.1717,6.1718,6.1718,6.1719,6.1719,6.1719,6.1758,6.2187,6.2383,6.2422,6.289,6.3047,6.289,6.1992,6.1719,6.1719,6.1719,6.1719,6.1719,6.1719,6.1719,6.1719,6.1719,6.1719,6.1719,6.1719,6.1719,6.1719,6.1719,6.1719,6.1719,6.1719,6.1719,6.1719,6.1719,6.1719,6.1719,6.1719,6.1719,6.1719,6.1719,6.1719,6.1719,6.1719,6.1718,6.1718,6.1719,6.1718,6.1718,6.1717,6.1715,6.171,6.1699,6.1705,6.1704,6.169,6.1699,6.1708,6.1713,6.2575,6.3241,6.3672,6.4961,6.5859,6.6289,6.6719,6.6914,6.6914,6.6914,6.7148,6.7656,6.8984,6.9961,7.0742,7.1211,7.164,7.1992,7.1992,7.1992,7.1992,6.085,6.0823,6.0911,6.112,6.1235,6.1375,6.1569,6.2307,6.2482,6.1491,6.1765,6.2318,6.3046,6.3215,6.3555,6.426,6.3672,6.3282,6.3282,6.2618,6.2267,6.2267,6.2267,6.2158,6.1977,6.1973,6.1899,6.1714,6.171,6.1709,6.1709,6.1709,6.1709,6.1711,6.1908,6.1988,6.1991,6.2186,6.2265,6.2265,6.2265,6.2265,6.2344,6.3008,6.3281,6.3359,6.4062,6.4297,6.4101,6.2734,6.2148,6.1992,6.1992,6.1836,6.1719,6.1719,6.1719,6.1719,6.1719,6.1719,6.1719,6.1719,6.1719,6.1719,6.1719,6.1719,6.1719,6.1719,6.1719,6.1719,6.1719,6.1719,6.1719,6.1719,6.1719,6.1719,6.1719,6.1719,6.1719,6.1719,6.1719,6.1719,6.1719,6.1719,6.1718,6.1717,6.1714,6.171,6.1704,6.1708,6.1708,6.1701,6.1708,6.1791,6.1951,6.285,6.371,6.4609,6.5469,6.625,6.6914,6.6914,6.6914,6.6914,6.6914,6.75,6.8555,7.0078,7.082,7.1055,7.1719,7.1992,7.1992,7.1992,7.1992,7.1992,6.0973,6.0974,6.1262,6.2176,6.2369,6.2609,6.3439,6.3708,6.3541,6.2756,6.3278,6.3865,6.413,6.4177,6.4221,6.4299,6.4221,6.4182,6.4182,6.4104,6.4065,6.4065,6.4065,6.3674,6.2894,6.2863,6.2478,6.1701,6.1707,6.1709,6.1709,6.1709,6.1712,6.1716,6.2539,6.289,6.2929,6.3711,6.4062,6.4062,6.4062,6.4062,6.4062,6.414,6.418,6.418,6.4258,6.4297,6.4297,6.4101,6.3515,6.289,6.289,6.2344,6.1719,6.1719,6.1719,6.1719,6.1719,6.1719,6.1719,6.1719,6.1719,6.1719,6.1719,6.1719,6.1719,6.1719,6.1719,6.1719,6.1719,6.1719,6.1719,6.1719,6.1719,6.1719,6.1719,6.1719,6.1719,6.1719,6.1719,6.1719,6.1719,6.1719,6.1718,6.1717,6.1718,6.1718,6.1716,6.1716,6.1714,6.1708,6.1714,6.2068,6.2889,6.375,6.4609,6.5508,6.6367,6.6836,6.6914,6.6914,6.6914,6.6914,6.6914,6.7812,6.9375,7.0312,7.1172,7.1875,7.1953,7.1992,7.1992,7.1992,7.1992,7.1992,6.1879,6.2307,6.2797,6.3214,6.3366,6.3537,6.3887,6.4523,6.4847,6.4535,6.4301,6.4428,6.4997,6.5077,6.5273,6.5743,6.5351,6.5077,6.5077,6.457,6.4299,6.4299,6.4299,6.4145,6.38,6.3798,6.3607,6.3266,6.327,6.3274,6.3276,6.3279,6.3241,6.3281,6.3633,6.3789,6.3789,6.414,6.4297,6.4297,6.4297,6.4297,6.4375,6.4883,6.5078,6.5156,6.5664,6.5859,6.5859,6.5859,6.4922,6.3789,6.3789,6.3555,6.3242,6.3242,6.3242,6.3164,6.2617,6.2461,6.2344,6.1836,6.1719,6.1719,6.1719,6.1719,6.1719,6.1719,6.1719,6.1719,6.1719,6.1719,6.1719,6.1719,6.1719,6.1719,6.1719,6.1719,6.1719,6.1719,6.1719,6.1719,6.1719,6.1719,6.1719,6.1718,6.1719,6.1718,6.1713,6.1717,6.1718,6.1714,6.2225,6.2656,6.3007,6.4375,6.5273,6.5625,6.6484,6.6914,6.6914,6.6914,6.7187,6.7695,6.8203,6.9062,7.0234,7.1133,7.168,7.1992,7.1992,7.1992,7.1992,7.1992,7.1992,7.1992,6.2905,6.3437,6.3962,6.4271,6.4418,6.4536,6.4774,6.5481,6.5936,6.5936,6.5429,6.5273,6.5897,6.5936,6.617,6.6756,6.6288,6.5936,6.5936,6.539,6.5041,6.5041,6.5041,6.4926,6.4698,6.4692,6.454,6.4283,6.4283,6.4287,6.4292,6.4295,6.4296,6.4296,6.4569,6.4687,6.4687,6.4961,6.5078,6.5078,6.5078,6.5078,6.5117,6.5742,6.5976,6.6055,6.668,6.6914,6.6914,6.6914,6.6094,6.5039,6.4765,6.4492,6.4297,6.4297,6.4297,6.418,6.3555,6.3398,6.3242,6.2617,6.2265,6.207,6.207,6.1875,6.1719,6.1719,6.1719,6.1719,6.1719,6.1719,6.1719,6.1719,6.1719,6.1719,6.1719,6.1719,6.1719,6.1719,6.1719,6.1719,6.1719,6.1719,6.1719,6.1719,6.1719,6.1718,6.1714,6.1718,6.1836,6.2069,6.2695,6.3242,6.375,6.5,6.5742,6.5976,6.6601,6.6914,6.6914,6.7187,6.7617,6.8242,6.9336,7.0117,7.0781,7.164,7.1992,7.1992,7.1992,7.1992,7.1992,7.1992,7.1992,7.1992,6.3969,6.3989,6.4328,6.5379,6.5582,6.5858,6.6639,6.6795,6.6795,6.6795,6.6795,6.6756,6.6795,6.6795,6.6795,6.6795,6.6795,6.6795,6.6795,6.6795,6.6756,6.6756,6.6756,6.6405,6.5585,6.5585,6.516,6.4314,6.4314,6.4317,6.4286,6.4286,6.4286,6.4325,6.5184,6.5579,6.5622,6.6482,6.6874,6.6875,6.6875,6.6875,6.6875,6.6875,6.6875,6.6875,6.6914,6.6914,6.6914,6.6914,6.6875,6.6719,6.5859,6.5,6.4297,6.4297,6.4297,6.4297,6.4297,6.4297,6.4297,6.4258,6.3633,6.2969,6.2969,6.2305,6.1719,6.1719,6.1719,6.1719,6.1719,6.1719,6.1719,6.1719,6.1719,6.1719,6.1719,6.1719,6.1719,6.1719,6.1719,6.1719,6.1719,6.1719,6.1719,6.1719,6.1719,6.1719,6.1719,6.1719,6.2109,6.2969,6.3008,6.3828,6.5547,6.5586,6.6015,6.6875,6.6875,6.6914,6.6914,6.7773,6.8203,6.8281,6.9961,7.0703,7.0781,7.164,7.1992,7.1992,7.1992,7.1992,7.1992,7.1992,7.1992,7.1992,6.5074,6.552,6.6034,6.6363,6.6405,6.6483,6.6756,6.6795,6.6795,6.6795,6.6795,6.7029,6.7615,6.7146,6.6795,6.6795,6.6795,6.6795,6.6795,6.6795,6.6795,6.6795,6.6795,6.6678,6.6405,6.6405,6.629,6.5982,6.5989,6.6039,6.6089,6.6085,6.6087,6.6093,6.6364,6.648,6.6482,6.6796,6.6913,6.6913,6.6914,6.6914,6.6914,6.6914,6.6914,6.6914,6.6914,6.6914,6.6914,6.6914,6.6914,6.6836,6.6562,6.6289,6.6055,6.6055,6.6055,6.5937,6.5351,6.5195,6.5039,6.4453,6.4101,6.3906,6.3906,6.3203,6.2578,6.2578,6.2109,6.1719,6.1719,6.1719,6.1719,6.1719,6.1719,6.1719,6.1719,6.1719,6.1719,6.1719,6.1719,6.1719,6.1719,6.1719,6.1719,6.1719,6.1719,6.1719,6.1719,6.2265,6.2695,6.3008,6.414,6.5039,6.5586,6.6172,6.664,6.6914,6.6914,6.7226,6.7812,6.8086,6.8828,6.9922,7.0469,7.1055,7.1601,7.1875,7.1992,7.1992,7.1992,7.1992,7.1992,7.1992,7.1992,7.207,6.6048,6.6444,6.6795,6.6795,6.7068,6.7303,6.7303,6.7576,6.7771,6.7771,6.7771,6.7966,6.8513,6.8083,6.7771,6.7771,6.7771,6.7654,6.7303,6.7303,6.7146,6.6795,6.6795,6.6795,6.6795,6.6795,6.6795,6.6795,6.6802,6.6813,6.6863,6.6857,6.6862,6.6869,6.6866,6.6866,6.6909,6.6911,6.7108,6.7382,6.7383,6.7578,6.789,6.789,6.7851,6.7851,6.7851,6.7851,6.7773,6.75,6.7383,6.7344,6.6992,6.6914,6.6914,6.6914,6.6914,6.6797,6.625,6.6094,6.5976,6.539,6.5039,6.4687,6.4375,6.3867,6.3476,6.3476,6.3047,6.2578,6.2265,6.2187,6.207,6.1758,6.1719,6.1719,6.1719,6.1719,6.1719,6.1719,6.1719,6.1719,6.1719,6.1992,6.2187,6.2187,6.25,6.2695,6.2695,6.289,6.3281,6.3945,6.5039,6.5742,6.6094,6.664,6.6914,6.6914,6.7226,6.7656,6.8203,6.8867,6.9726,7.0703,7.1055,7.1484,7.1992,7.1992,7.1992,7.1992,7.1992,7.1992,7.1992,7.1992,7.2226,7.2578,6.6873,6.6873,6.6912,6.6951,6.7654,6.82,6.82,6.8864,6.9411,6.9411,6.9411,6.9411,6.9489,6.9489,6.9528,6.9567,6.945,6.9059,6.8239,6.82,6.7849,6.7029,6.699,6.699,6.699,6.699,6.699,6.699,6.699,6.6993,6.6993,6.6993,6.6993,6.6993,6.6995,6.7006,6.706,6.706,6.7535,6.8281,6.8281,6.8789,6.9492,6.9492,6.9453,6.9414,6.9414,6.9414,6.9297,6.8555,6.8281,6.8125,6.7344,6.707,6.707,6.6953,6.6914,6.6914,6.6914,6.6914,6.6914,6.6914,6.6289,6.5469,6.4687,6.4414,6.4375,6.4375,6.4336,6.4062,6.3242,6.3086,6.2812,6.1992,6.1875,6.1875,6.1875,6.1875,6.1875,6.1875,6.1875,6.1875,6.1875,6.2617,6.3086,6.3086,6.3828,6.4336,6.4375,6.3633,6.3906,6.5547,6.5664,6.6094,6.6875,6.6914,6.6914,6.6992,6.7812,6.8242,6.8437,7.0,7.0742,7.0859,7.164,7.1992,7.1992,7.1992,7.1992,7.1992,7.1992,7.1992,7.1992,7.207,7.2617,7.332,6.7654,6.7771,6.8005,6.8669,6.8942,6.9098,6.9098,6.9255,6.9411,6.9411,6.9411,6.9645,7.0309,7.0387,7.066,7.1324,7.0152,6.9294,6.9098,6.9098,6.8981,6.8786,6.8786,6.8786,6.8786,6.8786,6.8786,6.8786,6.8786,6.8791,6.8761,6.8791,6.8796,6.8773,6.8773,6.8776,6.8819,6.8826,6.8944,6.9139,6.9101,6.9258,6.9414,6.9492,6.9492,6.9453,6.9414,6.9414,6.9375,6.9258,6.914,6.9101,6.8945,6.8867,6.8633,6.7305,6.6914,6.6914,6.6914,6.6914,6.6914,6.6914,6.6758,6.6523,6.6328,6.5781,6.5273,6.5273,6.4765,6.4258,6.4023,6.3984,6.3906,6.3711,6.3672,6.3672,6.3672,6.3672,6.3672,6.3672,6.3672,6.3672,6.3672,6.3867,6.3984,6.3984,6.418,6.4609,6.5273,6.5117,6.5156,6.5586,6.625,6.668,6.6914,6.6914,6.7226,6.789,6.8086,6.8867,7.0117,7.0508,7.1055,7.1719,7.1914,7.1992,7.1992,7.1992,7.1992,7.1992,7.1992,7.1992,7.207,7.2734,7.3125,7.3476,6.8591,6.8708,6.8825,6.9333,6.9723,6.9996,6.9996,7.0348,7.0582,7.0582,7.0587,7.0787,7.1253,7.1297,7.1497,7.1965,7.1136,7.0426,7.0035,6.9996,6.9801,6.9411,6.9411,6.9411,6.9411,6.9411,6.9411,6.9411,6.9411,6.9416,6.9384,6.9416,6.9382,6.9397,6.9394,6.9399,6.9408,6.9411,6.9647,6.9999,7.0,7.0234,7.0586,7.0625,7.0625,7.0625,7.0586,7.0586,7.0547,7.0156,7.0039,6.9922,6.9609,6.9492,6.9258,6.832,6.7773,6.7422,6.6992,6.6914,6.6914,6.6914,6.6914,6.6914,6.6914,6.6523,6.6172,6.6172,6.582,6.5351,6.4961,6.4883,6.4765,6.4375,6.4297,6.4297,6.4297,6.4297,6.4297,6.4297,6.4297,6.4297,6.4297,6.4648,6.4883,6.4883,6.5273,6.5703,6.6172,6.6172,6.6172,6.6172,6.664,6.6914,6.6914,6.7305,6.7734,6.8203,6.8984,6.9805,7.0703,7.1094,7.1562,7.1992,7.1992,7.1992,7.1992,7.1992,7.1992,7.1992,7.1992,7.2226,7.2656,7.3125,7.3789,7.4609,6.9567,6.9606,6.9645,6.9762,7.0387,7.0894,7.0897,7.1521,7.1993,7.1993,7.2002,7.2008,7.2008,7.2016,7.2019,7.2019,7.2004,7.168,7.0938,7.0899,7.0587,6.9809,6.9809,6.9809,6.9809,6.9809,6.9806,6.9804,6.9804,6.9804,6.9801,6.9804,6.9772,6.9781,6.9774,6.9788,6.9802,6.9799,7.0232,7.0898,7.0898,7.1328,7.1992,7.1992,7.1992,7.1992,7.1992,7.1992,7.1875,7.1133,7.0898,7.0781,7.0078,6.9844,6.9765,6.9648,6.9101,6.8359,6.7383,6.6992,6.6914,6.6914,6.6914,6.6914,6.6914,6.6914,6.6914,6.6914,6.6914,6.668,6.5937,6.5781,6.5547,6.4805,6.4687,6.4687,6.4687,6.4687,6.4687,6.4687,6.4687,6.4687,6.4687,6.5351,6.5781,6.5781,6.6484,6.6914,6.6914,6.6914,6.6914,6.6914,6.6914,6.6953,6.7109,6.7812,6.832,6.8594,7.0039,7.0781,7.0937,7.164,7.1992,7.1992,7.1992,7.1992,7.1992,7.1992,7.1992,7.1992,7.2148,7.2656,7.332,7.3594,7.4648,7.5937,7.0348,7.0504,7.0738,7.148,7.1714,7.1797,7.1807,7.1926,7.2006,7.2016,7.2017,7.2017,7.2017,7.2019,7.2019,7.2019,7.2017,7.1938,7.182,7.1781,7.1742,7.1586,7.1586,7.1586,7.1586,7.1586,7.1583,7.1614,7.1614,7.1607,7.1597,7.1609,7.1614,7.1616,7.1592,7.1597,7.1599,7.1601,7.1679,7.1797,7.1797,7.1875,7.1992,7.1992,7.1992,7.1992,7.1992,7.1992,7.1992,7.1836,7.1797,7.1797,7.164,7.1601,7.1445,7.0703,7.039,6.9961,6.8437,6.7461,6.6914,6.6914,6.6914,6.6914,6.6914,6.6914,6.6914,6.6914,6.6914,6.6875,6.6719,6.6719,6.664,6.6523,6.6484,6.6484,6.6484,6.6484,6.6484,6.6484,6.6484,6.6484,6.6484,6.6601,6.6719,6.6719,6.6836,6.6914,6.6914,6.6914,6.6914,6.6914,6.6914,6.7265,6.8008,6.8125,6.8906,7.0312,7.0586,7.1094,7.1797,7.1953,7.1992,7.1992,7.1992,7.1992,7.1992,7.1992,7.1992,7.207,7.2812,7.3164,7.3476,7.4961,7.5664,7.6015,7.1324,7.1402,7.1519,7.1948,7.1987,7.1993,7.2004,7.2006,7.201,7.2019,7.1984,7.1986,7.1986,7.1989,7.1989,7.1989,7.1989,7.1989,7.1989,7.1985,7.2019,7.2019,7.2019,7.2019,7.2019,7.2019,7.2017,7.2014,7.2014,7.2012,7.2006,7.2012,7.2017,7.1982,7.1985,7.1989,7.1991,7.1991,7.1992,7.1992,7.1992,7.1992,7.1992,7.1992,7.1992,7.1992,7.1992,7.1992,7.1992,7.1992,7.1992,7.1992,7.1992,7.1992,7.1914,7.1523,7.0742,6.9883,6.9062,6.8242,6.7617,6.7617,6.7265,6.6914,6.6914,6.6914,6.6914,6.6914,6.6914,6.6914,6.6914,6.6914,6.6914,6.6914,6.6914,6.6914,6.6914,6.6914,6.6914,6.6914,6.6914,6.6914,6.6914,6.6914,6.6914,6.6914,6.6914,6.6914,6.6914,6.6914,6.7109,6.7578,6.7617,6.8008,6.8906,6.9336,6.9922,7.0703,7.1172,7.1601,7.1992,7.1992,7.1992,7.1992,7.1992,7.1992,7.2031,7.25,7.2695,7.2773,7.3672,7.4297,7.4805,7.5586,7.6211,7.664,7.1987,7.199,7.1993,7.1993,7.1995,7.2002,7.2012,7.2014,7.2017,7.1985,7.1989,7.199,7.199,7.1992,7.1992,7.1992,7.1992,7.1992,7.1992,7.1989,7.1985,7.1985,7.1985,7.1985,7.1985,7.1985,7.1985,7.1984,7.1984,7.1982,7.198,7.1982,7.1986,7.1989,7.1987,7.1989,7.1992,7.1991,7.1991,7.1992,7.1992,7.1992,7.1992,7.1992,7.1992,7.1992,7.1992,7.1992,7.1992,7.1992,7.1992,7.1992,7.1992,7.1992,7.1992,7.1992,7.1094,7.0039,6.9765,6.9101,6.8476,6.8515,6.7851,6.7187,6.7187,6.7031,6.6914,6.6914,6.6914,6.6914,6.6914,6.6914,6.6914,6.6914,6.6914,6.6914,6.6914,6.6914,6.6914,6.6914,6.6914,6.6914,6.6914,6.6914,6.6914,6.6914,6.6914,6.6992,6.7187,6.7187,6.7695,6.875,6.8594,6.8906,6.9765,7.039,7.0781,7.1015,7.168,7.1992,7.1992,7.1992,7.1992,7.1992,7.1992,7.2109,7.2344,7.3008,7.3437,7.3672,7.457,7.5312,7.5937,7.6133,7.664,7.7187,7.1987,7.1997,7.2004,7.2004,7.2012,7.1981,7.1988,7.1989,7.199,7.1992,7.1992,7.1992,7.1992,7.1992,7.1992,7.1992,7.1992,7.1992,7.1992,7.1992,7.1992,7.1992,7.1992,7.1992,7.1992,7.1992,7.1991,7.1989,7.1989,7.1987,7.1981,7.1987,7.1989,7.199,7.1992,7.1992,7.1992,7.1992,7.1992,7.1992,7.1992,7.1992,7.1992,7.1992,7.1992,7.1992,7.1992,7.1992,7.1992,7.1992,7.1992,7.1992,7.1992,7.1992,7.1992,7.1992,7.1914,7.164,7.082,6.9961,6.9336,6.9375,6.875,6.8086,6.8086,6.7461,6.6914,6.6914,6.6914,6.6914,6.6914,6.6914,6.6914,6.6914,6.6914,6.6914,6.6914,6.6914,6.6914,6.6914,6.6914,6.6914,6.6914,6.6914,6.6914,6.6914,6.6914,6.7265,6.8047,6.8086,6.8867,7.0469,6.9726,6.9726,7.0586,7.0664,7.1094,7.1914,7.1953,7.1992,7.1992,7.1992,7.1992,7.1992,7.1992,7.2461,7.3203,7.3281,7.3789,7.4609,7.5469,7.5859,7.6015,7.6797,7.7148,7.7187,7.1997,7.2002,7.2008,7.2014,7.2017,7.1982,7.1989,7.1989,7.199,7.1992,7.1992,7.1992,7.1992,7.1992,7.1992,7.1992,7.1992,7.1992,7.1992,7.1992,7.1992,7.1992,7.1992,7.1992,7.1992,7.1992,7.1992,7.1992,7.1992,7.1991,7.199,7.1991,7.1992,7.1992,7.1992,7.1992,7.1992,7.1992,7.1992,7.1992,7.1992,7.1992,7.1992,7.1992,7.1992,7.1992,7.1992,7.1992,7.1992,7.1992,7.1992,7.1992,7.1992,7.1992,7.1992,7.1992,7.1992,7.1914,7.1601,7.0859,7.0195,7.0234,6.9609,6.8945,6.8945,6.8672,6.832,6.7812,6.7695,6.7539,6.6992,6.6914,6.6914,6.6914,6.6914,6.6914,6.6914,6.6914,6.6914,6.6914,6.6914,6.6914,6.6914,6.7383,6.7695,6.7695,6.8164,6.8594,6.8945,6.9453,7.0039,7.0664,7.0898,7.1172,7.1484,7.1523,7.168,7.1992,7.1992,7.1992,7.1992,7.1992,7.1992,7.2031,7.2578,7.3008,7.3398,7.4453,7.5117,7.5508,7.6367,7.6719,7.6758,7.707,7.7145,7.7089,7.2004,7.2012,7.2017,7.1984,7.1986,7.1988,7.199,7.1991,7.1991,7.1992,7.1992,7.1992,7.1992,7.1992,7.1992,7.1992,7.2265,7.2422,7.2422,7.2656,7.2578,7.2031,7.2265,7.2422,7.2422,7.2695,7.2812,7.2812,7.2812,7.2812,7.2812,7.2812,7.2812,7.2812,7.2812,7.2812,7.2812,7.2812,7.2812,7.2812,7.2812,7.2812,7.2812,7.2812,7.2812,7.2812,7.2812,7.2656,7.2422,7.2422,7.2226,7.1992,7.1992,7.1992,7.1992,7.1992,7.1992,7.1992,7.1992,7.1562,7.1094,7.1094,7.0469,6.9805,6.9805,6.9609,6.9258,6.8672,6.8594,6.8398,6.7812,6.7695,6.7695,6.7695,6.7695,6.7695,6.7695,6.7695,6.7695,6.7695,6.7695,6.7695,6.7695,6.8242,6.8594,6.8594,6.9101,6.9531,6.9805,7.0625,7.1094,7.1094,7.168,7.1992,7.1992,7.1992,7.1992,7.1992,7.1992,7.1992,7.1992,7.1992,7.2148,7.2422,7.3047,7.3594,7.4219,7.539,7.6055,7.6367,7.6953,7.7187,7.7187,7.7187,7.71,7.6981,7.2006,7.1982,7.1989,7.1989,7.1992,7.1992,7.1992,7.1992,7.1992,7.1992,7.1992,7.1992,7.1992,7.2031,7.2031,7.2031,7.2812,7.332,7.332,7.4101,7.3828,7.2109,7.2851,7.332,7.332,7.414,7.4609,7.4609,7.4609,7.4609,7.4609,7.4609,7.4609,7.4609,7.4609,7.4609,7.4609,7.4609,7.4609,7.4609,7.4609,7.4609,7.4609,7.4609,7.4609,7.4609,7.4609,7.4023,7.332,7.332,7.2734,7.1992,7.1992,7.1992,7.1992,7.1992,7.1992,7.1992,7.1992,7.1992,7.1992,7.1992,7.1367,7.0703,7.0703,7.0039,6.9414,6.9414,6.9414,6.9414,6.9492,6.9453,6.9414,6.9492,6.9453,6.9414,6.9492,6.9453,6.9414,6.9414,6.9414,6.9414,6.9492,6.9453,6.9414,6.9414,6.9414,6.9805,7.0664,7.1523,7.1992,7.1992,7.1992,7.1992,7.1992,7.1992,7.1992,7.1992,7.1992,7.1992,7.1992,7.1992,7.2461,7.3281,7.332,7.4297,7.5898,7.5898,7.6406,7.7187,7.7187,7.7187,7.7187,7.7187,7.71,7.6975,7.1984,7.1988,7.199,7.1992,7.1992,7.1992,7.1992,7.1992,7.1992,7.1992,7.2539,7.289,7.289,7.3476,7.3828,7.3828,7.4062,7.4219,7.4219,7.4453,7.4375,7.3867,7.4062,7.4219,7.4219,7.4453,7.4609,7.4609,7.4609,7.4609,7.4609,7.4609,7.4609,7.4609,7.4609,7.4609,7.4609,7.4609,7.4609,7.4609,7.4609,7.4609,7.4609,7.4609,7.4609,7.4609,7.4609,7.4414,7.4219,7.4219,7.3633,7.2812,7.2187,7.1992,7.1992,7.1992,7.1992,7.1992,7.1992,7.1992,7.1992,7.1992,7.1797,7.1601,7.1601,7.1406,7.1055,7.043,7.0312,7.0156,6.9609,6.9453,6.9414,6.9492,6.9453,6.9414,6.9492,6.9492,6.9453,6.9453,6.9414,6.9414,6.9492,7.0,7.0312,7.0312,7.0898,7.1328,7.1601,7.1875,7.1992,7.1992,7.1992,7.1992,7.1992,7.1992,7.1992,7.1992,7.1992,7.1992,7.2031,7.2617,7.3047,7.3359,7.4609,7.543,7.5937,7.6562,7.6953,7.7187,7.7187,7.7187,7.7187,7.7096,7.6972,7.6838,7.1989,7.199,7.1991,7.1992,7.1992,7.2109,7.2461,7.25,7.2656,7.2969,7.3476,7.3828,7.3828,7.4297,7.4609,7.4609,7.4922,7.5273,7.5625,7.5625,7.5625,7.5625,7.5625,7.5469,7.5117,7.5469,7.5625,7.5625,7.5625,7.5625,7.5625,7.5625,7.5625,7.5625,7.5625,7.5625,7.5625,7.5625,7.5625,7.5625,7.5625,7.5625,7.5625,7.5625,7.5625,7.5625,7.5625,7.539,7.5117,7.5117,7.4531,7.3672,7.2773,7.25,7.2461,7.2109,7.1992,7.1992,7.1992,7.1992,7.1992,7.1992,7.1992,7.1992,7.1992,7.1992,7.1836,7.1328,7.1211,7.1055,7.0586,7.0469,7.043,7.0469,7.0469,7.043,7.0469,7.0508,7.0508,7.0508,7.0469,7.043,7.0469,7.0937,7.1211,7.1211,7.1719,7.1992,7.1992,7.1992,7.1992,7.1992,7.1992,7.1992,7.1992,7.1992,7.1992,7.1992,7.2344,7.25,7.2539,7.3437,7.3984,7.4375,7.543,7.6094,7.6445,7.6992,7.7186,7.7101,7.7101,7.7094,7.7037,7.6958,7.6833,7.6706,7.199,7.1992,7.2031,7.2109,7.2109,7.2422,7.3281,7.3437,7.3711,7.4492,7.4687,7.4726,7.4726,7.4805,7.4844,7.4844,7.5547,7.6367,7.7148,7.7187,7.7187,7.7187,7.7187,7.6836,7.6015,7.6797,7.7187,7.7187,7.7187,7.7187,7.7187,7.7187,7.7187,7.7187,7.7187,7.7187,7.7187,7.7187,7.7187,7.7187,7.7187,7.7187,7.7187,7.7187,7.7187,7.7187,7.7187,7.668,7.6015,7.5937,7.5351,7.457,7.3672,7.3437,7.3242,7.2383,7.2109,7.2109,7.2031,7.1992,7.1992,7.1992,7.1992,7.1992,7.1992,7.1992,7.1992,7.1992,7.1992,7.1992,7.1992,7.1992,7.1992,7.1992,7.1992,7.1992,7.1992,7.1992,7.1992,7.1992,7.1992,7.1992,7.1992,7.1992,7.1992,7.1992,7.1992,7.1992,7.1992,7.1992,7.1992,7.1992,7.1992,7.1992,7.1992,7.207,7.2109,7.2148,7.293,7.3359,7.3437,7.4336,7.5156,7.5898,7.5976,7.6444,7.7147,7.7147,7.7096,7.6975,7.6975,7.6891,7.6799,7.6786,7.6699,7.66,7.1992,7.1992,7.2226,7.289,7.3008,7.332,7.418,7.4336,7.4375,7.457,7.5195,7.5625,7.5625,7.6211,7.664,7.664,7.6797,7.6992,7.7187,7.7187,7.7187,7.7187,7.7187,7.7109,7.6914,7.7109,7.7187,7.7187,7.7187,7.7187,7.7187,7.7187,7.7187,7.7187,7.7187,7.7187,7.7187,7.7187,7.7187,7.7187,7.7187,7.7187,7.7187,7.7187,7.7187,7.7187,7.7187,7.707,7.6797,7.6133,7.5781,7.5469,7.4609,7.4336,7.414,7.3281,7.3008,7.2851,7.2187,7.1992,7.1992,7.1992,7.1992,7.1992,7.1992,7.1992,7.1992,7.1992,7.1992,7.1992,7.1992,7.1992,7.1992,7.1992,7.1992,7.1992,7.1992,7.1992,7.1992,7.1992,7.1992,7.1992,7.1992,7.1992,7.1992,7.1992,7.1992,7.1992,7.1992,7.1992,7.1992,7.1992,7.1992,7.1992,7.1992,7.2695,7.3008,7.3008,7.3203,7.3672,7.4336,7.5234,7.566,7.579,7.6456,7.6819,7.6878,7.6878,7.6863,7.6843,7.6843,7.6827,7.6793,7.6677,7.6635,7.6582,7.2539,7.2617,7.289,7.3789,7.3906,7.4219,7.5078,7.5234,7.5351,7.5781,7.625,7.6523,7.6523,7.6914,7.7187,7.7187,7.7187,7.7187,7.7187,7.7187,7.7187,7.7187,7.7187,7.7187,7.7187,7.7187,7.7187,7.7187,7.7187,7.7187,7.7187,7.7187,7.7187,7.7187,7.7187,7.7187,7.7187,7.7187,7.7187,7.7187,7.7187,7.7187,7.7187,7.7187,7.7187,7.7187,7.7187,7.7187,7.7148,7.668,7.6523,7.6367,7.5508,7.5234,7.5039,7.418,7.3906,7.3711,7.2851,7.2617,7.2539,7.2109,7.1992,7.1992,7.1992,7.1992,7.1992,7.1992,7.1992,7.1992,7.1992,7.1992,7.1992,7.1992,7.1992,7.1992,7.1992,7.1992,7.1992,7.1992,7.1992,7.1992,7.1992,7.1992,7.1992,7.1992,7.1992,7.1992,7.1992,7.1992,7.1992,7.1992,7.2383,7.2617,7.2617,7.3476,7.414,7.4531,7.4531,7.4765,7.5234,7.6133,7.6439,7.636,7.6789,7.6903,7.6804,7.6804,7.6768,7.6699,7.6699,7.6653,7.6609,7.6546,7.6506,7.6485,7.3164,7.3437,7.3789,7.4687,7.4805,7.5117,7.5976,7.6133,7.6367,7.7109,7.7187,7.7187,7.7187,7.7187,7.7187,7.7187,7.7187,7.7187,7.7187,7.7187,7.7187,7.7187,7.7187,7.7187,7.7187,7.7187,7.7187,7.7187,7.7187,7.7187,7.7187,7.7187,7.7187,7.7187,7.7187,7.7187,7.7187,7.7187,7.7187,7.7187,7.7187,7.7187,7.7187,7.7187,7.7187,7.7187,7.7187,7.7187,7.7187,7.7187,7.7187,7.707,7.6367,7.6133,7.5937,7.5078,7.4805,7.4648,7.375,7.3515,7.332,7.2422,7.2226,7.2187,7.2031,7.1992,7.1992,7.1992,7.1992,7.1992,7.1992,7.1992,7.1992,7.1992,7.1992,7.1992,7.1992,7.1992,7.1992,7.1992,7.1992,7.1992,7.1992,7.1992,7.1992,7.1992,7.1992,7.1992,7.1992,7.2148,7.2226,7.2226,7.3086,7.3515,7.3515,7.4375,7.5156,7.5858,7.6014,7.6092,7.6092,7.6834,7.7093,7.6946,7.6946,7.6853,7.6734,7.6734,7.6653,7.6555,7.6555,7.6496,7.6397,7.6397,7.6397,7.6397,7.3281,7.3906,7.4687,7.5586,7.5703,7.6015,7.6875,7.7031,7.707,7.7187,7.7187,7.7187,7.7187,7.7187,7.7187,7.7187,7.7187,7.7187,7.7187,7.7187,7.7187,7.7187,7.7187,7.7187,7.7187,7.7187,7.7187,7.7187,7.7187,7.7187,7.7187,7.7187,7.7187,7.7187,7.7187,7.7187,7.7187,7.7187,7.7187,7.7187,7.7187,7.7187,7.7187,7.7187,7.7187,7.7187,7.7187,7.7187,7.7187,7.7187,7.7187,7.7187,7.707,7.7031,7.6836,7.5976,7.5703,7.5547,7.4648,7.4414,7.4219,7.3359,7.3125,7.293,7.2187,7.1992,7.1992,7.1992,7.1992,7.1992,7.1992,7.1992,7.1992,7.1992,7.1992,7.1992,7.1992,7.1992,7.1992,7.1992,7.1992,7.1992,7.1992,7.1992,7.1992,7.1992,7.1992,7.1992,7.1992,7.2695,7.3125,7.3125,7.3984,7.4414,7.4414,7.5273,7.5738,7.5746,7.6488,7.6839,7.6878,7.6956,7.6878,7.6638,7.6638,7.6573,7.646,7.646,7.6438,7.6416,7.6416,7.6432,7.6397,7.6397,7.6397,7.6397,7.457,7.5078,7.5586,7.6484,7.664,7.6758,7.7148,7.7187,7.7187,7.7187,7.7187,7.7187,7.7187,7.7187,7.7187,7.7187,7.7187,7.7187,7.7187,7.7187,7.7187,7.7187,7.7187,7.7187,7.7187,7.7187,7.7187,7.7187,7.7187,7.7187,7.7187,7.7187,7.7187,7.7187,7.7187,7.7187,7.7187,7.7187,7.7187,7.7187,7.7187,7.7187,7.7187,7.7187,7.7187,7.7187,7.7187,7.7187,7.7187,7.7187,7.7187,7.7187,7.7187,7.7187,7.7109,7.6758,7.664,7.6445,7.5547,7.5312,7.5117,7.4258,7.4023,7.3789,7.293,7.2734,7.2578,7.2109,7.1992,7.1992,7.1992,7.1992,7.1992,7.1992,7.1992,7.1992,7.1992,7.1992,7.1992,7.1992,7.1992,7.1992,7.1992,7.1992,7.1992,7.1992,7.2461,7.2734,7.2734,7.3555,7.4023,7.4023,7.4883,7.5312,7.5312,7.6172,7.6557,7.6438,7.6828,7.6965,7.6878,7.6878,7.6786,7.66,7.66,7.6536,7.6397,7.6397,7.6397,7.6397,7.6397,7.6397,7.6397,7.6397,7.6397,7.6397]}]]